[[{"header":{"parameterUnit":"m.s-1","parameterCategory":1,"la1":31.0,"la2":29.5877,"lo1":-88.7671,"lo2":-86.6584,"dy":0.0162,"dx":0.0185,"nx":115,"ny":88,"refTime":"2023-07-13T06:00:00:Z","depth":0,"parameterNumber":2,"parameterNumberName":"U-component_of_WINDS"},"data":[0.0,0.0,0.0,0.0,0.0,0.0,0.0,0.0,0.0,0.0,0.0,0.0,0.0,0.0,0.0,0.0,0.0,0.0,0.0,0.0,0.0,0.0,0.0,0.0,0.0,0.0,0.0,0.0,0.0,0.0,0.0,0.0,0.0,0.0,0.0,0.0,0.0,0.0,0.0,0.0,0.0,0.0,0.0,0.0,0.0,0.0,0.0,0.0,0.0,0.0,0.0,0.0,0.0,0.0,0.0,0.0,0.0,0.0,0.0,0.0,0.0,0.0,0.0,0.0,0.0,0.0,0.0,0.0,0.0,0.0,0.0,0.0,0.0,0.0,0.0,0.0,0.0,0.0,0.0,0.0,0.0,0.0,0.0,0.0,0.0,0.0,0.0,0.0,0.0,0.0,0.0,0.0,0.0,0.0,0.0,0.0,0.0,0.0,0.0,0.0,0.0,0.0,0.0,0.0,0.0,0.0,0.0,0.0,0.0,0.0,0.0,0.0,0.0,0.0,0.0,0.0,0.0,0.0,0.0,0.0,0.0,0.0,0.0,0.0,0.0,0.0,0.0,0.0,0.0,0.0,0.0,0.0,0.0,0.0,0.0,0.0,0.0,0.0,0.0,0.0,0.0,0.0,0.0,0.0,0.0,0.0,0.0,0.0,0.0,0.0,0.0,0.0,0.0,0.0,0.0,0.0,0.0,0.0,0.0,0.0,0.0,0.0,0.0,0.0,0.0,0.0,0.0,0.0,0.0,0.0,0.0,0.0,0.0,0.0,0.0,0.0,0.0,0.0,0.0,0.0,0.0,0.0,0.0,0.0,0.0,0.0,0.0,0.0,0.0,0.0,0.0,0.0,0.0,0.0,0.0,0.0,0.0,0.0,0.0,0.0,0.0,0.0,0.0,0.0,0.0,0.0,0.0,0.0,0.0,0.0,0.0,0.0,0.0,0.0,0.0,0.0,0.0,0.0,0.0,0.0,0.0,0.0,0.0,0.0,0.0,0.0,0.0,0.0,0.0,0.0,0.0,0.0,0.0,0.0,0.0,0.0,0.0,0.0,0.0,0.0,0.0,0.0,0.0,0.0,0.0,0.0,0.0,0.0,0.0,0.0,0.0,0.0,0.0,0.0,0.0,0.0,0.0,0.0,0.0,0.0,0.0,0.0,0.0,0.0,0.0,0.0,0.0,0.0,0.0,0.0,0.0,0.0,0.0,0.0,0.0,0.0,0.0,0.0,0.0,0.0,0.0,0.0,0.0,0.0,0.0,0.0,0.0,0.0,0.0,0.0,0.0,0.0,0.0,0.0,0.0,0.0,0.0,0.0,0.0,0.0,0.0,0.0,0.0,0.0,0.0,0.0,0.0,0.0,0.0,0.0,0.0,0.0,0.0,0.0,0.0,0.0,0.0,0.0,0.0,0.0,0.0,0.0,0.0,0.0,0.0,0.0,0.0,0.0,0.0,0.0,0.0,0.0,0.0,0.0,0.0,0.0,0.0,0.0,0.0,0.0,0.0,0.0,0.0,0.0,0.0,0.0,0.0,0.0,0.0,0.0,0.0,0.0,0.0,0.0,0.0,0.0,0.0,0.0,0.0,0.0,0.0,0.0,0.0,0.0,0.0,0.0,0.0,0.0,0.0,0.0,0.0,0.0,0.0,0.0,0.0,0.0,0.0,0.0,0.0,0.0,0.0,0.0,0.0,0.0,0.0,0.0,0.0,0.0,0.0,0.0,0.0,0.0,0.0,0.0,0.0,0.0,0.0,0.0,0.0,0.0,0.0,0.0,0.0,0.0,0.0,0.0,0.0,0.0,0.0,0.0,0.0,0.0,0.0,0.0,0.0,0.0,0.0,0.0,0.0,0.0,0.0,0.0,0.0,0.0,0.0,0.0,0.0,0.0,0.0,0.0,0.0,0.0,0.0,0.0,0.0,0.0,0.0,0.0,0.0,0.0,0.0,0.0,0.0,0.0,0.0,0.0,0.0,0.0,0.0,0.0,0.0,0.0,0.0,0.0,0.0,0.0,0.0,0.0,0.0,0.0,0.0,0.0,0.0,0.0,0.0,0.0,0.0,0.0,0.0,0.0,0.0,0.0,0.0,0.0,0.0,0.0,0.0,0.0,0.0,0.0,0.0,0.0,0.0,0.0,0.0,0.0,0.0,0.0,0.0,0.0,0.0,0.0,0.0,0.0,0.0,0.0,0.0,0.0,0.0,0.0,0.0,0.0,0.0,0.0,0.0,0.0,0.0,0.0,0.0,0.0,0.0,0.0,0.0,0.0,0.0,0.0,0.0,0.0,0.0,0.0,0.0,0.0,0.0,0.0,0.0,0.0,0.0,0.0,0.0,0.0,0.0,0.0,0.0,0.0,0.0,0.0,0.0,0.0,0.0,0.0,0.0,0.0,0.0,0.0,0.0,0.0,0.0,0.0,0.0,0.0,0.0,0.0,0.0,0.0,0.0,0.0,0.0,0.0,0.0,0.0,0.0,0.0,0.0,0.0,0.0,0.0,0.0,0.0,0.0,0.0,0.0,0.0,0.0,0.0,0.0,0.0,0.0,0.0,0.0,0.0,0.0,0.0,0.0,0.0,0.0,0.0,0.0,0.0,0.0,0.0,0.0,0.0,0.0,0.0,0.0,0.0,0.0,0.0,0.0,0.0,0.0,0.0,0.0,0.0,0.0,0.0,0.0,0.0,0.0,0.0,0.0,0.0,0.0,0.0,0.0,0.0,0.0,0.0,0.0,0.0,0.0,0.0,0.0,0.0,0.0,0.0,0.0,0.0,0.0,0.0,0.0,0.0,0.0,0.0,0.0,0.0,0.0,0.0,0.0,0.0,0.0,0.0,0.0,0.0,0.0,0.0,0.0,0.0,0.0,0.0,0.0,0.0,0.0,0.0,0.0,0.0,0.0,0.0,0.0,0.0,0.0,0.0,0.0,0.0,0.0,0.0,0.0,0.0,0.0,0.0,0.0,0.0,0.0,0.0,0.0,0.0,0.0,0.0,0.0,0.0,0.0,0.0,0.0,0.0,0.0,0.0,0.0,0.0,0.0,0.0,0.0,0.0,0.0,0.0,0.0,0.0,0.0,0.0,0.0,0.0,0.0,0.0,0.0,0.0,0.0,0.0,0.0,0.0,0.0,0.0,0.0,0.0,0.0,0.0,0.0,0.0,0.0,0.0,0.0,0.0,0.0,0.0,0.0,0.0,0.0,0.0,0.0,0.0,0.0,0.0,0.0,0.0,0.0,0.0,0.0,0.0,0.0,0.0,0.0,0.0,0.0,0.0,0.0,0.0,0.0,0.0,0.0,0.0,0.0,0.0,0.0,0.0,0.0,0.0,0.0,0.0,0.0,0.0,0.0,0.0,0.0,0.0,0.0,0.0,0.0,0.0,0.0,0.0,0.0,0.0,0.0,0.0,0.0,0.0,0.0,0.0,0.0,0.0,0.0,0.0,0.0,0.0,0.0,0.0,0.0,0.0,0.0,0.0,0.0,0.0,0.0,0.0,0.0,0.0,0.0,0.0,0.0,0.0,0.0,0.0,0.0,0.0,0.0,0.0,0.0,0.0,0.0,0.0,0.0,0.0,0.0,0.0,0.0,0.0,0.0,0.0,0.0,0.0,0.0,0.0,0.0,0.0,0.0,0.0,0.0,0.0,0.0,0.0,0.0,0.0,0.0,0.0,0.0,0.0,0.0,0.0,0.0,0.0,0.0,0.0,0.0,0.0,0.0,0.0,0.0,0.0,0.0,0.0,0.0,0.0,0.0,0.0,0.0,0.0,0.0,0.0,0.0,0.0,0.0,0.0,0.0,0.0,0.0,0.0,0.0,0.0,0.0,0.0,0.0,0.0,0.0,0.0,0.0,0.0,0.0,0.0,0.0,0.0,0.0,0.0,0.0,0.0,0.0,0.0,0.0,0.0,0.0,0.0,0.0,0.0,0.0,0.0,0.0,0.0,0.0,0.0,0.0,0.0,0.0,0.0,0.0,0.0,0.0,0.0,0.0,0.0,0.0,0.0,0.0,0.0,0.0,0.0,0.0,0.0,0.0,0.0,0.0,0.0,0.0,0.0,0.0,0.0,0.0,0.0,0.0,0.0,0.0,0.0,0.0,0.0,0.0,0.0,0.0,0.0,0.0,0.0,0.0,0.0,0.0,0.0,0.0,0.0,0.0,0.0,0.0,0.0,0.0,0.0,0.0,0.0,0.0,0.0,0.0,0.0,0.0,0.0,0.0,0.0,0.0,0.0,0.0,0.0,0.0,0.0,0.0,0.0,-0.0,0.0,0.0,0.0,0.0,0.0,0.0,0.0,0.0,0.0,0.0,0.0,0.0,0.0,0.0,0.0,0.0,0.0,0.0,0.0,0.0,0.0,0.0,0.0,0.0,0.0,0.0,0.0,0.0,0.0,0.0,0.0,0.0,0.0,0.0,0.0,0.0,0.0,0.0,0.0,0.0,0.0,0.0,0.0,0.0,0.0,0.0,0.0,0.0,0.0,0.0,0.0,0.0,0.0,0.0,0.0,0.0,0.0,0.0,0.0,0.0,0.0,0.0,0.0,0.0,0.0,0.0,0.0,0.0,0.0,0.0,0.0,0.0,0.0,0.0,0.0,0.0,0.0,0.0,0.0,0.0,0.0,0.0,0.0,0.0,0.0,0.0,0.0,0.0,0.0,0.0,0.0,0.0,0.0,0.0,0.0,0.0,0.0,0.0,0.0,0.0,0.0,0.0,0.0,0.0,0.0,0.0,0.0,0.0,0.0,0.0,-0.0,-0.0,-0.0,-0.0,-0.0,0.0,0.0,0.0,0.0,0.0,0.0,0.0,0.0,0.0,0.0,0.0,0.0,0.0,0.0,0.0,0.0,0.0,0.0,0.0,0.0,0.0,0.0,0.0,0.0,0.0,0.0,0.0,0.0,0.0,0.0,0.0,0.0,0.0,0.0,0.0,0.0,0.0,0.0,0.0,0.0,0.0,0.0,0.0,0.0,0.0,0.0,0.0,0.0,0.0,0.0,0.0,0.0,0.0,0.0,0.0,0.0,0.0,0.0,0.0,0.0,0.0,0.0,0.0,0.0,0.0,0.0,0.0,0.0,0.0,0.0,0.0,0.0,0.0,0.0,0.0,0.0,0.0,0.0,0.0,0.0,0.0,0.0,0.0,0.0,0.0,0.0,0.0,0.0,0.0,0.0,0.0,0.0,0.0,0.0,0.0,0.0,0.0,0.0,0.0,0.0,0.0,0.0,0.0,0.0,0.0,0.0,0.0,0.0,0.0,0.0,0.0,0.0,-0.0,-0.0,-0.0,0.0,0.0,0.0,0.0,0.0,0.0,0.0,0.0,0.0,0.0,0.0,0.0,0.0,0.0,0.0,0.0,0.0,0.0,0.0,0.0,0.0,0.0,0.0,0.0,0.0,0.0,0.0,0.0,0.0,0.0,0.0,0.0,0.0,0.0,0.0,0.0,0.0,0.0,0.0,0.0,0.0,0.0,0.0,0.0,0.0,0.0,0.0,0.0,0.0,0.0,0.0,0.0,0.0,0.0,0.0,0.0,0.0,0.0,0.0,0.0,0.0,0.0,0.0,0.0,0.0,0.0,0.0,0.0,0.0,0.0,0.0,0.0,0.0,0.0,0.0,0.0,0.0,0.0,0.0,0.0,0.0,0.0,0.0,0.0,0.0,0.0,0.0,0.0,0.0,0.0,0.0,0.0,0.0,0.0,0.0,0.0,0.0,0.0,0.0,0.0,0.0,0.0,0.0,0.0,0.0,0.0,0.0,0.0,0.0,0.0,-0.0,-0.0,-0.0,0.0,-0.0,0.0,0.0,0.0,0.0,0.0,0.0,0.0,0.0,0.0,0.0,0.0,0.0,0.0,0.0,0.0,0.0,0.0,0.0,0.0,0.0,0.0,0.0,0.0,0.0,0.0,0.0,0.0,0.0,0.0,0.0,0.0,0.0,0.0,0.0,0.0,0.0,0.0,0.0,0.0,0.0,0.0,0.0,0.0,0.0,0.0,0.0,0.0,0.0,0.0,0.0,0.0,0.0,0.0,0.0,0.0,0.0,0.0,0.0,0.0,0.0,0.0,0.0,0.0,0.0,0.0,0.0,0.0,0.0,0.0,0.0,0.0,0.0,0.0,0.0,0.0,0.0,0.0,0.0,0.0,0.0,0.0,0.0,0.0,0.0,0.0,0.0,0.0,0.0,0.0,0.0,0.0,0.0,0.0,0.0,0.0,0.0,0.0,0.0,0.0,0.0,0.0,0.0,0.0,0.0,0.0,0.0,0.0,0.0,0.0,0.0,-0.0,-0.0,-0.0,-0.0,0.0,0.0,0.0,0.0,0.0,0.0,0.0,0.0,0.0,0.0,0.0,0.0,0.0,0.0,0.0,0.0,0.0,0.0,0.0,0.0,0.0,0.0,0.0,0.0,0.0,0.0,0.0,0.0,0.0,0.0,0.0,0.0,0.0,0.0,0.0,0.0,0.0,0.0,0.0,0.0,0.0,0.0,0.0,0.0,0.0,0.0,0.0,0.0,0.0,0.0,0.0,0.0,0.0,0.0,0.0,0.0,0.0,0.0,0.0,0.0,0.0,0.0,0.0,0.0,0.0,0.0,0.0,0.0,0.0,0.0,0.0,0.0,0.0,0.0,0.0,0.0,0.0,0.0,0.0,0.0,0.0,0.0,0.0,0.0,0.0,0.0,0.0,0.0,0.0,0.0,0.0,0.0,0.0,0.0,0.0,0.0,0.0,0.0,0.0,0.0,0.0,0.0,0.0,0.0,0.0,0.0,0.0,0.0,0.0,0.0,-0.0,-0.0,-0.0,-0.0,-0.0,-0.0,0.0,0.0,0.0,0.0,0.0,0.0,0.0,0.0,0.0,0.0,0.0,0.0,0.0,0.0,0.0,0.0,0.0,0.0,0.0,0.0,0.0,0.0,0.0,0.0,0.0,0.0,0.0,0.0,0.0,0.0,0.0,0.0,0.0,0.0,0.0,0.0,0.0,0.0,0.0,0.0,0.0,0.0,0.0,0.0,0.0,0.0,0.0,0.0,0.0,0.0,0.0,0.0,0.0,0.0,0.0,0.0,0.0,0.0,0.0,0.0,0.0,0.0,0.0,0.0,0.0,0.0,0.0,0.0,0.0,0.0,0.0,0.0,0.0,0.0,0.0,0.0,0.0,0.0,0.0,0.0,0.0,0.0,0.0,0.0,0.0,0.0,0.0,0.0,0.0,0.0,0.0,0.0,0.0,0.0,0.0,0.0,0.0,0.0,0.0,0.0,0.0,0.0,0.0,0.0,0.0,0.0,0.0,0.0,-0.0,-0.0,-0.0,-0.0,-0.0,-0.0,0.0,0.0,0.0,0.0,0.0,0.0,0.0,0.0,0.0,0.0,0.0,0.0,0.0,0.0,0.0,0.0,0.0,0.0,0.0,0.0,0.0,0.0,0.0,0.0,0.0,0.0,0.0,0.0,0.0,0.0,0.0,0.0,0.0,0.0,0.0,0.0,0.0,0.0,0.0,0.0,0.0,0.0,0.0,0.0,0.0,0.0,0.0,0.0,0.0,0.0,0.0,0.0,0.0,0.0,0.0,0.0,0.0,0.0,0.0,0.0,0.0,0.0,0.0,0.0,0.0,0.0,0.0,0.0,0.0,0.0,0.0,0.0,0.0,0.0,0.0,0.0,0.0,0.0,0.0,0.0,0.0,0.0,0.0,0.0,0.0,0.0,0.0,0.0,0.0,0.0,0.0,0.0,0.0,0.0,0.0,0.0,0.0,0.0,0.0,0.0,0.0,0.0,0.0,0.0,0.0,0.0,0.0,0.0,0.0,-0.0,-0.0,-0.0,-0.0,-0.0,-0.0,0.0,0.0,0.0,0.0,0.0,0.0,0.0,0.0,0.0,0.0,0.0,0.0,0.0,0.0,0.0,0.0,0.0,0.0,0.0,0.0,0.0,0.0,0.0,0.0,0.0,0.0,0.0,0.0,0.0,0.0,0.0,0.0,0.0,0.0,0.0,0.0,0.0,0.0,0.0,0.0,0.0,0.0,0.0,0.0,0.0,0.0,0.0,0.0,0.0,0.0,0.0,0.0,0.0,0.0,0.0,0.0,0.0,0.0,0.0,0.0,0.0,0.0,0.0,0.0,0.0,0.0,0.0,0.0,0.0,0.0,0.0,0.0,0.0,0.0,0.0,0.0,0.0,0.0,0.0,0.0,0.0,0.0,0.0,0.0,0.0,0.0,0.0,0.0,0.0,0.0,0.0,0.0,0.0,0.0,0.0,0.0,0.0,0.0,0.0,0.0,0.0,0.0,0.0,0.0,0.0,0.0,0.0,0.0,0.0,-0.0,0.0,-0.0,-0.0,-0.0,-0.0,0.0,0.0,0.0,0.0,0.0,0.0,0.0,0.0,0.0,0.0,0.0,0.0,0.0,0.0,0.0,0.0,0.0,0.0,0.0,0.0,0.0,0.0,0.0,0.0,0.0,0.0,0.0,0.0,0.0,0.0,0.0,0.0,0.0,0.0,0.0,0.0,0.0,0.0,0.0,0.0,0.0,0.0,0.0,0.0,0.0,0.0,0.0,0.0,0.0,0.0,0.0,0.0,0.0,0.0,0.0,0.0,0.0,0.0,0.0,0.0,0.0,0.0,0.0,0.0,0.0,0.0,0.0,0.0,0.0,0.0,0.0,0.0,0.0,0.0,0.0,0.0,0.0,0.0,0.0,0.0,0.0,0.0,0.0,0.0,0.0,0.0,0.0,0.0,0.0,0.0,0.0,0.0,0.0,0.0,0.0,0.0,0.0,0.0,0.0,0.0,0.0,0.0,0.0,0.0,0.0,0.0,0.0,0.0,-0.0,-0.0,-0.0,-0.0,-0.0,-0.0,-0.0,0.0,0.0,0.0,0.0,0.0,0.0,0.0,0.0,0.0,0.0,0.0,0.0,0.0,0.0,0.0,0.0,0.0,0.0,0.0,0.0,0.0,0.0,0.0,0.0,0.0,0.0,0.0,0.0,0.0,0.0,0.0,0.0,0.0,0.0,0.0,0.0,0.0,0.0,0.0,0.0,0.0,0.0,0.0,0.0,0.0,0.0,0.0,0.0,0.0,0.0,0.0,0.0,0.0,0.0,0.0,0.0,0.0,0.0,0.0,0.0,0.0,0.0,0.0,0.0,0.0,0.0,0.0,0.0,0.0,0.0,0.0,0.0,0.0,0.0,0.0,0.0,0.0,0.0,0.0,0.0,0.0,0.0,0.0,0.0,0.0,0.0,0.0,0.0,0.0,0.0,0.0,0.0,0.0,0.0,0.0,0.0,0.0,0.0,0.0,0.0,0.0,0.0,0.0,0.0,0.0,0.0,0.0,0.0,0.0,-0.0,-0.0,-0.0,-0.0,-0.0,-0.0,0.0,0.0,0.0,0.0,0.0,0.0,0.0,0.0,0.0,0.0,0.0,0.0,0.0,0.0,0.0,0.0,0.0,0.0,0.0,0.0,0.0,0.0,0.0,0.0,0.0,0.0,0.0,0.0,0.0,0.0,0.0,0.0,0.0,0.0,0.0,0.0,0.0,0.0,0.0,0.0,0.0,0.0,0.0,0.0,0.0,0.0,0.0,0.0,0.0,0.0,0.0,0.0,0.0,0.0,0.0,0.0,0.0,0.0,0.0,0.0,0.0,0.0,0.0,0.0,0.0,0.0,0.0,0.0,0.0,0.0,0.0,0.0,0.0,0.0,0.0,0.0,0.0,0.0,0.0,0.0,0.0,0.0,0.0,0.0,0.0,0.0,0.0,0.0,0.0,0.0,0.0,0.0,0.0,0.0,0.0,0.0,0.0,0.0,0.0,0.0,0.0,0.0,0.0,0.0,0.0,0.0,0.0,0.0,0.0,-0.0,-0.0,-0.0,-0.0,-0.0,-0.0,-0.0,0.0,0.0,0.0,0.0,0.0,0.0,0.0,0.0,0.0,0.0,0.0,0.0,0.0,0.0,0.0,0.0,0.0,0.0,0.0,0.0,0.0,0.0,0.0,0.0,0.0,0.0,0.0,0.0,0.0,0.0,0.0,0.0,0.0,0.0,0.0,0.0,0.0,0.0,0.0,0.0,0.0,0.0,0.0,0.0,0.0,0.0,0.0,0.0,0.0,0.0,0.0,0.0,0.0,0.0,0.0,0.0,0.0,0.0,0.0,0.0,0.0,0.0,0.0,0.0,0.0,0.0,0.0,0.0,0.0,0.0,0.0,0.0,0.0,0.0,0.0,0.0,0.0,0.0,0.0,0.0,0.0,0.0,0.0,0.0,0.0,0.0,0.0,0.0,0.0,0.0,0.0,0.0,0.0,0.0,0.0,0.0,0.0,0.0,0.0,0.0,0.0,0.0,0.0,0.0,0.0,0.0,0.0,0.0,-0.0,-0.0,-0.0,-0.0,-0.0,-0.0,0.0,0.0,0.0,0.0,0.0,0.0,0.0,0.0,0.0,0.0,0.0,0.0,0.0,0.0,0.0,0.0,0.0,0.0,0.0,0.0,0.0,0.0,0.0,0.0,0.0,0.0,0.0,0.0,0.0,0.0,0.0,0.0,0.0,0.0,0.0,0.0,0.0,0.0,0.0,0.0,0.0,0.0,0.0,0.0,0.0,0.0,0.0,0.0,0.0,0.0,0.0,0.0,0.0,0.0,0.0,0.0,0.0,0.0,0.0,0.0,0.0,0.0,0.0,0.0,0.0,0.0,0.0,0.0,0.0,0.0,0.0,0.0,0.0,0.0,0.0,0.0,0.0,0.0,0.0,0.0,0.0,0.0,0.0,0.0,0.0,0.0,0.0,0.0,0.0,0.0,0.0,0.0,0.0,0.0,0.0,0.0,0.0,0.0,0.0,0.0,0.0,0.0,0.0,0.0,0.0,0.0,0.0,0.0,0.0,-0.0,-0.0,-0.0,-0.0,-0.0,-0.0,0.0,0.0,0.0,0.0,0.0,0.0,0.0,0.0,0.0,0.0,0.0,0.0,0.0,0.0,0.0,0.0,0.0,0.0,0.0,0.0,0.0,0.0,0.0,0.0,0.0,0.0,0.0,0.0,0.0,0.0,0.0,0.0,0.0,0.0,0.0,0.0,0.0,0.0,0.0,0.0,0.0,0.0,0.0,0.0,0.0,0.0,0.0,0.0,0.0,0.0,0.0,0.0,0.0,0.0,0.0,0.0,0.0,0.0,0.0,0.0,0.0,0.0,0.0,0.0,0.0,0.0,0.0,0.0,0.0,0.0,0.0,0.0,0.0,0.0,0.0,0.0,0.0,0.0,0.0,0.0,0.0,0.0,0.0,0.0,0.0,0.0,0.0,0.0,0.0,0.0,0.0,0.0,0.0,0.0,0.0,0.0,0.0,0.0,0.0,0.0,0.0,0.0,0.0,0.0,0.0,0.0,0.0,0.0,-0.0,-0.0,-0.0,-0.0,-0.0,-0.0,-0.0,0.0,0.0,0.0,0.0,0.0,0.0,0.0,0.0,0.0,0.0,0.0,0.0,0.0,0.0,0.0,0.0,0.0,0.0,0.0,0.0,0.0,0.0,0.0,0.0,0.0,0.0,0.0,0.0,0.0,0.0,0.0,0.0,0.0,0.0,0.0,0.0,0.0,0.0,0.0,0.0,0.0,0.0,0.0,0.0,0.0,0.0,0.0,0.0,0.0,0.0,0.0,0.0,0.0,0.0,0.0,0.0,0.0,0.0,0.0,0.0,0.0,0.0,0.0,0.0,0.0,0.0,0.0,0.0,0.0,0.0,0.0,0.0,0.0,0.0,0.0,0.0,0.0,0.0,0.0,0.0,0.0,0.0,0.0,0.0,0.0,0.0,0.0,0.0,0.0,0.0,0.0,0.0,0.0,0.0,0.0,0.0,0.0,0.0,0.0,0.0,0.0,0.0,0.0,0.0,0.0,0.0,0.0,0.0,-0.0,-0.0,-0.0,-0.0,-0.0,-0.0,-0.0,0.0,0.0,0.0,0.0,0.0,0.0,0.0,0.0,0.0,0.0,0.0,0.0,0.0,0.0,0.0,0.0,0.0,0.0,0.0,0.0,0.0,0.0,0.0,0.0,0.0,0.0,0.0,0.0,0.0,0.0,0.0,0.0,0.0,0.0,0.0,0.0,0.0,0.0,0.0,0.0,0.0,0.0,0.0,0.0,0.0,0.0,0.0,0.0,0.0,0.0,0.0,0.0,0.0,0.0,0.0,0.0,0.0,0.0,0.0,0.0,0.0,0.0,0.0,0.0,0.0,0.0,0.0,0.0,0.0,0.0,0.0,0.0,0.0,0.0,0.0,0.0,0.0,0.0,0.0,0.0,0.0,0.0,0.0,0.0,0.0,0.0,0.0,0.0,0.0,0.0,0.0,0.0,0.0,0.0,0.0,0.0,0.0,0.0,0.0,0.0,0.0,0.0,0.0,0.0,0.0,0.0,0.0,0.0,-0.0,-0.0,-0.0,-0.0,-0.0,-0.0,-0.0,0.0,0.0,0.0,0.0,0.0,0.0,0.0,0.0,0.0,0.0,0.0,0.0,0.0,0.0,0.0,0.0,0.0,0.0,0.0,0.0,0.0,0.0,0.0,0.0,0.0,0.0,0.0,0.0,0.0,0.0,0.0,0.0,0.0,0.0,0.0,0.0,0.0,0.0,0.0,0.0,0.0,0.0,0.0,0.0,0.0,0.0,0.0,0.0,-0.0,0.0,0.0,0.0,0.0,0.0,0.0,0.0,0.0,0.0,0.0,0.0,0.0,0.0,0.0,0.0,0.0,0.0,0.0,0.0,0.0,0.0,0.0,0.0,0.0,0.0,0.0,0.0,0.0,0.0,0.0,0.0,0.0,0.0,0.0,0.0,0.0,0.0,0.0,0.0,0.0,0.0,0.0,0.0,0.0,0.0,0.0,0.0,0.0,0.0,0.0,0.0,0.0,0.0,0.0,0.0,0.0,0.0,0.0,0.0,-0.0,-0.0,-0.0,-0.0,-0.0,-0.0,-0.0,0.0,0.0,0.0,0.0,0.0,0.0,0.0,0.0,0.0,0.0,0.0,0.0,0.0,0.0,0.0,0.0,0.0,0.0,0.0,0.0,0.0,0.0,0.0,0.0,0.0,0.0,0.0,0.0,0.0,0.0,0.0,0.0,0.0,0.0,0.0,0.0,0.0,0.0,0.0,0.0,0.0,0.0,0.0,0.0,0.0,0.0,0.0,0.0,0.0,0.0,0.0,0.0,0.0,0.0,0.0,0.0,0.0,0.0,0.0,0.0,0.0,0.0,0.0,0.0,0.0,0.0,0.0,0.0,0.0,0.0,0.0,0.0,0.0,0.0,0.0,0.0,0.0,0.0,0.0,0.0,0.0,0.0,0.0,0.0,0.0,0.0,0.0,0.0,0.0,0.0,0.0,0.0,0.0,0.0,0.0,0.0,0.0,0.0,0.0,0.0,0.0,0.0,0.0,0.0,0.0,0.0,0.0,-0.0,-0.0,-0.0,-0.0,-0.0,-0.0,-0.0,-0.0,-0.0,0.0,0.0,0.0,0.0,0.0,0.0,0.0,0.0,0.0,0.0,0.0,0.0,0.0,0.0,0.0,0.0,0.0,0.0,0.0,0.0,0.0,0.0,0.0,0.0,0.0,0.0,0.0,0.0,0.0,0.0,0.0,0.0,0.0,0.0,0.0,0.0,0.0,0.0,-0.0,-0.0,0.0,0.0,0.0,0.0,0.0,0.0,0.0,0.0,-0.0,0.0,0.0,0.0,0.0,0.0,0.0,0.0,0.0,0.0,0.0,0.0,0.0,0.0,0.0,0.0,0.0,0.0,0.0,0.0,0.0,0.0,0.0,0.0,0.0,0.0,0.0,0.0,0.0,0.0,0.0,0.0,0.0,0.0,0.0,0.0,0.0,0.0,0.0,0.0,0.0,0.0,0.0,0.0,0.0,0.0,0.0,0.0,0.0,0.0,0.0,0.0,0.0,0.0,0.0,0.0,0.0,-0.0,-0.0,-0.0,-0.0,-0.0,-0.0,-0.0,-0.0,-0.0,-0.0,0.0,0.0,0.0,0.0,0.0,0.0,0.0,0.0,0.0,0.0,0.0,0.0,0.0,0.0,0.0,0.0,0.0,0.0,0.0,0.0,0.0,0.0,0.0,0.0,0.0,0.0,0.0,0.0,0.0,0.0,0.0,0.0,0.0,0.0,0.0,0.0,0.0,0.0,0.0,-0.0,-0.0,0.0,0.0,0.0,0.0,0.0,0.0,0.0,0.0,-0.0,0.0,0.0,0.0,0.0,0.0,0.0,0.0,0.0,0.0,0.0,0.0,0.0,0.0,0.0,0.0,0.0,0.0,0.0,0.0,0.0,0.0,0.0,0.0,0.0,0.0,0.0,0.0,0.0,0.0,0.0,0.0,0.0,0.0,0.0,0.0,0.0,0.0,0.0,0.0,0.0,0.0,0.0,0.0,0.0,0.0,0.0,0.0,0.0,0.0,0.0,0.0,0.0,0.0,0.0,0.0,-0.0,-0.0,-0.0,-0.0,-0.0,-0.0,-0.0,-0.0,-0.0,0.0,0.0,0.0,0.0,0.0,0.0,0.0,0.0,0.0,0.0,0.0,0.0,0.0,0.0,0.0,0.0,0.0,0.0,0.0,0.0,0.0,0.0,0.0,0.0,0.0,0.0,0.0,0.0,0.0,0.0,0.0,0.0,0.0,0.0,0.0,0.0,0.0,0.0,0.0,0.0,-0.0,-0.0,-0.0,0.0,0.0,0.0,0.0,0.0,0.0,-0.0,-0.0,0.0,0.0,0.0,0.0,0.0,0.0,0.0,0.0,0.0,0.0,0.0,0.0,0.0,0.0,0.0,0.0,0.0,0.0,0.0,0.0,0.0,0.0,0.0,0.0,0.0,0.0,0.0,0.0,0.0,0.0,0.0,0.0,0.0,0.0,0.0,0.0,0.0,0.0,0.0,0.0,0.0,0.0,0.0,0.0,0.0,0.0,0.0,0.0,0.0,0.0,0.0,0.0,0.0,0.0,0.0,-0.0,-0.0,-0.0476,-0.1354,-0.0478,-0.0,-0.0,-0.0,-0.0,0.0,0.0,0.0,0.0,0.0,0.0,0.0,0.0,0.0,0.0,0.0,0.0,0.0,0.0,0.0,0.0,0.0,0.0,0.0,0.0,0.0,0.0,0.0,0.0,0.0,0.0,0.0,0.0,0.0,0.0,0.0,0.0,0.0,0.0,0.0,0.0,0.0,0.0,0.0,0.0,0.0,-0.0,-0.0,-0.0,0.0,0.0,0.0,0.0,-0.0,-0.0,0.0,0.0,0.0,0.0,0.0,0.0,0.0,0.0,0.0,0.0,0.0,0.0,0.0,0.0,0.0,0.0,0.0,0.0,0.0,0.0,0.0,0.0,0.0,0.0,0.0,0.0,0.0,0.0,0.0,0.0,0.0,0.0,0.0,0.0,0.0,0.0,0.0,0.0,0.0,0.0,0.0,0.0,0.0,0.0,0.0,0.0,0.0,0.0,0.0,0.0,0.0,0.0,0.0,0.0,0.0,0.0,-0.0,-0.0,-0.2046,-0.5862,-0.2171,-0.0,-0.0,-0.0,-0.0,0.0,0.0,0.0,0.0,0.0,0.0,0.0,0.0,0.0,0.0,0.0,0.0,0.0,0.0,0.0,0.0,0.0,0.0,0.0,0.0,0.0,0.0,0.0,0.0,0.0,0.0,0.0,0.0,0.0,0.0,0.0,0.0,0.0,0.0,0.0,0.0,0.0,0.0,0.0,0.0,0.0,-0.0,-0.0,-0.0,-0.0,0.0,0.0,-0.0,-0.0,-0.0,0.0,0.0,0.0,0.0,0.0,0.0,0.0,0.0,0.0,0.0,0.0,0.0,0.0,0.0,0.0,0.0,0.0,0.0,0.0,0.0,0.0,0.0,0.0,0.0,0.0,0.0,0.0,0.0,0.0,0.0,0.0,0.0,0.0,0.0,0.0,0.0,0.0,0.0,0.0,0.0,0.0,0.0,0.0,0.0,0.0,0.0,0.0,0.0,0.0,0.0,0.0,0.0,0.0,0.0,0.0,-0.4059,-0.3983,-0.2733,-0.3076,-0.5045,-0.4376,-0.336,-0.2093,-0.2013,-0.1427,0.0,0.0,0.0,0.0,0.0,0.0,0.0,0.0,0.0,0.0,0.0,0.0,0.0,0.0,0.0,0.0,0.0,0.0,0.0,0.0,0.0,0.0,0.0,0.0,0.0,0.0,0.0,0.0,0.0,0.0,0.0,0.0,0.0,0.0,0.0,0.0,0.0,0.0,0.0,0.0,0.0,0.0,-0.0,-0.0,0.0,0.0,0.0,-0.0,-0.0,0.0,0.0,0.0,0.0,0.0,0.0,0.0,0.0,0.0,0.0,0.0,0.0,0.0,0.0,0.0,0.0,0.0,0.0,0.0,0.0,0.0,0.0,0.0,0.0,0.0,0.0,0.0,0.0,0.0,0.0,0.0,0.0,0.0,0.0,0.0,0.0,0.0,0.0,0.0,0.0,0.0,0.0,0.0,0.0,0.0,0.0,0.0,0.0,0.0,0.0,0.0,0.0,0.0,0.0,0.0,0.0,0.0,-0.7084,-0.5347,-0.4495,-0.4518,-0.6166,-0.6251,-0.4518,-0.4433,0.0,0.0,0.0,0.0,0.0,0.0,0.0,0.0,0.0,0.0,0.0,0.0,0.0,0.0,0.0,0.0,0.0,0.0,0.0,0.0,0.0,0.0,0.0,0.0,0.0,0.0,0.0,-0.0,0.0,0.0,0.0,0.0,0.0,0.0,0.0,0.0,0.0,0.0,0.0,0.0,0.0,0.0,-0.0,-0.0,-0.0,-0.0,0.0,0.0,-0.0,-0.0,-0.0,-0.0,0.0,0.0,0.0,0.0,0.0,0.0,0.0,0.0,0.0,0.0,0.0,0.0,0.0,0.0,0.0,0.0,0.0,0.0,0.0,0.0,0.0,0.0,0.0,0.0,0.0,0.0,0.0,0.0,0.0,0.0,0.0,0.0,0.0,0.0,0.0,0.0,0.0,0.0,0.0,0.0,0.0,0.0,0.0,0.0,0.0,0.0,0.0,0.0,0.0,0.0,0.0,0.0,0.0,0.0,0.0,-0.7066,-0.6973,-0.6847,-0.6868,-0.7068,-0.7068,-0.6877,-0.6884,-0.6795,0.0,0.0,0.0,0.0,0.0,0.0,0.0,0.0,0.0,0.0,0.0,0.0,0.0,0.0,0.0,0.0,0.0,0.0,0.0,0.0,0.0,0.0,0.0,0.0,0.0,0.0,0.0,0.0,0.0,0.0,0.0,0.0,0.0,0.0,0.0,0.0,0.0,0.0,0.0,0.0,0.0,-0.0,-0.0,-0.0,-0.0,0.0,0.0,-0.0,-0.0,-0.0,-0.0,-0.0,0.0,0.0,0.0,0.0,0.0,0.0,0.0,0.0,0.0,0.0,0.0,0.0,0.0,0.0,0.0,0.0,0.0,0.0,0.0,0.0,0.0,0.0,0.0,0.0,0.0,0.0,0.0,0.0,0.0,0.0,0.0,0.0,0.0,0.0,0.0,0.0,0.0,0.0,0.0,0.0,0.0,0.0,0.0,0.0,0.0,0.0,0.0,0.0,0.0,0.0,0.0,0.0,0.0,-0.5642,-0.7105,-0.7092,-0.7105,-0.7153,-0.7071,-0.7071,-0.7153,-0.7068,-0.7078,0.0,0.0,0.0,0.0,0.0,0.0,0.0,0.0,0.0,0.0,0.0,0.0,0.0,0.0,0.0,0.0,0.0,0.0,0.0,0.0,0.0,0.0,0.0,0.0,0.0,0.0,0.0,0.0,-0.0,-0.0,-0.0,0.0,0.0,0.0,0.0,0.0,0.0,0.0,0.0,0.0,0.0,-0.2973,-0.0389,-0.2188,0.0,0.0,-0.0,-0.0,-0.0,-0.0,-0.0,-0.0,-0.0,0.0,0.0,0.0,0.0,0.0,0.0,0.0,0.0,0.0,0.0,0.0,0.0,0.0,0.0,0.0,0.0,0.0,0.0,0.0,0.0,0.0,0.0,0.0,0.0,0.0,0.0,0.0,0.0,0.0,0.0,0.0,0.0,0.0,0.0,0.0,0.0,0.0,0.0,0.0,0.0,0.0,0.0,0.0,0.0,0.0,0.0,0.0,0.0,0.0,0.0,0.0,0.0,-0.547,-0.7088,-0.7156,-0.7139,-0.7139,-0.7187,-0.7207,-0.721,-0.7255,-0.7265,0.0,0.0,0.0,0.0,0.0,0.0,0.0,0.0,0.0,0.0,0.0,0.0,0.0,0.0,0.0,0.0,0.0,0.0,0.0,0.0,0.0,0.0,0.0,0.0,0.0,0.0,0.0,0.0,-0.0,-0.0,-0.0,0.0,0.0,0.0,0.0,0.0,0.0,0.0,0.0,0.0,0.0,-0.5251,-0.2336,-0.4384,-0.5283,-0.2292,-0.0792,-0.0,-0.0,-0.1203,-0.2085,-0.2165,0.0,0.0,0.0,0.0,0.0,0.0,0.0,0.0,0.0,0.0,0.0,0.0,0.0,0.0,0.0,0.0,0.0,0.0,0.0,0.0,0.0,0.0,0.0,0.0,0.0,0.0,0.0,0.0,0.0,0.0,-0.0,0.0,0.0,0.0,0.0,0.0,0.0,0.0,0.0,0.0,0.0,0.0,0.0,0.0,0.0,0.0,0.0,0.0,0.0,0.0,0.0,0.0,0.0,-0.6999,-0.7104,-0.7081,-0.7149,-0.7153,-0.7288,-0.7366,-0.737,-0.7509,-0.7519,-0.737,0.0,0.0,0.0,0.0,0.0,0.0,0.0,0.0,0.0,0.0,0.0,0.0,0.0,0.0,0.0,0.0,0.0,0.0,0.0,0.0,0.0,0.0,0.0,0.0,0.0,0.0,-0.0,-0.0,-0.0,0.0,0.0,0.0,0.0,0.0,0.0,0.0,0.0,0.0,0.0,-0.6213,-0.6291,-0.6109,-0.6224,-0.6222,-0.6089,-0.2679,-0.0,-0.0,-0.3783,-0.6934,0.0,0.0,0.0,0.0,0.0,0.0,0.0,0.0,0.0,0.0,0.0,0.0,0.0,0.0,0.0,0.0,0.0,0.0,0.0,0.0,0.0,0.0,0.0,0.0,0.0,0.0,0.0,-0.2959,-0.0,0.0,0.0,0.0,0.0,0.0,0.0,0.0,0.0,0.0,0.0,0.0,-0.6927,-0.6136,0.0,0.0,0.0,0.0,0.0,0.0,0.0,0.0,0.0,0.0,0.0,0.0,-0.7373,-0.7458,-0.7451,-0.7444,-0.7448,-0.7499,-0.7522,-0.7526,-0.7573,-0.748,-0.7237,0.0,0.0,0.0,0.0,0.0,0.0,0.0,0.0,0.0,0.0,0.0,0.0,0.0,0.0,0.0,0.0,0.0,0.0,0.0,0.0,0.0,0.0,0.0,0.0,0.0,-0.0,0.0,0.0,0.0,0.0,0.0,0.0,0.0,0.0,0.0,0.0,0.0,-0.6583,-0.6319,-0.6316,-0.6312,-0.6303,-0.6485,-0.6597,0.0,0.0,0.0,0.0,0.0,0.0,0.0,0.0,0.0,0.0,0.0,0.0,0.0,0.0,-0.0,-0.0,-0.0,-0.0,-0.0,0.0,0.0,0.0,0.0,0.0,0.0,0.0,0.0,0.0,0.0,0.0,0.0,0.0,0.0,-0.539,0.0,-0.1591,0.0,0.0,0.0,0.0,0.0,0.0,0.0,0.0,-0.6939,-0.6963,-0.7062,-0.696,-0.6991,0.0,-0.7246,-0.6461,0.0,0.0,0.0,0.0,0.0,0.0,0.0,0.0,-0.7519,-0.76,-0.7604,-0.7597,-0.76,-0.7648,-0.7672,-0.7675,-0.7672,-0.7577,-0.738,-0.7335,-0.7308,0.0,0.0,0.0,0.0,0.0,0.0,0.0,0.0,0.0,0.0,0.0,0.0,0.0,0.0,0.0,0.0,0.0,0.0,0.0,0.0,0.0,0.0,0.0,-0.0,0.0,0.0,0.0,0.0,0.0,0.0,0.0,0.0,0.0,-0.714,-0.6929,-0.6715,-0.6456,-0.645,-0.6443,-0.6529,0.0,0.0,0.0,0.0,0.0,0.0,0.0,-0.3516,-0.6639,-0.7086,-0.709,-0.7093,-0.4565,-0.1891,-0.0258,0.0,0.0,-0.0,-0.0,-0.0,-0.0,-0.0,-0.0,-0.0,-0.0,-0.0,0.0,0.0,0.0,0.0,0.0,0.0,0.0,0.0,-0.6167,-0.7035,0.0,-0.4634,0.0,0.0,0.0,0.0,0.0,-0.7083,0.0,0.0,-0.7102,-0.7153,-0.7156,-0.7153,-0.7231,-0.7373,-0.7377,-0.7448,-0.7483,-0.7472,0.0,0.0,0.0,0.0,0.0,0.0,-0.7614,-0.7732,-0.7631,-0.7614,-0.7624,-0.775,-0.7818,-0.7818,-0.7818,-0.7821,-0.8011,-0.7791,-0.7715,-0.8001,-0.8001,0.0,0.0,0.0,0.0,0.0,0.0,0.0,0.0,0.0,0.0,0.0,0.0,0.0,0.0,0.0,0.0,0.0,0.0,0.0,0.0,-0.2943,0.0,0.0,0.0,0.0,0.0,0.0,0.0,0.0,0.0,0.0,-0.7133,-0.6927,-0.6812,-0.6722,0.0,0.0,0.0,0.0,-0.7133,-0.7107,-0.7063,-0.7121,-0.7074,-0.6999,-0.6992,-0.7091,0.0,0.0,-0.6943,-0.6966,-0.5323,-0.0,-0.0,-0.0,-0.0,-0.0,-0.0,-0.0,-0.0,-0.0,-0.0,-0.0,-0.0,-0.7285,0.0,0.0,0.0,0.0,-0.7138,-0.6686,-0.6138,-0.6779,-0.7145,-0.7054,-0.6427,0.0,0.0,0.0,0.0,0.0,0.0,-0.7399,-0.7506,-0.7455,-0.7468,-0.7465,-0.7468,-0.7492,-0.7533,-0.7536,-0.756,-0.7604,-0.7665,-0.7645,-0.7546,0.0,0.0,0.0,0.0,-0.7804,-0.7909,-0.7913,-0.7916,-0.7916,-0.7953,-0.7974,-0.7977,-0.7974,-0.7977,-0.7977,-0.7936,-0.7916,-0.8014,-0.8007,0.0,0.0,0.0,0.0,0.0,0.0,0.0,0.0,0.0,0.0,0.0,0.0,0.0,0.0,0.0,0.0,0.0,0.0,0.0,-0.7111,-0.586,-0.369,0.0,0.0,0.0,0.0,0.0,0.0,0.0,0.0,0.0,-0.7149,-0.7037,-0.7027,0.0,0.0,-0.7024,-0.7041,-0.7118,-0.7125,-0.7078,-0.7092,0.0,-0.7146,-0.7078,-0.7081,-0.7068,-0.7153,-0.6523,-0.4912,-0.4565,-0.3582,-0.0,-0.0,-0.0,-0.0,-0.0,-0.0,-0.0,-0.0,-0.0,-0.0,-0.0,-0.0,-0.7862,-0.7712,-0.7536,-0.7411,-0.7326,-0.7336,-0.7336,-0.7322,-0.7245,-0.7252,-0.7343,-0.7343,-0.7259,-0.7174,-0.5778,0.0,0.0,0.0,-0.7512,-0.7597,-0.7597,-0.7597,-0.7597,-0.7597,-0.7628,-0.7682,-0.7682,-0.7712,-0.7777,-0.7862,-0.7858,-0.7773,0.0,0.0,-0.7896,-0.7902,-0.7946,-0.8035,-0.8038,-0.8038,-0.8038,-0.8038,-0.8038,-0.8038,-0.8038,-0.8038,-0.8038,-0.8038,-0.8038,-0.8038,-0.7957,-0.8,0.0,0.0,0.0,0.0,0.0,0.0,0.0,0.0,0.0,0.0,0.0,-0.5849,0.0,0.0,0.0,0.0,-0.7075,-0.7071,-0.7071,-0.5422,0.0,0.0,0.0,0.0,0.0,0.0,0.0,-0.7331,-0.7302,-0.7343,-0.7343,-0.7333,-0.7282,-0.7088,-0.6331,-0.6057,-0.6979,0.0,-0.7141,-0.7324,-0.7285,-0.7322,-0.7322,-0.7333,-0.7249,-0.7238,-0.7249,-0.6788,-0.5312,-0.3565,-0.1737,-0.0,-0.0,-0.0,-0.0,-0.0,-0.0,-0.0,-0.0,-0.0,-0.0,-0.0,-0.0,-0.8404,-0.8252,-0.7841,-0.7658,-0.7634,-0.7624,-0.7617,-0.7614,-0.7604,-0.7597,-0.7597,-0.7597,-0.751,-0.7419,-0.7614,0.0,-0.7614,-0.7617,-0.7624,-0.7634,-0.7631,-0.7634,-0.7634,-0.7638,-0.7702,-0.7828,-0.7831,-0.7902,-0.8031,-0.8038,-0.8038,-0.8041,-0.8055,-0.8052,-0.8038,-0.8038,-0.8038,-0.8038,-0.8038,-0.8038,-0.8038,-0.8038,-0.8038,-0.8038,-0.8038,-0.8038,-0.8038,-0.8038,-0.8038,-0.8038,-0.8038,-0.8038,-0.8035,0.0,0.0,0.0,0.0,0.0,0.0,0.0,0.0,0.0,0.0,0.0,0.0,0.0,0.0,0.0,-0.685,0.0,-0.7118,-0.313,0.0,0.0,0.0,-0.7375,-0.7897,-0.7717,-0.7663,-0.7701,0.0,0.0,-0.7597,-0.7597,-0.7499,-0.7214,-0.5267,-0.4639,-0.6815,-0.7118,-0.7201,-0.7576,-0.7602,-0.7594,-0.7567,-0.7573,-0.7573,-0.7483,-0.7537,-0.7432,-0.6948,-0.3882,-0.0947,-0.0948,-0.0,-0.0,-0.0,-0.0,-0.0,-0.0,-0.0,-0.0,-0.0,-0.0,-0.0,-0.8462,-0.8421,-0.8316,-0.8143,-0.7926,-0.7811,-0.776,-0.7753,-0.7645,-0.7597,-0.7597,-0.7597,-0.76,-0.7604,-0.7604,-0.7662,-0.776,-0.776,-0.7824,-0.7929,-0.7936,-0.7936,-0.7936,-0.7933,-0.7953,-0.798,-0.7984,-0.8004,-0.8038,-0.8038,-0.8038,-0.8045,-0.8157,-0.8157,-0.8041,-0.8038,-0.8038,-0.8038,-0.8038,-0.8038,-0.8038,-0.8038,-0.8038,-0.8038,-0.8038,-0.8038,-0.8038,-0.8038,-0.8038,-0.8038,-0.8038,-0.8038,-0.8038,-0.8004,0.0,0.0,0.0,0.0,0.0,0.0,0.0,0.0,0.0,-0.543,-0.6976,0.0,-0.6662,0.0,-0.4568,-0.5132,-0.6935,-0.6084,0.0,0.0,-0.6479,-0.7256,-0.7653,-0.7851,-0.7865,-0.76,-0.7604,-0.7597,-0.7597,-0.7597,-0.7577,-0.7499,-0.6731,-0.6447,-0.7028,-0.714,-0.7256,-0.7743,-0.7872,-0.7795,-0.7611,-0.7597,-0.7607,-0.751,-0.7611,-0.7614,-0.7527,-0.6655,-0.5894,-0.5733,-0.2667,-0.0,-0.0,-0.0,-0.0,-0.0,-0.0,-0.0,-0.0,-0.0,-0.0,-0.8686,-0.8686,-0.8686,-0.8591,-0.8425,-0.8204,-0.8109,-0.8102,-0.8024,-0.7994,-0.7994,-0.7991,-0.7994,-0.7991,-0.7994,-0.8035,-0.8106,-0.8113,-0.8157,-0.8235,-0.8238,-0.8238,-0.8238,-0.8235,-0.8238,-0.8238,-0.8235,-0.8238,-0.8238,-0.8238,-0.8238,-0.8238,-0.8323,-0.8323,-0.8238,-0.8238,-0.8235,-0.8238,-0.8238,-0.8238,-0.8238,-0.8238,-0.8235,-0.8238,-0.8235,-0.8238,-0.8238,-0.8129,-0.8028,-0.8024,-0.7968,-0.8036,-0.8032,-0.7975,-0.8038,0.0,0.0,0.0,0.0,0.0,0.0,0.0,0.0,0.0,0.0,0.0,-0.7039,-0.5892,-0.5586,-0.5965,-0.7325,-0.7516,-0.7513,-0.7513,-0.7527,-0.755,-0.7787,-0.7896,-0.7924,-0.7787,-0.7797,-0.7797,-0.7794,-0.7797,-0.7797,-0.7797,-0.7601,-0.7551,-0.754,-0.7459,-0.7597,-0.7893,-0.7952,-0.7994,-0.7797,-0.7794,-0.7797,-0.7794,-0.7797,-0.7797,-0.7804,-0.7807,-0.7818,-0.765,-0.3606,-0.0,-0.0,-0.0,-0.0,-0.0,-0.0,-0.0,-0.0,-0.0,-0.0,-0.8954,-0.8937,-0.8937,-0.8937,-0.8916,-0.8652,-0.853,-0.8509,-0.8489,-0.8482,-0.8482,-0.8482,-0.8482,-0.8482,-0.8482,-0.8482,-0.8482,-0.8482,-0.8482,-0.8482,-0.8482,-0.8482,-0.8482,-0.8482,-0.8482,-0.8482,-0.8482,-0.8482,-0.8482,-0.8482,-0.8482,-0.8482,-0.8499,-0.8513,-0.8513,-0.8533,-0.8523,-0.8482,-0.8482,-0.8482,-0.8482,-0.8482,-0.8482,-0.8482,-0.8482,-0.8482,-0.8482,-0.8262,-0.8049,-0.8046,-0.815,-0.8087,-0.8084,-0.8062,-0.7985,0.0,-0.7969,0.0,0.0,0.0,0.0,0.0,0.0,0.0,0.0,-0.7865,-0.7777,-0.7995,-0.7773,-0.776,-0.7967,-0.796,-0.7953,-0.7953,-0.7953,-0.8009,-0.8053,-0.807,-0.8031,-0.8082,-0.8096,-0.8096,-0.8096,-0.8096,-0.8096,-0.7992,-0.7992,-0.7915,-0.799,-0.8,-0.7942,-0.8039,-0.7953,-0.8004,-0.8011,-0.8021,-0.8024,-0.8028,-0.8018,-0.8038,-0.8021,-0.8024,-0.8038,-0.765,-0.4401,-0.0,-0.0,-0.0,-0.0,-0.0,-0.0,-0.0,-0.0,-0.0,-0.0,-0.9045,-0.894,-0.8937,-0.8937,-0.8933,-0.8876,-0.8781,-0.8659,-0.8537,-0.8482,-0.8482,-0.8482,-0.8482,-0.8482,-0.8482,-0.8482,-0.8482,-0.8482,-0.8482,-0.8482,-0.8482,-0.8482,-0.8482,-0.8482,-0.8482,-0.8482,-0.8482,-0.8482,-0.8482,-0.8482,-0.8482,-0.8486,-0.8604,-0.8669,-0.8672,0.0,0.0,0.0,-0.8482,-0.8482,-0.8482,-0.8482,-0.8482,-0.8482,-0.8482,0.0,-0.8482,-0.8479,-0.8374,-0.8374,-0.8668,0.0,0.0,0.0,0.0,0.0,0.0,0.0,0.0,0.0,0.0,0.0,-0.797,-0.796,-0.796,-0.796,-0.7963,-0.7967,-0.796,-0.7957,-0.7963,-0.796,-0.796,-0.7957,-0.7957,-0.812,-0.8372,-0.839,-0.8445,-0.8377,-0.8394,-0.8397,-0.8387,-0.8397,-0.8287,-0.8059,-0.7972,-0.7953,-0.7994,-0.8016,-0.8004,-0.8001,-0.8041,-0.8045,-0.8038,-0.8052,-0.8069,-0.8038,-0.8038,-0.8048,-0.7955,-0.7952,-0.7952,-0.7982,-0.7153,-0.6345,-0.6258,-0.3016,-0.0,-0.0,-0.0,-0.0,-0.0,-0.0,-0.0,-0.9225,0.0,-0.9157,-0.9157,0.0,-0.9076,-0.9001,-0.8916,-0.8771,-0.8706,-0.8706,-0.871,-0.8706,-0.8706,-0.8706,-0.8706,-0.8706,-0.871,-0.8706,-0.8706,-0.8706,-0.871,-0.871,-0.871,-0.871,-0.871,-0.8706,-0.8706,-0.8706,-0.871,-0.8706,-0.8706,-0.8784,-0.8825,-0.8825,-0.8896,-0.8862,-0.8706,-0.8706,-0.9026,-0.9762,-0.9766,-1.0083,-1.0818,-1.0924,0.0,0.0,0.0,0.0,0.0,0.0,0.0,0.0,-0.8414,0.0,-0.8273,-0.8056,-0.802,-0.7952,-0.7945,-0.7945,-0.8047,-0.7945,-0.7988,-0.7952,-0.8038,-0.8038,-0.8038,-0.8038,-0.7969,-0.8039,-0.7948,-0.7975,-0.8034,-0.8044,-0.8186,-0.8464,-0.8588,-0.8619,-0.857,-0.8482,-0.8482,-0.8482,-0.8482,-0.8479,-0.8266,-0.8266,-0.8269,-0.8364,-0.8147,-0.8051,-0.8255,-0.8255,-0.8258,-0.8258,-0.8258,-0.8255,-0.8258,-0.8255,-0.8153,-0.8047,-0.8047,-0.7945,-0.7958,-0.7968,-0.7981,-0.7788,-0.5702,-0.3108,-0.0,-0.0,-0.0,-0.0,-0.0,-0.0,-0.9405,-0.9381,-0.9381,-0.9381,-0.9371,-0.9245,-0.9195,-0.9181,0.0,0.0,0.0,-0.8937,-0.8937,-0.8937,-0.8937,-0.8937,-0.8937,-0.8937,-0.8937,-0.8937,-0.8937,-0.8937,-0.8937,-0.8937,-0.8937,-0.8937,-0.8937,-0.8937,-0.8937,-0.8937,-0.8937,-0.8937,-0.8937,-0.9047,-0.9265,-0.9588,-0.9699,-0.9699,-0.9158,-0.9588,-1.1,-1.1109,-1.1755,-1.3264,-1.3264,-1.3264,-1.3264,-1.0987,-0.9667,-0.9708,-0.9708,-0.9666,-0.96,-0.903,-0.8618,-0.8594,-0.8282,-0.8167,-0.8144,-0.8151,-0.8157,-0.8157,-0.8049,-0.8059,-0.8133,-0.8116,-0.8119,-0.8119,-0.8016,-0.7965,-0.7978,-0.8097,-0.814,-0.8148,-0.8157,-0.8269,-0.8516,-0.8737,-0.886,-0.8663,-0.8577,-0.8567,-0.8577,-0.8577,-0.8564,-0.8567,-0.8587,-0.867,-0.8772,-0.8509,-0.8344,-0.856,-0.8546,-0.8465,-0.8476,-0.8465,-0.8482,-0.8459,-0.8465,-0.8374,-0.8157,-0.8049,-0.8049,-0.8239,-0.8174,-0.796,-0.7446,-0.6373,-0.5333,-0.1491,-0.0,-0.0,-0.0,-0.0,-0.0,-0.9503,-0.9381,-0.9381,-0.9381,-0.9381,-0.9357,-0.9351,-0.9327,-0.9059,-0.8937,-0.8937,-0.8937,-0.8937,-0.8937,-0.8937,-0.8937,-0.8937,-0.8937,-0.8937,-0.8937,-0.8937,-0.8937,-0.8937,-0.8937,-0.8937,-0.8937,-0.8937,-0.8937,-0.8937,-0.8937,-0.8937,-0.8937,-0.8937,-0.9588,-1.0781,-1.2077,-1.2729,-1.2615,-1.0135,-0.9588,-1.1109,-1.1109,-1.1755,-1.3156,-1.3372,-1.3264,-1.3264,-1.2886,-1.2668,-1.2709,-1.2649,-1.2649,-1.2572,-1.027,-0.8855,-0.8843,-0.8776,-0.8748,-0.873,-0.8769,-0.8804,-0.8699,-0.8266,-0.8138,-0.8425,-0.8421,-0.8418,-0.8418,-0.819,-0.7998,-0.802,-0.8455,-0.8786,-0.8811,-0.8811,-0.8751,-0.888,-0.8897,-0.8946,-0.8838,-0.8872,-0.8862,-0.8845,-0.8852,-0.8845,-0.8862,-0.8825,-0.8859,-0.8811,-0.8866,-0.8825,-0.8804,-0.8591,-0.8482,-0.8516,-0.8486,-0.8509,-0.8482,-0.8503,-0.852,-0.8414,-0.8411,-0.8516,-0.8709,-0.8737,-0.7868,-0.5826,-0.2747,-0.2551,-0.2665,-0.1603,-0.0,-0.0,-0.0,-0.0,-0.9683,-0.9622,-0.9618,-0.9618,-0.9615,-0.9537,-0.9456,-0.9374,-0.9239,-0.9133,-0.9059,-0.9052,-0.9011,-0.894,-0.8937,-0.8937,-0.8937,-0.8937,-0.8937,-0.8937,-0.8937,-0.8937,-0.8937,-0.8937,-0.8937,-0.894,-0.9699,-1.0131,-1.0127,-1.0887,-1.1324,-1.1319,-1.1324,-1.1647,-1.2295,-1.2945,-1.3264,-1.3264,-1.1973,-1.1969,-1.3372,-1.3475,-1.4126,-1.553,-1.5636,-1.5636,-1.5636,-1.569,-1.4905,-1.3403,-1.4849,-1.5599,-1.5605,-1.2916,-1.1272,-1.13,-1.2802,-1.2243,-0.9065,-0.8911,-0.8935,-0.8901,-0.8598,-0.8507,-0.873,-0.8687,-0.8696,-0.8482,-0.8371,-0.8299,-0.8268,-0.8608,-0.8862,-0.8946,-0.8953,-0.8872,-0.8927,-0.8944,-0.8866,-0.8923,-0.8937,-0.8937,-0.8937,-0.8937,-0.8937,-0.8937,-0.8937,-0.8937,-0.8937,-0.8937,-0.8949,-0.8949,-0.8841,-0.8733,-0.8726,-0.873,-0.873,-0.873,-0.873,-0.873,-0.873,-0.8726,-0.8726,-0.8845,-0.896,-0.8415,-0.697,-0.5891,-0.5025,-0.3601,-0.1965,-0.0,-0.0,-0.0,-0.0,-0.9819,-0.9819,-0.9819,-0.9819,-0.9812,-0.9703,-0.9588,-0.9486,-0.9483,-0.9395,-0.9262,-0.9222,-0.9144,-0.9045,-0.9039,-0.9022,-0.8988,-0.8988,-0.8971,-0.894,-0.9265,-0.9375,-0.9482,-0.9695,-0.9915,-1.0025,-1.1109,-1.1647,-1.1755,-1.2724,-1.3264,-1.3372,-1.3588,-1.3804,-1.3804,-1.4126,-1.4239,-1.4234,-1.4234,-1.4663,-1.5411,-1.5417,-1.6062,-1.7477,-1.7589,-1.7589,-1.7589,-1.7609,-1.6592,-1.4557,-1.6355,-1.7595,-1.7547,-1.5523,-1.4234,-1.4471,-1.6384,-1.5041,-0.9621,-1.0154,-1.0288,-0.8975,-0.8906,-0.8937,-0.892,-0.8946,-0.8803,-0.8584,-0.8598,-0.8535,-0.8629,-0.8764,-0.8924,-0.8923,-0.8937,-0.8923,-0.8937,-0.8937,-0.8937,-0.8937,-0.8937,-0.8937,-0.8937,-0.8937,-0.8937,-0.8937,-0.8937,-0.8937,-0.8937,-0.8937,-0.8937,-0.8937,-0.8937,-0.8923,-0.8937,-0.8927,-0.8923,-0.8937,-0.8927,-0.891,-0.8913,-0.8927,-0.8933,-0.8916,-0.8937,-0.8819,-0.8843,-0.8742,-0.7724,-0.6019,-0.4118,-0.0,-0.0,-0.0,-0.0,-0.9819,-0.9819,-0.9819,-0.9819,-0.9819,-0.9802,-0.9785,-0.9771,-0.9778,-0.97,-0.9669,-0.9422,-0.9354,-0.9344,-0.9334,-0.9256,-0.925,-0.9133,-0.9181,-0.9175,-1.0351,-1.0891,-1.1017,-1.2195,-1.294,-1.2847,-1.3063,-1.3073,-1.3197,-1.3403,-1.3383,-1.348,-1.4556,-1.5221,-1.5322,-1.6511,-1.716,-1.7153,-1.7252,-1.6611,-1.5524,-1.5417,-1.6068,-1.7582,-1.7589,-1.7589,-1.7589,-1.7596,-1.7477,-1.7265,-1.737,-1.7623,-1.753,-1.7272,-1.7153,-1.7153,-1.739,-1.5064,-0.9949,-1.3873,-1.4167,-0.9614,-0.8927,-0.8937,-0.8937,-0.891,-0.8896,-0.8882,-0.8886,-0.8886,-0.8806,-0.891,-0.891,-0.8927,-0.8937,-0.8937,-0.8937,-0.8937,-0.8937,-0.8937,-0.8937,-0.8937,-0.8937,-0.8937,-0.8937,-0.8937,-0.8937,-0.8937,-0.8937,-0.8937,-0.8937,-0.8937,-0.8937,-0.8937,-0.8937,-0.8937,-0.8937,-0.8937,-0.8937,-0.8937,-0.8937,-0.8937,-0.8937,-0.894,-0.894,-0.8944,-0.8947,-0.896,-0.886,-0.818,-0.7396,-0.6956,-0.4585,-0.2345,-0.0,-0.9819,-0.9819,-0.9819,-0.9819,-0.9819,-0.9819,-0.9819,-0.9819,-0.9819,-1.0265,-1.104,-1.1082,-1.0476,-0.9384,-0.9381,-0.9918,-1.0764,-1.0764,-1.1171,-1.1988,-1.2651,-1.2874,-1.2976,-1.3297,-1.3632,-1.385,-1.451,-1.4959,-1.5187,-1.5881,-1.6332,-1.6448,-1.7001,-1.7226,-1.7335,-1.7784,-1.8116,-1.8123,-1.8116,-1.779,-1.729,-1.6889,-1.7035,-1.7477,-1.7589,-1.7589,-1.7589,-1.7635,-1.7642,-1.7589,-1.7635,-1.7635,-1.7589,-1.7589,-1.7589,-1.7595,-1.7596,-1.5785,-1.1773,-1.2144,-1.1424,-0.9036,-0.8965,-0.8893,-0.8933,-0.8937,-0.8937,-0.8937,-0.8937,-0.8937,-0.8937,-0.8937,-0.8937,-0.8937,-0.8937,-0.8937,-0.8937,-0.8937,-0.8937,-0.8937,-0.8937,-0.8937,-0.8937,-0.8937,-0.8937,-0.8937,-0.8937,-0.8937,-0.8937,-0.8937,-0.8937,-0.8937,-0.8937,-0.8937,-0.8937,-0.8937,-0.8937,-0.8937,-0.8937,-0.8937,-0.8937,-0.8937,-0.8937,-0.8937,-0.8937,-0.8937,-0.894,-0.8944,-0.8954,-0.8957,-0.886,-0.8422,-0.729,-0.6161,-0.5375,-0.9819,-0.9819,-0.9819,-1.0058,-1.0422,-1.0418,-1.066,-1.114,-1.114,-1.1736,-1.2813,-1.2813,-1.2073,-1.0915,-1.0774,-1.1446,-1.2436,-1.2547,-1.3079,-1.4045,-1.4482,-1.4713,-1.4692,-1.4999,-1.5116,-1.5462,-1.6232,-1.6686,-1.6975,-1.7909,-1.8497,-1.8497,-1.8497,-1.8497,-1.8497,-1.8497,-1.8497,-1.849,-1.8497,-1.8497,-1.8424,-1.8056,-1.7829,-1.7829,-1.7829,-1.7829,-1.7829,-1.7709,-1.7656,-1.7596,-1.7589,-1.7662,-1.7589,-1.7589,-1.7589,-1.7595,-1.7596,-1.6681,-1.459,-1.2471,-1.1315,-1.1207,-1.0031,-0.9081,-0.9357,-0.9158,-0.8937,-0.8937,-0.8937,-0.8937,-0.8937,-0.8937,-0.8937,-0.8937,-0.8937,-0.8937,-0.8937,-0.8937,-0.8937,-0.8937,-0.8937,-0.8937,-0.8937,-0.8937,-0.8937,-0.8937,-0.8937,-0.8937,-0.8937,-0.8937,-0.8937,-0.8937,-0.8937,-0.8937,-0.8937,-0.8937,-0.8937,-0.8937,-0.8937,-0.8937,-0.8937,-0.8937,-0.8937,-0.8937,-0.8937,-0.8937,-0.8937,-0.894,-0.894,-0.8944,-0.8954,-0.886,-0.8526,-0.8759,-0.8759,-0.9819,-0.9819,-0.9822,-1.0781,-1.2097,-1.2097,-1.2933,-1.4009,-1.4242,-1.4366,-1.448,-1.4485,-1.447,-1.4311,-1.441,-1.433,-1.427,-1.425,-1.4379,-1.454,-1.5654,-1.6192,-1.6298,-1.7668,-1.8262,-1.7981,-1.8046,-1.8269,-1.8295,-1.851,-1.8497,-1.851,-1.8544,-1.8517,-1.8537,-1.8557,-1.851,-1.8557,-1.8557,-1.8524,-1.8517,-1.8477,-1.845,-1.845,-1.8437,-1.8404,-1.8417,-1.7936,-1.7579,-1.7672,-1.7659,-1.7655,-1.7635,-1.7602,-1.7609,-1.7609,-1.7596,-1.7549,-1.731,-1.6826,-1.6781,-1.6331,-1.2295,-0.9621,-1.0773,-1.004,-0.9396,-0.8944,-0.896,-0.896,-0.8856,-0.8954,-0.894,-0.8937,-0.8937,-0.8937,-0.8937,-0.8937,-0.8937,-0.8937,-0.8937,-0.8937,-0.8937,-0.8937,-0.8937,-0.8937,-0.8937,-0.8937,-0.8937,-0.8937,-0.8937,-0.8937,-0.8937,-0.8937,-0.8937,-0.8937,-0.8937,-0.8937,-0.8937,-0.8937,-0.8937,-0.8937,-0.8937,-0.8937,-0.8937,-0.8937,-0.8937,-0.8937,-0.8937,-0.894,-0.894,-0.895,-0.896,-0.8947,-0.895,-1.1976,-1.2808,-1.2808,-1.3168,-1.3646,-1.3765,-1.4123,-1.4604,-1.4604,-1.5192,-1.602,-1.6138,-1.6738,-1.7695,-1.7695,-1.7043,-1.6132,-1.6004,-1.6541,-1.7395,-1.8097,-1.8333,-1.8313,-1.8632,-1.8878,-1.9005,-1.8858,-1.8865,-1.9038,-1.9058,-1.9052,-1.9052,-1.9052,-1.9052,-1.9052,-1.9052,-1.9052,-1.9052,-1.9052,-1.9052,-1.9032,-1.9052,-1.9058,-1.9025,-1.8684,-1.8497,-1.8497,-1.8249,-1.8183,-1.8207,-1.7838,-1.7786,-1.8041,-1.7855,-1.7648,-1.7862,-1.7736,-1.7655,-1.7662,-1.7589,-1.7649,-1.7502,-1.5761,-1.3619,-1.2758,-1.2307,-1.1726,-1.0628,-0.9342,-0.8931,-0.8937,-0.8943,-0.894,-0.8937,-0.894,-0.895,-0.8937,-0.8937,-0.8937,-0.8937,-0.8937,-0.8937,-0.8957,-0.894,-0.8937,-0.8937,-0.894,-0.8947,-0.894,-0.894,-0.8954,-0.894,-0.8937,-0.8937,-0.8937,-0.8937,-0.8937,-0.8937,-0.8937,-0.8937,-0.8937,-0.8937,-0.8937,-0.8937,-0.8937,-0.8937,-0.8937,-0.8937,-0.8937,-0.8937,-0.8937,-0.8937,-0.8937,-0.8937,-0.8937,-1.3646,-1.4485,-1.4604,-1.4955,-1.5311,-1.5429,-1.5666,-1.6149,-1.6144,-1.6738,-1.7683,-1.7806,-1.8402,-1.9249,-1.9366,-1.8881,-1.7806,-1.78,-1.8402,-1.9366,-1.9366,-1.9366,-1.9339,-1.9158,-1.9172,-1.9312,-1.9172,-1.9178,-1.9339,-1.9366,-1.9366,-1.9359,-1.9366,-1.9366,-1.9366,-1.9366,-1.9366,-1.9366,-1.9366,-1.9359,-1.9366,-1.9366,-1.9366,-1.9312,-1.8978,-1.8778,-1.8778,-1.8778,-1.8724,-1.8769,-1.8381,-1.8341,-1.8725,-1.8187,-1.7952,-1.8156,-1.776,-1.7628,-1.7628,-1.7628,-1.7681,-1.7888,-1.7583,-1.6441,-1.3941,-1.377,-1.2833,-1.1041,-0.9824,-0.9093,-0.9093,-0.9084,-0.9086,-0.8967,-0.8963,-0.8967,-0.8963,-0.8974,-0.9089,-0.9096,-0.9103,-0.9093,-0.9083,-0.9086,-0.8977,-0.8967,-0.8963,-0.8967,-0.8963,-0.8967,-0.9079,-0.9083,-0.91,-0.911,-0.912,-0.9137,-0.9018,-0.8991,-0.8981,-0.8967,-0.886,-0.8964,-0.896,-0.895,-0.8944,-0.894,-0.894,-0.8944,-0.8944,-0.895,-0.8937,-0.8937,-0.8937,-0.8937,-0.896,-1.4718,-1.4842,-1.4723,-1.5784,-1.6973,-1.6973,-1.7929,-1.8887,-1.9127,-1.9004,-1.9127,-1.9243,-1.9243,-1.9366,-1.9366,-1.9366,-1.9243,-1.9127,-1.9243,-1.9366,-1.9366,-1.9366,-1.9366,-1.9339,-1.9325,-1.9366,-1.9359,-1.9352,-1.9366,-1.9366,-1.9366,-1.9366,-1.9366,-1.9366,-1.9366,-1.9366,-1.9366,-1.9366,-1.9366,-1.9366,-1.9366,-1.9366,-1.9366,-1.9366,-1.9319,-1.9292,-1.9319,-1.9319,-1.9307,-1.9346,-1.9312,-1.9429,-1.9243,-1.8773,-1.8497,-1.8366,-1.7968,-1.7708,-1.7695,-1.7676,-1.8026,-1.8307,-1.8046,-1.6869,-1.4997,-1.3715,-1.2382,-1.0763,-0.9979,-0.9644,-0.9535,-0.9518,-0.9487,-0.9013,-0.8974,-0.8971,-0.899,-0.9245,-0.9371,-0.9347,-0.9334,-0.9367,-0.9371,-0.933,-0.9198,-0.9083,-0.9086,-0.9201,-0.9073,-0.9185,-0.9235,-0.9351,-0.9306,-0.9269,-0.9323,-0.9357,-0.9188,-0.9052,-0.9039,-0.9028,-0.894,-0.8947,-0.896,-0.8957,-0.9079,-0.9076,-0.9079,-0.9079,-0.9055,-0.9049,-0.9005,-0.9008,-0.9042,-0.9069,-0.8917,-1.7935,-1.7935,-1.7929,-1.8169,-1.8648,-1.8648,-1.9004,-1.9366,-1.9366,-1.9366,-1.9366,-1.9366,-1.9366,-1.9366,-1.9366,-1.9366,-1.9366,-1.9366,-1.9366,-1.9366,-1.9366,-1.9366,-1.9366,-1.9366,-1.9366,-1.9366,-1.9366,-1.9366,-1.9366,-1.9366,-1.9366,-1.9366,-1.9366,-1.9366,-1.9366,-1.9366,-1.9366,-1.9366,-1.9366,-1.9366,-1.9366,-1.9366,-1.9366,-1.9366,-1.9366,-1.9366,-1.9366,-1.9366,-1.9448,-1.9361,-1.9361,-1.9442,-1.9341,-1.9165,-1.905,-1.8778,-1.8847,-1.8621,-1.8366,-1.8628,-1.8891,-1.9015,-1.8918,-1.8321,-1.6776,-1.3473,-1.1944,-1.2293,-1.2212,-1.1478,-1.0042,-0.9686,-0.9717,-0.9521,-0.9501,-0.9514,-0.9525,-0.9634,-0.9617,-0.9381,-0.9381,-0.9381,-0.9384,-0.9391,-0.9405,-0.9285,-0.9282,-0.9398,-0.9511,-0.9531,-0.9617,-0.962,-0.9617,-0.9422,-0.9449,-0.9469,-0.9384,-0.9262,-0.9215,-0.9154,-0.9051,-0.8944,-0.8957,-0.9077,-0.9201,-0.9208,-0.9211,-0.9208,-0.9184,-0.9208,-0.9225,-0.9232,-0.9242,-0.9215,-0.9054,-1.9366,-1.9366,-1.9366,-1.9366,-1.9366,-1.9366,-1.9366,-1.9366,-1.9366,-1.9366,-1.9366,-1.9366,-1.9366,-1.9366,-1.9366,-1.9366,-1.9366,-1.9366,-1.9366,-1.9366,-1.9366,-1.9366,-1.9366,-1.9366,-1.9366,-1.9366,-1.9366,-1.9366,-1.9366,-1.9366,-1.9366,-1.9366,-1.9366,-1.9366,-1.9366,-1.9366,-1.9366,-1.9366,-1.9366,-1.9366,-1.9366,-1.9366,-1.9366,-1.9366,-1.9366,-1.9366,-1.9366,-1.9366,-1.9366,-1.9366,-1.9366,-1.9366,-1.9352,-1.9435,-1.9341,-1.9186,-1.9199,-1.921,-1.8937,-1.9111,-1.9449,-1.9449,-1.9449,-1.8858,-1.766,-1.4379,-1.4255,-1.403,-1.3808,-1.2577,-1.0386,-0.9781,-0.9823,-0.9815,-0.9797,-0.979,-0.9787,-0.9787,-0.979,-0.9564,-0.9557,-0.9547,-0.9547,-0.9544,-0.9544,-0.9544,-0.9544,-0.9544,-0.9787,-0.9797,-0.9783,-0.978,-0.97,-0.9591,-0.9564,-0.9564,-0.9561,-0.9493,-0.9429,-0.9351,-0.9191,-0.9188,-0.9195,-0.931,-0.9432,-0.9537,-0.954,-0.9439,-0.932,-0.9374,-0.9408,-0.9354,-0.932,-0.9334,-0.9188,-1.9366,-1.9366,-1.9366,-1.9366,-1.9366,-1.9366,-1.9366,-1.9366,-1.9366,-1.9366,-1.9366,-1.9366,-1.9366,-1.9366,-1.9366,-1.9366,-1.9366,-1.9366,-1.9366,-1.9366,-1.9366,-1.9366,-1.9366,-1.9366,-1.9366,-1.9366,-1.9366,-1.9366,-1.9366,-1.9366,-1.9366,-1.9366,-1.9366,-1.9366,-1.9366,-1.9366,-1.9366,-1.9366,-1.9366,-1.9366,-1.9366,-1.9366,-1.9366,-1.9366,-1.9366,-1.9366,-1.9366,-1.9366,-1.9366,-1.9366,-1.9366,-1.9366,-1.9366,-1.9366,-1.9339,-1.9325,-1.9352,-1.9435,-1.9339,-1.9394,-1.9408,-1.9401,-1.9394,-1.8765,-1.7615,-1.7898,-1.7349,-1.5537,-1.4837,-1.3379,-1.1063,-0.9968,-0.9861,-0.9802,-0.9768,-0.9774,-0.9808,-0.9798,-0.9768,-0.9781,-0.9812,-0.9812,-0.9778,-0.9778,-0.9785,-0.9785,-0.9774,-0.9761,-0.9761,-0.9747,-0.9795,-0.9781,-0.9734,-0.9724,-0.9683,-0.9683,-0.968,-0.9652,-0.9602,-0.9547,-0.9486,-0.9362,-0.9365,-0.9593,-0.9683,-0.9782,-0.9679,-0.96,-0.949,-0.951,-0.949,-0.9422,-0.9432,-0.9476,-0.9486,-1.9366,-1.9366,-1.9366,-1.9366,-1.9366,-1.9366,-1.9366,-1.9366,-1.9366,-1.9366,-1.9366,-1.9366,-1.9366,-1.9366,-1.9366,-1.9366,-1.9366,-1.9366,-1.9366,-1.9366,-1.9366,-1.9366,-1.9366,-1.9366,-1.9366,-1.9366,-1.9366,-1.9366,-1.9366,-1.9366,-1.9366,-1.9366,-1.9366,-1.9366,-1.9366,-1.9366,-1.9366,-1.9366,-1.9366,-1.9366,-1.9366,-1.9366,-1.9366,-1.9366,-1.9366,-1.9366,-1.9366,-1.9366,-1.9366,-1.9366,-1.9366,-1.9366,-1.9366,-1.9366,-1.9366,-1.9366,-1.9366,-1.9366,-1.9366,-1.9366,-1.9366,-1.9366,-1.9366,-1.9249,-1.8887,-1.9128,-1.8933,-1.7693,-1.6205,-1.4356,-1.3127,-1.1172,-1.0112,-0.9805,-0.9808,-0.9812,-0.9819,-0.9819,-0.9819,-0.9819,-0.9819,-0.9819,-0.9819,-0.9819,-0.9819,-0.9819,-0.9819,-0.9819,-0.9819,-0.9819,-0.9819,-0.9819,-0.9795,-0.9805,-0.9805,-0.9805,-0.9802,-0.9788,-0.9761,-0.9741,-0.9703,-0.97,-0.971,-0.972,-0.9779,-0.9748,-0.9796,-0.9724,-0.9703,-0.9642,-0.9656,-0.9635,-0.9676,-0.972,-0.9703,-1.9366,-1.9366,-1.9366,-1.9366,-1.9366,-1.9366,-1.9366,-1.9366,-1.9366,-1.9366,-1.9366,-1.9366,-1.9366,-1.9366,-1.9366,-1.9366,-1.9366,-1.9366,-1.9366,-1.9366,-1.9366,-1.9366,-1.9366,-1.9366,-1.9366,-1.9366,-1.9366,-1.9366,-1.9366,-1.9366,-1.9366,-1.9366,-1.9366,-1.9366,-1.9366,-1.9366,-1.9366,-1.9366,-1.9366,-1.9366,-1.9366,-1.9366,-1.9366,-1.9366,-1.9366,-1.9366,-1.9366,-1.9366,-1.9366,-1.9366,-1.9366,-1.9366,-1.9366,-1.9366,-1.9366,-1.9366,-1.9366,-1.9366,-1.9366,-1.9366,-1.9366,-1.9366,-1.9366,-1.9366,-1.9372,-1.9446,-1.9369,-1.8985,-1.7491,-1.6773,-1.5811,-1.2605,-1.0197,-0.9758,-0.9751,-0.9761,-0.9808,-0.9819,-0.9819,-0.9819,-0.9819,-0.9819,-0.9819,-0.9819,-0.9819,-0.9819,-0.9819,-0.9819,-0.9819,-0.9819,-0.9819,-0.9819,-0.9819,-0.9819,-0.9819,-0.9819,-0.9819,-0.9819,-0.9819,-0.9819,-0.9819,-0.9819,-0.9812,-0.9805,-0.9815,-0.9819,-0.9819,-0.9819,-0.9791,-0.9768,-0.9815,-0.9819,-0.9819,-0.9819,-0.9819,-1.9366,-1.9366,-1.9366,-1.9366,-1.9366,-1.9366,-1.9366,-1.9366,-1.9366,-1.9366,-1.9366,-1.9366,-1.9366,-1.9366,-1.9366,-1.9366,-1.9366,-1.9366,-1.9366,-1.9366,-1.9366,-1.9366,-1.9366,-1.9366,-1.9366,-1.9366,-1.9366,-1.9366,-1.9366,-1.9366,-1.9366,-1.9366,-1.9366,-1.9366,-1.9366,-1.9366,-1.9366,-1.9366,-1.9366,-1.9366,-1.9366,-1.9366,-1.9366,-1.9366,-1.9366,-1.9366,-1.9366,-1.9366,-1.9366,-1.9366,-1.9366,-1.9366,-1.9366,-1.9366,-1.9366,-1.9366,-1.9366,-1.9366,-1.9366,-1.9366,-1.9366,-1.9366,-1.9366,-1.9366,-1.9372,-1.9386,-1.9392,-1.9392,-1.9372,-1.8946,-1.8282,-1.4025,-1.2103,-1.1667,-1.1009,-0.9929,-1.0514,-1.0304,-0.9812,-0.994,-1.0061,-0.9819,-0.9819,-0.9819,-0.9819,-0.9785,-0.9788,-0.9785,-0.9785,-0.9781,-0.9798,-0.9819,-0.9819,-0.9819,-0.9819,-0.9819,-0.9819,-0.9819,-0.9819,-0.9819,-0.9819,-0.9819,-0.9819,-0.9819,-0.9819,-0.9819,-0.9819,-0.9819,-0.9819,-0.9819,-0.9819,-0.9819,-0.9819,-0.9819,-0.9819,-1.9366,-1.9366,-1.9366,-1.9366,-1.9366,-1.9366,-1.9366,-1.9366,-1.9366,-1.9366,-1.9366,-1.9366,-1.9366,-1.9366,-1.9366,-1.9366,-1.9366,-1.9366,-1.9366,-1.9366,-1.9366,-1.9366,-1.9366,-1.9366,-1.9366,-1.9366,-1.9366,-1.9366,-1.9366,-1.9366,-1.9366,-1.9366,-1.9366,-1.9366,-1.9366,-1.9366,-1.9366,-1.9366,-1.9366,-1.9366,-1.9366,-1.9366,-1.9366,-1.9366,-1.9366,-1.9366,-1.9366,-1.9366,-1.9366,-1.9366,-1.9366,-1.9366,-1.9366,-1.9366,-1.9366,-1.9366,-1.9366,-1.9366,-1.9366,-1.9366,-1.9366,-1.9366,-1.9366,-1.9366,-1.9366,-1.9366,-1.9366,-1.9366,-1.9372,-1.9426,-1.9141,-1.8282,-1.6819,-1.5747,-1.3086,-1.2209,-1.5183,-1.2955,-1.1234,-1.1125,-1.066,-0.9819,-0.994,-1.0179,-1.0162,-0.9878,-0.9985,-0.9864,-1.0236,-1.0733,-1.0752,-1.1273,-1.1152,-1.1273,-1.0899,-1.0778,-1.0657,-1.0418,-1.0179,-0.9785,-0.9785,-0.9819,-0.9819,-0.9819,-0.9819,-0.9819,-0.9819,-0.9819,-0.9819,-0.9819,-0.9819,-0.9819,-0.9819,-0.9819,-0.9819,-1.9366,-1.9366,-1.9366,-1.9366,-1.9366,-1.9366,-1.9366,-1.9366,-1.9366,-1.9366,-1.9366,-1.9366,-1.9366,-1.9366,-1.9366,-1.9366,-1.9366,-1.9366,-1.9366,-1.9366,-1.9366,-1.9366,-1.9366,-1.9366,-1.9366,-1.9366,-1.9366,-1.9366,-1.9366,-1.9366,-1.9366,-1.9366,-1.9366,-1.9366,-1.9366,-1.9366,-1.9366,-1.9366,-1.9366,-1.9366,-1.9366,-1.9366,-1.9366,-1.9366,-1.9366,-1.9366,-1.9366,-1.9366,-1.9366,-1.9366,-1.9366,-1.9366,-1.9366,-1.9366,-1.9366,-1.9366,-1.9366,-1.9366,-1.9366,-1.9366,-1.9366,-1.9366,-1.9366,-1.9366,-1.9366,-1.9366,-1.9366,-1.9366,-1.9372,-1.9406,-1.9459,-1.9349,-1.9429,-1.8985,-1.6503,-1.5987,-1.7878,-1.6289,-1.3794,-1.355,-1.2689,-1.2333,-1.2093,-1.1615,-1.0714,-1.0655,-1.2406,-1.2653,-1.5204,-1.5334,-1.3808,-1.3698,-1.3338,-1.2969,-1.2341,-1.2093,-1.1856,-1.1378,-1.0899,-1.0236,-0.983,-0.9764,-0.9819,-0.9815,-0.9812,-0.9819,-0.9819,-0.9819,-0.9819,-0.9819,-0.9819,-0.9819,-0.9819,-0.9819,-0.9819,-1.9366,-1.9366,-1.9366,-1.9366,-1.9366,-1.9366,-1.9366,-1.9366,-1.9366,-1.9366,-1.9366,-1.9366,-1.9366,-1.9366,-1.9366,-1.9366,-1.9366,-1.9366,-1.9366,-1.9366,-1.9366,-1.9366,-1.9366,-1.9366,-1.9366,-1.9366,-1.9366,-1.9366,-1.9366,-1.9366,-1.9366,-1.9366,-1.9366,-1.9366,-1.9366,-1.9366,-1.9366,-1.9366,-1.9366,-1.9366,-1.9366,-1.9366,-1.9366,-1.9366,-1.9366,-1.9366,-1.9366,-1.9366,-1.9366,-1.9366,-1.9366,-1.9366,-1.9366,-1.9366,-1.9366,-1.9366,-1.9366,-1.9366,-1.9366,-1.9366,-1.9366,-1.9366,-1.9366,-1.9366,-1.9366,-1.9366,-1.9366,-1.9366,-1.9372,-1.9372,-1.9366,-1.9386,-1.9432,-1.9362,-1.9309,-1.9432,-1.9402,-1.9417,-1.7499,-1.5477,-1.4242,-1.3646,-1.3885,-1.3641,-1.2464,-1.1688,-1.3566,-1.5596,-1.8064,-1.9015,-1.7043,-1.5666,-1.5189,-1.4177,-1.354,-1.3287,-1.3048,-1.2928,-1.2217,-1.1303,-1.0629,-1.1175,-1.1242,-1.0041,-0.9802,-0.9808,-0.9815,-0.9819,-0.9819,-0.9819,-0.9819,-0.9819,-0.9819,-0.9819,-0.9819,-1.9366,-1.9366,-1.9366,-1.9366,-1.9366,-1.9366,-1.9366,-1.9366,-1.9366,-1.9366,-1.9366,-1.9366,-1.9366,-1.9366,-1.9366,-1.9366,-1.9366,-1.9366,-1.9366,-1.9366,-1.9366,-1.9366,-1.9366,-1.9366,-1.9366,-1.9366,-1.9366,-1.9366,-1.9366,-1.9366,-1.9366,-1.9366,-1.9366,-1.9366,-1.9366,-1.9366,-1.9366,-1.9366,-1.9366,-1.9366,-1.9366,-1.9366,-1.9366,-1.9366,-1.9366,-1.9366,-1.9366,-1.9366,-1.9366,-1.9366,-1.9366,-1.9366,-1.9366,-1.9366,-1.9366,-1.9366,-1.9366,-1.9366,-1.9366,-1.9366,-1.9366,-1.9366,-1.9366,-1.9366,-1.9366,-1.9366,-1.9366,-1.9366,-1.9366,-1.9366,-1.9366,-1.9366,-1.9372,-1.9399,-1.9399,-1.9386,-1.9412,-1.9199,-1.8738,-1.6868,-1.5671,-1.496,-1.5435,-1.5666,-1.4878,-1.4217,-1.5087,-1.6744,-1.8574,-1.9391,-1.8756,-1.7772,-1.7066,-1.5774,-1.4495,-1.4485,-1.4361,-1.4599,-1.3989,-1.2861,-1.2574,-1.3218,-1.2897,-1.244,-1.0876,-0.9788,-0.9798,-0.9808,-0.9815,-0.9815,-0.9815,-0.9819,-0.9819,-0.9819,-0.9819,-1.9366,-1.9366,-1.9366,-1.9366,-1.9366,-1.9366,-1.9366,-1.9366,-1.9366,-1.9366,-1.9366,-1.9366,-1.9366,-1.9366,-1.9366,-1.9366,-1.9366,-1.9366,-1.9366,-1.9366,-1.9366,-1.9366,-1.9366,-1.9366,-1.9366,-1.9366,-1.9366,-1.9366,-1.9366,-1.9366,-1.9366,-1.9366,-1.9366,-1.9366,-1.9366,-1.9366,-1.9366,-1.9366,-1.9366,-1.9366,-1.9366,-1.9366,-1.9366,-1.9366,-1.9366,-1.9366,-1.9366,-1.9366,-1.9366,-1.9366,-1.9366,-1.9366,-1.9366,-1.9366,-1.9366,-1.9366,-1.9366,-1.9366,-1.9366,-1.9366,-1.9366,-1.9366,-1.9366,-1.9366,-1.9366,-1.9366,-1.9366,-1.9366,-1.9366,-1.9366,-1.9366,-1.9366,-1.9366,-1.9366,-1.9366,-1.9366,-1.9366,-1.9366,-1.8881,-1.8279,-1.7812,-1.7337,-1.7343,-1.7443,-1.7184,-1.7038,-1.7002,-1.791,-1.9226,-1.9376,-1.9415,-1.9044,-1.8195,-1.7675,-1.6397,-1.6031,-1.6026,-1.6144,-1.5779,-1.4641,-1.4513,-1.5156,-1.5806,-1.5844,-1.3775,-1.1207,-1.0002,-1.0002,-0.9906,-0.993,-1.0054,-1.0179,-0.994,-0.9819,-0.9937,-1.9366,-1.9366,-1.9366,-1.9366,-1.9366,-1.9366,-1.9366,-1.9366,-1.9366,-1.9366,-1.9366,-1.9366,-1.9366,-1.9366,-1.9366,-1.9366,-1.9366,-1.9366,-1.9366,-1.9366,-1.9366,-1.9366,-1.9366,-1.9366,-1.9366,-1.9366,-1.9366,-1.9366,-1.9366,-1.9366,-1.9366,-1.9366,-1.9366,-1.9366,-1.9366,-1.9366,-1.9366,-1.9366,-1.9366,-1.9366,-1.9366,-1.9366,-1.9366,-1.9366,-1.9366,-1.9366,-1.9366,-1.9366,-1.9366,-1.9366,-1.9366,-1.9366,-1.9366,-1.9366,-1.9366,-1.9366,-1.9366,-1.9366,-1.9366,-1.9366,-1.9366,-1.9366,-1.9366,-1.9366,-1.9366,-1.9366,-1.9366,-1.9366,-1.9366,-1.9366,-1.9366,-1.9366,-1.9366,-1.9366,-1.9366,-1.9366,-1.9366,-1.9366,-1.9366,-1.9127,-1.9366,-1.9127,-1.8655,-1.8648,-1.8267,-1.8267,-1.8235,-1.8241,-1.9412,-1.9406,-1.9419,-1.9406,-1.916,-1.916,-1.8532,-1.7818,-1.7812,-1.8052,-1.7572,-1.6704,-1.6827,-1.7208,-1.7732,-1.7762,-1.6234,-1.3784,-1.2107,-1.0936,-1.1575,-1.1727,-1.1016,-1.102,-1.1615,-1.1012,-1.0528,-1.9366,-1.9366,-1.9366,-1.9366,-1.9366,-1.9366,-1.9366,-1.9366,-1.9366,-1.9366,-1.9366,-1.9366,-1.9366,-1.9366,-1.9366,-1.9366,-1.9366,-1.9366,-1.9366,-1.9366,-1.9366,-1.9366,-1.9366,-1.9366,-1.9366,-1.9366,-1.9366,-1.9366,-1.9366,-1.9366,-1.9366,-1.9366,-1.9366,-1.9366,-1.9366,-1.9366,-1.9366,-1.9366,-1.9366,-1.9366,-1.9366,-1.9366,-1.9366,-1.9366,-1.9366,-1.9366,-1.9366,-1.9366,-1.9366,-1.9366,-1.9366,-1.9366,-1.9366,-1.9366,-1.9366,-1.9366,-1.9366,-1.9366,-1.9366,-1.9366,-1.9366,-1.9366,-1.9366,-1.9366,-1.9366,-1.9366,-1.9366,-1.9366,-1.9366,-1.9366,-1.9366,-1.9366,-1.9366,-1.9366,-1.9366,-1.9366,-1.9366,-1.9366,-1.9366,-1.9366,-1.9366,-1.9366,-1.9127,-1.9249,-1.9366,-1.9366,-1.9366,-1.9366,-1.9366,-1.9366,-1.9366,-1.9366,-1.9366,-1.9366,-1.9366,-1.8887,-1.8887,-1.9366,-1.8887,-1.8409,-1.8409,-1.8409,-1.8771,-1.8525,-1.7247,-1.6803,-1.6042,-1.5105,-1.4371,-1.3522,-1.2808,-1.3287,-1.4128,-1.3044,-1.1603,-1.9366,-1.9366,-1.9366,-1.9366,-1.9366,-1.9366,-1.9366,-1.9366,-1.9366,-1.9366,-1.9366,-1.9366,-1.9366,-1.9366,-1.9366,-1.9366,-1.9366,-1.9366,-1.9366,-1.9366,-1.9366,-1.9366,-1.9366,-1.9366,-1.9366,-1.9366,-1.9366,-1.9366,-1.9366,-1.9366,-1.9366,-1.9366,-1.9366,-1.9366,-1.9366,-1.9366,-1.9366,-1.9366,-1.9366,-1.9366,-1.9366,-1.9366,-1.9366,-1.9366,-1.9366,-1.9366,-1.9366,-1.9366,-1.9366,-1.9366,-1.9366,-1.9366,-1.9366,-1.9366,-1.9366,-1.9366,-1.9366,-1.9366,-1.9366,-1.9366,-1.9366,-1.9366,-1.9366,-1.9366,-1.9366,-1.9366,-1.9366,-1.9366,-1.9366,-1.9366,-1.9366,-1.9366,-1.9366,-1.9366,-1.9366,-1.9366,-1.9366,-1.9366,-1.9366,-1.9366,-1.9366,-1.9366,-1.9366,-1.9366,-1.9366,-1.9366,-1.9366,-1.9366,-1.9366,-1.9366,-1.9366,-1.9366,-1.9366,-1.9366,-1.9366,-1.9243,-1.9127,-1.9366,-1.9366,-1.9004,-1.9127,-1.9366,-1.9366,-1.9366,-1.8616,-1.8693,-1.9194,-1.8326,-1.6684,-1.558,-1.4604,-1.496,-1.5316,-1.4609,-1.3025,-1.9366,-1.9366,-1.9366,-1.9366,-1.9366,-1.9366,-1.9366,-1.9366,-1.9366,-1.9366,-1.9366,-1.9366,-1.9366,-1.9366,-1.9366,-1.9366,-1.9366,-1.9366,-1.9366,-1.9366,-1.9366,-1.9366,-1.9366,-1.9366,-1.9366,-1.9366,-1.9366,-1.9366,-1.9366,-1.9366,-1.9366,-1.9366,-1.9366,-1.9366,-1.9366,-1.9366,-1.9366,-1.9366,-1.9366,-1.9366,-1.9366,-1.9366,-1.9366,-1.9366,-1.9366,-1.9366,-1.9366,-1.9366,-1.9366,-1.9366,-1.9366,-1.9366,-1.9366,-1.9366,-1.9366,-1.9366,-1.9366,-1.9366,-1.9366,-1.9366,-1.9366,-1.9366,-1.9366,-1.9366,-1.9366,-1.9366,-1.9366,-1.9366,-1.9366,-1.9366,-1.9366,-1.9366,-1.9366,-1.9366,-1.9366,-1.9366,-1.9366,-1.9366,-1.9366,-1.9366,-1.9366,-1.9366,-1.9366,-1.9366,-1.9366,-1.9366,-1.9366,-1.9372,-1.9392,-1.9412,-1.9406,-1.9419,-1.9399,-1.9399,-1.9379,-1.9379,-1.9372,-1.9366,-1.9366,-1.9366,-1.9366,-1.9366,-1.9366,-1.9366,-1.9366,-1.9392,-1.9342,-1.9122,-1.877,-1.7744,-1.6744,-1.6267,-1.6149,-1.5688,-1.4837,-1.9366,-1.9366,-1.9366,-1.9366,-1.9366,-1.9366,-1.9366,-1.9366,-1.9366,-1.9366,-1.9366,-1.9366,-1.9366,-1.9366,-1.9366,-1.9366,-1.9366,-1.9366,-1.9366,-1.9366,-1.9366,-1.9366,-1.9366,-1.9366,-1.9366,-1.9366,-1.9366,-1.9366,-1.9366,-1.9366,-1.9366,-1.9366,-1.9366,-1.9366,-1.9366,-1.9366,-1.9366,-1.9366,-1.9366,-1.9366,-1.9366,-1.9366,-1.9366,-1.9366,-1.9366,-1.9366,-1.9366,-1.9366,-1.9366,-1.9366,-1.9366,-1.9366,-1.9366,-1.9366,-1.9372,-1.9432,-1.9692,-1.9596,-1.9492,-1.9412,-1.9366,-1.9366,-1.9366,-1.9366,-1.9366,-1.9366,-1.9366,-1.9366,-1.9366,-1.9366,-1.9366,-1.9366,-1.9366,-1.9366,-1.9366,-1.9366,-1.9366,-1.9366,-1.9366,-1.9366,-1.9366,-1.9366,-1.9366,-1.9366,-1.9366,-1.9366,-1.9362,-1.9376,-1.9506,-1.9512,-1.9492,-1.9486,-1.9459,-1.9439,-1.9399,-1.9412,-1.9459,-1.9406,-1.9366,-1.9366,-1.9366,-1.9366,-1.9366,-1.9366,-1.9366,-1.9366,-1.9366,-1.9283,-1.9179,-1.9269,-1.8887,-1.8052,-1.783,-1.7732,-1.6649,-1.9366,-1.9366,-1.9366,-1.9366,-1.9366,-1.9366,-1.9366,-1.9366,-1.9366,-1.9366,-1.9366,-1.9366,-1.9366,-1.9366,-1.9366,-1.9366,-1.9366,-1.9366,-1.9366,-1.9366,-1.9366,-1.9366,-1.9366,-1.9366,-1.9366,-1.9366,-1.9366,-1.9366,-1.9366,-1.9366,-1.9366,-1.9366,-1.9366,-1.9366,-1.9366,-1.9366,-1.9366,-1.9366,-1.9366,-1.9366,-1.9366,-1.9366,-1.9366,-1.9366,-1.9366,-1.9366,-1.9366,-1.9366,-1.9366,-1.9366,-1.9366,-1.9379,-1.9399,-1.9392,-1.9356,-1.9482,-1.9902,-1.9983,-1.949,-1.9455,-1.9372,-1.9366,-1.9366,-1.9392,-1.9432,-1.9379,-1.9372,-1.9366,-1.9372,-1.9366,-1.9366,-1.9366,-1.9366,-1.9366,-1.9366,-1.9366,-1.9366,-1.9366,-1.9366,-1.9366,-1.9366,-1.9366,-1.9366,-1.9366,-1.9366,-1.9379,-1.9389,-1.9495,-1.9633,-1.972,-1.9865,-1.9871,-1.9865,-1.9686,-1.9653,-1.9613,-1.9566,-1.9479,-1.9392,-1.9366,-1.9366,-1.9366,-1.9366,-1.9366,-1.9366,-1.9366,-1.9366,-1.9366,-1.9366,-1.9366,-1.9366,-1.9127,-1.9269,-1.9419,-1.8323,-1.9366,-1.9366,-1.9366,-1.9366,-1.9366,-1.9366,-1.9366,-1.9366,-1.9366,-1.9366,-1.9366,-1.9366,-1.9366,-1.9366,-1.9366,-1.9366,-1.9366,-1.9366,-1.9366,-1.9366,-1.9366,-1.9366,-1.9366,-1.9366,-1.9366,-1.9366,-1.9366,-1.9366,-1.9366,-1.9366,-1.9366,-1.9366,-1.9366,-1.9366,-1.9366,-1.9366,-1.9366,-1.9366,-1.9366,-1.9366,-1.9366,-1.9366,-1.9366,-1.9366,-1.9366,-1.9366,-1.9366,-1.9366,-1.9366,-1.9366,-1.9379,-1.9549,-1.9582,-1.9533,-1.9397,-1.9813,-2.0226,-2.0595,-2.006,-1.9522,-1.9495,-1.97,-1.9417,-1.9528,-1.9606,-1.9546,-1.9409,-1.9519,-1.9452,-1.9372,-1.9379,-1.9366,-1.9366,-1.9366,-1.9366,-1.9366,-1.9366,-1.9366,-1.9366,-1.9366,-1.9366,-1.9366,-1.9366,-1.9366,-1.9366,-1.9412,-1.9455,-1.9706,-2.0294,-2.0417,-2.0489,-2.0368,-2.0241,-2.0047,-1.9967,-1.9826,-1.9686,-1.9599,-1.9506,-1.9386,-1.9366,-1.9366,-1.9366,-1.9366,-1.9366,-1.9366,-1.9366,-1.9366,-1.9366,-1.9366,-1.9366,-1.9366,-1.9372,-1.9392,-1.9386,-1.9366,-1.9366,-1.9366,-1.9366,-1.9366,-1.9366,-1.9366,-1.9366,-1.9366,-1.9366,-1.9366,-1.9366,-1.9366,-1.9366,-1.9366,-1.9366,-1.9366,-1.9366,-1.9366,-1.9366,-1.9366,-1.9366,-1.9366,-1.9366,-1.9366,-1.9366,-1.9366,-1.9366,-1.9366,-1.9366,-1.9366,-1.9366,-1.9366,-1.9366,-1.9366,-1.9366,-1.9366,-1.9366,-1.9366,-1.9366,-1.9366,-1.9366,-1.9366,-1.9366,-1.9366,-1.9366,-1.9366,-1.9366,-1.9366,-1.9366,-1.9549,-1.9663,-1.9956,-1.976,-1.9535,-1.9644,-2.0503,-2.0942,-2.0942,-1.9952,-1.9912,-1.9973,-1.9747,-1.964,-1.9947,-1.984,-1.9654,-1.9786,-1.9508,-1.9459,-1.9406,-1.9392,-1.9412,-1.9366,-1.9366,-1.9366,-1.9366,-1.9366,-1.9366,-1.9366,-1.9366,-1.9366,-1.9366,-1.9366,-1.9366,-1.9446,-1.9384,-1.9905,-2.055,-2.0846,-2.0849,-2.076,-2.0624,-2.0374,-2.0247,-1.9973,-1.9813,-1.972,-1.9593,-1.9439,-1.9366,-1.9366,-1.9366,-1.9366,-1.9366,-1.9366,-1.9366,-1.9366,-1.9366,-1.9366,-1.9366,-1.9366,-1.9366,-1.9366,-1.9366,-1.9366,-1.9366,-1.9366,-1.9366,-1.9366,-1.9366,-1.9366,-1.9366,-1.9366,-1.9366,-1.9366,-1.9366,-1.9366,-1.9366,-1.9366,-1.9366,-1.9366,-1.9366,-1.9366,-1.9366,-1.9366,-1.9366,-1.9366,-1.9366,-1.9366,-1.9366,-1.9366,-1.9366,-1.9366,-1.9366,-1.9366,-1.9366,-1.9366,-1.9366,-1.9366,-1.9366,-1.9366,-1.9366,-1.9366,-1.9366,-1.9366,-1.9366,-1.9366,-1.9366,-1.9366,-1.9366,-1.9366,-1.9366,-1.9366,-1.9406,-1.9603,-1.9956,-2.0257,-1.9953,-2.0086,-2.004,-2.0801,-2.1053,-2.1031,-2.0644,-2.0601,-2.0428,-2.0024,-1.9755,-2.0073,-2.0442,-2.0375,-2.0074,-1.9688,-1.9542,-1.9443,-1.9404,-1.9364,-1.9406,-1.9366,-1.9366,-1.9366,-1.9366,-1.9366,-1.9366,-1.9366,-1.9366,-1.9366,-1.9366,-1.9366,-1.9376,-1.943,-2.0046,-2.0722,-2.0937,-2.102,-2.1027,-2.0869,-2.0722,-2.0528,-2.0134,-1.9873,-1.9766,-1.9599,-1.9406,-1.9366,-1.9366,-1.9366,-1.9366,-1.9366,-1.9366,-1.9366,-1.9366,-1.9366,-1.9366,-1.9366,-1.9366,-1.9366,-1.9366,-1.9366,-1.9366,-1.9366,-1.9366,-1.9366,-1.9366,-1.9366,-1.9366,-1.9366,-1.9366,-1.9366,-1.9366,-1.9366,-1.9366,-1.9366,-1.9366,-1.9366,-1.9366,-1.9366,-1.9366,-1.9366,-1.9366,-1.9366,-1.9366,-1.9366,-1.9366,-1.9366,-1.9366,-1.9366,-1.9366,-1.9366,-1.9366,-1.9366,-1.9366,-1.9366,-1.9366,-1.9366,-1.9366,-1.9366,-1.9366,-1.9366,-1.9366,-1.9366,-1.9366,-1.9366,-1.9366,-1.9366,-1.9366,-1.9366,-1.9372,-1.9452,-1.9744,-2.0125,-2.0393,-2.0369,-2.0514,-2.0591,-2.0835,-2.1067,-2.1029,-2.1062,-2.0994,-2.0936,-2.0275,-2.0255,-2.0494,-2.0747,-2.0693,-2.0374,-1.9909,-1.9758,-1.9727,-1.9681,-1.9456,-1.9508,-1.9546,-1.9553,-1.9382,-1.9389,-1.9392,-1.9392,-1.9372,-1.9366,-1.9366,-1.9366,-1.9366,-1.9422,-1.9476,-2.0199,-2.0791,-2.0814,-2.075,-2.073,-2.0815,-2.0608,-2.0394,-2.0154,-1.994,-1.9813,-1.9606,-1.9379,-1.9366,-1.9366,-1.9366,-1.9366,-1.9366,-1.9366,-1.9366,-1.9366,-1.9366,-1.9366,-1.9366,-1.9366,-1.9366,-1.9366,-1.9366,-1.9366,-1.9366,-1.9366,-1.9366,-1.9366,-1.9366,-1.9366,-1.9366,-1.9366,-1.9366,-1.9366,-1.9366,-1.9366,-1.9366,-1.9366,-1.9366,-1.9366,-1.9366,-1.9366,-1.9366,-1.9366,-1.9366,-1.9366,-1.9366,-1.9366,-1.9366,-1.9366,-1.9366,-1.9366,-1.9366,-1.9366,-1.9366,-1.9366,-1.9366,-1.9366,-1.9366,-1.9366,-1.9366,-1.9366,-1.9366,-1.9366,-1.9366,-1.9366,-1.9366,-1.9366,-1.9366,-1.9366,-1.9366,-1.9392,-1.9376,-1.9424,-2.0107,-2.051,-2.0528,-2.0677,-2.0863,-2.1069,-2.1089,-2.1096,-2.1102,-2.1096,-2.1088,-2.1002,-2.1069,-2.0995,-2.1064,-2.0859,-2.0772,-2.0418,-2.0272,-2.0254,-1.9965,-1.967,-1.9647,-1.9641,-1.9582,-1.9496,-1.9404,-1.9369,-1.9419,-1.9386,-1.9372,-1.9366,-1.9366,-1.9372,-1.9446,-1.9462,-1.9804,-2.0278,-2.018,-2.0176,-2.0189,-2.0265,-2.0327,-2.0167,-2.0054,-1.9947,-1.98,-1.9566,-1.9366,-1.9366,-1.9366,-1.9366,-1.9366,-1.9366,-1.9366,-1.9366,-1.9366,-1.9366,-1.9366,-1.9366,-1.9366,-1.9366,-1.9366,-1.9366,-1.9366,-1.9366,-1.9366,-1.9366,-1.9366,-1.9366,-1.9366,-1.9366,-1.9366,-1.9366,-1.9366,-1.9366,-1.9366,-1.9366,-1.9366,-1.9366,-1.9366,-1.9366,-1.9366,-1.9366,-1.9366,-1.9366,-1.9366,-1.9366,-1.9366,-1.9366,-1.9366,-1.9366,-1.9366,-1.9366,-1.9366,-1.9366,-1.9366,-1.9366,-1.9366,-1.9366,-1.9366,-1.9366,-1.9366,-1.9366,-1.9366,-1.9366,-1.9366,-1.9366,-1.9366,-1.9366,-1.9366,-1.9366,-1.9426,-1.9404,-1.9402,-1.9965,-2.0944,-2.0947,-2.1056,-2.1069,-2.1096,-2.1102,-2.1102,-2.1102,-2.1102,-2.1102,-2.1102,-2.1102,-2.1076,-2.1036,-2.1088,-2.0869,-2.0815,-2.0702,-2.0718,-2.0405,-2.0338,-2.0347,-2.0227,-2.0127,-1.9893,-1.9556,-1.9639,-1.9362,-1.9446,-1.9372,-1.9366,-1.9366,-1.9372,-1.9392,-1.9439,-1.976,-1.9757,-1.9781,-1.978,-1.98,-1.9947,-2.004,-2.006,-1.998,-1.9887,-1.9766,-1.9533,-1.9366,-1.9366,-1.9366,-1.9366,-1.9366,-1.9366,-1.9366,-1.9366,-1.9366,-1.9366,-1.9366,-1.9366,-1.9366,-1.9366,-1.9366,-1.9366,-1.9366,-1.9366,-1.9366,-1.9366,-1.9366,-1.9366,-1.9366,-1.9366,-1.9366,-1.9366,-1.9366,-1.9366,-1.9366,-1.9366,-1.9366,-1.9366,-1.9366,-1.9366,-1.9366,-1.9366,-1.9366,-1.9366,-1.9366,-1.9366,-1.9366,-1.9366,-1.9366,-1.9366,-1.9366,-1.9366,-1.9366,-1.9366,-1.9366,-1.9366,-1.9366,-1.9366,-1.9366,-1.9366,-1.9366,-1.9366,-1.9366,-1.9366,-1.9366,-1.9366,-1.9366,-1.9366,-1.9366,-1.9372,-1.9395,-1.9529,-1.9666,-2.0368,-2.1073,-2.1074,-2.1089,-2.1102,-2.1102,-2.1102,-2.1102,-2.1102,-2.1102,-2.1102,-2.1102,-2.1102,-2.1102,-2.1076,-2.1069,-2.1042,-2.1056,-2.1036,-2.1074,-2.1105,-2.101,-2.1039,-2.0937,-2.0706,-2.0355,-1.9987,-1.9674,-1.9482,-1.9369,-1.9399,-1.9366,-1.9366,-1.9366,-1.9379,-1.9379,-1.9529,-1.9596,-1.9599,-1.9575,-1.9595,-1.9641,-1.9786,-1.982,-1.982,-1.9713,-1.9606,-1.9499,-1.9372,-1.9366,-1.9366,-1.9366,-1.9366,-1.9366,-1.9366,-1.9366,-1.9366,-1.9366,-1.9366,-1.9366,-1.9366,-1.9366,-1.9366,-1.9366,-1.9366,-1.9366,-1.9366,-1.9366,-1.9366,-1.9366,-1.9366,-1.9366,-1.9366,-1.9366,-1.9366,-1.9366,-1.9366,-1.9366,-1.9366,-1.9366,-1.9366,-1.9366,-1.9366,-1.9366,-1.9366,-1.9366,-1.9366,-1.9366,-1.9366,-1.9366,-1.9366,-1.9366,-1.9366,-1.9366,-1.9366,-1.9366,-1.9366,-1.9366,-1.9366,-1.9366,-1.9366,-1.9366,-1.9366,-1.9366,-1.9366,-1.9366,-1.9366,-1.9366,-1.9366,-1.9366,-1.9372,-1.9426,-1.9409,-1.9826,-2.0275,-2.0992,-2.1024,-2.1094,-2.1076,-2.1102,-2.1102,-2.1102,-2.1102,-2.1102,-2.1102,-2.1102,-2.1102,-2.1102,-2.1102,-2.1102,-2.1102,-2.1102,-2.1096,-2.1096,-2.1141,-2.1121,-2.1061,-2.1139,-2.1064,-2.0936,-2.0747,-2.0268,-1.9608,-1.9442,-1.9439,-1.9366,-1.9366,-1.9366,-1.9366,-1.9366,-1.9366,-1.9366,-1.9386,-1.9439,-1.9459,-1.9362,-1.9533,-1.9586,-1.9546,-1.9533,-1.9472,-1.9392,-1.9372,-1.9372,-1.9366,-1.9366,-1.9366,-1.9366,-1.9366,-1.9366,-1.9366,-1.9366,-1.9366,-1.9366,-1.9366,-1.9366,-1.9366,-1.9366,-1.9366,-1.9366,-1.9366,-1.9366,-1.9366,-1.9366,-1.9366,-1.9366,-1.9366,-1.9366,-1.9366,-1.9366,-1.9366,-1.9366,-1.9366,-1.9366,-1.9366,-1.9366,-1.9366,-1.9366,-1.9366,-1.9366,-1.9366,-1.9366,-1.9366,-1.9366,-1.9366,-1.9366,-1.9366,-1.9366,-1.9366,-1.9366,-1.9366,-1.9366,-1.9366,-1.9366,-1.9366,-1.9366,-1.9366,-1.9366,-1.9366,-1.9366,-1.9366,-1.9366,-1.9366,-1.9366,-1.9366,-1.9419,-1.9449,-1.9417,-1.9585,-2.055,-2.099,-2.1135,-2.1069,-2.1096,-2.1102,-2.1102,-2.1102,-2.1102,-2.1102,-2.1102,-2.1102,-2.1102,-2.1102,-2.1102,-2.1102,-2.1102,-2.1102,-2.1102,-2.1102,-2.1102,-2.1102,-2.1096,-2.1069,-2.1009,-2.1112,-2.108,-2.0322,-1.9568,-1.9519,-1.9392,-1.9366,-1.9366,-1.9366,-1.9366,-1.9366,-1.9366,-1.9366,-1.9366,-1.9399,-1.9399,-1.9412,-1.9406,-1.9412,-1.9366,-1.9366,-1.9366,-1.9366,-1.9372,-1.9366,-1.9366,-1.9366,-1.9366,-1.9366,-1.9366,-1.9366,-1.9366,-1.9366,-1.9366,-1.9366,-1.9366,-1.9366,-1.9366,-1.9366,-1.9366,-1.9366,-1.9366,-1.9366,-1.9366,-1.9366,-1.9366,-1.9366,-1.9366,-1.9366,-1.9366,-1.9366,-1.9366,-1.9366,-1.9366,-1.9366,-1.9366,-1.9366,-1.9366,-1.9366,-1.9366,-1.9366,-1.9366,-1.9366,-1.9366,-1.9366,-1.9366,-1.9366,-1.9366,-1.9366,-1.9366,-1.9366,-1.9366,-1.9366,-1.9366,-1.9366,-1.9366,-1.9366,-1.9366,-1.9366,-1.9366,-1.9366,-1.9366,-1.9366,-1.9366,-1.9366,-1.9366,-1.9452,-1.9384,-1.9535,-1.9876,-2.0628,-2.1007,-2.1062,-2.1096,-2.1102,-2.1102,-2.1102,-2.1102,-2.1102,-2.1102,-2.1102,-2.1102,-2.1102,-2.1102,-2.1102,-2.1102,-2.1102,-2.1102,-2.1102,-2.1102,-2.1102,-2.1102,-2.1102,-2.1089,-2.1014,-2.0936,-2.051,-1.984,-1.9502,-1.9439,-1.9366,-1.9366,-1.9366,-1.9366,-1.9366,-1.9366,-1.9366,-1.9366,-1.9366,-1.9366,-1.9366,-1.9366,-1.9366,-1.9366,-1.9366,-1.9366,-1.9366,-1.9366,-1.9366,-1.9366,-1.9366,-1.9366,-1.9366,-1.9366,-1.9366,-1.9366,-1.9366,-1.9366,-1.9366,-1.9366,-1.9366,-1.9366,-1.9372,-1.9379,-1.9406,-1.9239,-1.9259,-1.9285,-1.9305,-1.9325,-1.9359,-1.9366,-1.9366,-1.9366,-1.9366,-1.9366,-1.9366,-1.9366,-1.9366,-1.9366,-1.9366,-1.9366,-1.9366,-1.9366,-1.9366,-1.9366,-1.9366,-1.9366,-1.9366,-1.9366,-1.9366,-1.9366,-1.9366,-1.9366,-1.9366,-1.9366,-1.9366,-1.9366,-1.9366,-1.9366,-1.9366,-1.9366,-1.9366,-1.9366,-1.9366,-1.9366,-1.9366,-1.9366,-1.9366,-1.9366,-1.9366,-1.9446,-1.943,-1.9714,-2.0192,-2.0735,-2.0982,-2.1089,-2.1102,-2.1102,-2.1102,-2.1102,-2.1102,-2.1102,-2.1102,-2.1102,-2.1102,-2.1102,-2.1102,-2.1102,-2.1102,-2.1102,-2.1102,-2.1102,-2.1102,-2.1102,-2.1102,-2.1102,-2.1002,-2.0879,-2.059,-1.9967,-1.9391,-1.9435,-1.9366,-1.9366,-1.9366,-1.9366,-1.9366,-1.9366,-1.9366,-1.9366,-1.9366,-1.9366,-1.9366,-1.9366,-1.9366,-1.9366,-1.9366,-1.9366,-1.9366,-1.9366,-1.9366,-1.9366,-1.9366,-1.9366,-1.9366,-1.9366,-1.9366,-1.9366,-1.9366,-1.9366,-1.9366,-1.9366,-1.9366,-1.9366,-1.9372,-1.9406,-1.9426,-1.9459,-1.8657,-1.8677,-1.8911,-1.9005,-1.9045,-1.9252,-1.9366,-1.9366,-1.9359,-1.9366,-1.9366,-1.9366,-1.9366,-1.9366,-1.9366,-1.9366,-1.9366,-1.9366,-1.9366,-1.9366,-1.9366,-1.9366,-1.9366,-1.9366,-1.9366,-1.9366,-1.9366,-1.9366,-1.9366,-1.9366,-1.9366,-1.9366,-1.9366,-1.9366,-1.9366,-1.9366,-1.9366,-1.9366,-1.9366,-1.9366,-1.9366,-1.9366,-1.9366,-1.9366,-1.9366,-1.9366,-1.9362,-1.9363,-1.9706,-2.0245,-2.0748,-2.1022,-2.1102,-2.1102,-2.1102,-2.1102,-2.1102,-2.1102,-2.1102,-2.1102,-2.1102,-2.1102,-2.1102,-2.1102,-2.1102,-2.1102,-2.1102,-2.1102,-2.1102,-2.1102,-2.1102,-2.1102,-2.1089,-2.073,-2.0491,-2.0099,-1.9476,-1.9377,-1.9426,-1.9366,-1.9366,-1.9366,-1.9366,-1.9366,-1.9366,-1.9366,-1.9366,-1.9366,-1.9366,-1.9366,-1.9366,-1.9366,-1.9366,-1.9366,-1.9366,-1.9366,-1.9366,-1.9366,-1.9366,-1.9366,-1.9366,-1.9366,-1.9366,-1.9366,-1.9366,-1.9366,-1.9366,-1.9366,-1.9366,-1.9366,-1.9366,-1.9379,-1.9419,-1.9459,-1.9486]},{"header":{"parameterUnit":"m.s-1","parameterCategory":1,"la1":31.0,"la2":29.5877,"lo1":-88.7671,"lo2":-86.6584,"dy":0.0162,"dx":0.0185,"nx":115,"ny":88,"refTime":"2023-07-13T06:00:00:Z","depth":0,"parameterNumber":3,"parameterNumberName":"V-component_of_WINDS"},"data":[0.0,0.0,0.0,0.0,0.0,0.0,0.0,0.0,0.0,0.0,0.0,0.0,0.0,0.0,0.0,0.0,0.0,0.0,0.0,0.0,0.0,0.0,0.0,0.0,0.0,0.0,0.0,0.0,0.0,0.0,0.0,0.0,0.0,0.0,0.0,0.0,0.0,0.0,0.0,0.0,0.0,0.0,0.0,0.0,0.0,0.0,0.0,0.0,0.0,0.0,0.0,0.0,0.0,0.0,0.0,0.0,0.0,0.0,0.0,0.0,0.0,0.0,0.0,0.0,0.0,0.0,0.0,0.0,0.0,0.0,0.0,0.0,0.0,0.0,0.0,0.0,0.0,0.0,0.0,0.0,0.0,0.0,0.0,0.0,0.0,0.0,0.0,0.0,0.0,0.0,0.0,0.0,0.0,0.0,0.0,0.0,0.0,0.0,0.0,0.0,0.0,0.0,0.0,0.0,0.0,0.0,0.0,0.0,0.0,0.0,0.0,0.0,0.0,0.0,0.0,0.0,0.0,0.0,0.0,0.0,0.0,0.0,0.0,0.0,0.0,0.0,0.0,0.0,0.0,0.0,0.0,0.0,0.0,0.0,0.0,0.0,0.0,0.0,0.0,0.0,0.0,0.0,0.0,0.0,0.0,0.0,0.0,0.0,0.0,0.0,0.0,0.0,0.0,0.0,0.0,0.0,0.0,0.0,0.0,0.0,0.0,0.0,0.0,0.0,0.0,0.0,0.0,0.0,0.0,0.0,0.0,0.0,0.0,0.0,0.0,0.0,0.0,0.0,0.0,0.0,0.0,0.0,0.0,0.0,0.0,0.0,0.0,0.0,0.0,0.0,0.0,0.0,0.0,0.0,0.0,0.0,0.0,0.0,0.0,0.0,0.0,0.0,0.0,0.0,0.0,0.0,0.0,0.0,0.0,0.0,0.0,0.0,0.0,0.0,0.0,0.0,0.0,0.0,0.0,0.0,0.0,0.0,0.0,0.0,0.0,0.0,0.0,0.0,0.0,0.0,0.0,0.0,0.0,0.0,0.0,0.0,0.0,0.0,0.0,0.0,0.0,0.0,0.0,0.0,0.0,0.0,0.0,0.0,0.0,0.0,0.0,0.0,0.0,0.0,0.0,0.0,0.0,0.0,0.0,0.0,0.0,0.0,0.0,0.0,0.0,0.0,0.0,0.0,0.0,0.0,0.0,0.0,0.0,0.0,0.0,0.0,0.0,0.0,0.0,0.0,0.0,0.0,0.0,0.0,0.0,0.0,0.0,0.0,0.0,0.0,0.0,0.0,0.0,0.0,0.0,0.0,0.0,0.0,0.0,0.0,0.0,0.0,0.0,0.0,0.0,0.0,0.0,0.0,0.0,0.0,0.0,0.0,0.0,0.0,0.0,0.0,0.0,0.0,0.0,0.0,0.0,0.0,0.0,0.0,0.0,0.0,0.0,0.0,0.0,0.0,0.0,0.0,0.0,0.0,0.0,0.0,0.0,0.0,0.0,0.0,0.0,0.0,0.0,0.0,0.0,0.0,0.0,0.0,0.0,0.0,0.0,0.0,0.0,0.0,0.0,0.0,0.0,0.0,0.0,0.0,0.0,0.0,0.0,0.0,0.0,0.0,0.0,0.0,0.0,0.0,0.0,0.0,0.0,0.0,0.0,0.0,0.0,0.0,0.0,0.0,0.0,0.0,0.0,0.0,0.0,0.0,0.0,0.0,0.0,0.0,0.0,0.0,0.0,0.0,0.0,0.0,0.0,0.0,0.0,0.0,0.0,0.0,0.0,0.0,0.0,0.0,0.0,0.0,0.0,0.0,0.0,0.0,0.0,0.0,0.0,0.0,0.0,0.0,0.0,0.0,0.0,0.0,0.0,0.0,0.0,0.0,0.0,0.0,0.0,0.0,0.0,0.0,0.0,0.0,0.0,0.0,0.0,0.0,0.0,0.0,0.0,0.0,0.0,0.0,0.0,0.0,0.0,0.0,0.0,0.0,0.0,0.0,0.0,0.0,0.0,0.0,0.0,0.0,0.0,0.0,0.0,0.0,0.0,0.0,0.0,0.0,0.0,0.0,0.0,0.0,0.0,0.0,0.0,0.0,0.0,0.0,0.0,0.0,0.0,0.0,0.0,0.0,0.0,0.0,0.0,0.0,0.0,0.0,0.0,0.0,0.0,0.0,0.0,0.0,0.0,0.0,0.0,0.0,0.0,0.0,0.0,0.0,0.0,0.0,0.0,0.0,0.0,0.0,0.0,0.0,0.0,0.0,0.0,0.0,0.0,0.0,0.0,0.0,0.0,0.0,0.0,0.0,0.0,0.0,0.0,0.0,0.0,0.0,0.0,0.0,0.0,0.0,0.0,0.0,0.0,0.0,0.0,0.0,0.0,0.0,0.0,0.0,0.0,0.0,0.0,0.0,0.0,0.0,0.0,0.0,0.0,0.0,0.0,0.0,0.0,0.0,0.0,0.0,0.0,0.0,0.0,0.0,0.0,0.0,0.0,0.0,0.0,0.0,0.0,0.0,0.0,0.0,0.0,0.0,0.0,0.0,0.0,0.0,0.0,0.0,0.0,0.0,0.0,0.0,0.0,0.0,0.0,0.0,0.0,0.0,0.0,0.0,0.0,0.0,0.0,0.0,0.0,0.0,0.0,0.0,0.0,0.0,0.0,0.0,0.0,0.0,0.0,0.0,0.0,0.0,0.0,0.0,0.0,0.0,0.0,0.0,0.0,0.0,0.0,0.0,0.0,0.0,0.0,0.0,0.0,0.0,0.0,0.0,0.0,0.0,0.0,0.0,0.0,0.0,0.0,0.0,0.0,0.0,0.0,0.0,0.0,0.0,0.0,0.0,0.0,0.0,0.0,0.0,0.0,0.0,0.0,0.0,0.0,0.0,0.0,0.0,0.0,0.0,0.0,0.0,0.0,0.0,0.0,0.0,0.0,0.0,0.0,0.0,0.0,0.0,0.0,0.0,0.0,0.0,0.0,0.0,0.0,0.0,0.0,0.0,0.0,0.0,0.0,0.0,0.0,0.0,0.0,0.0,0.0,0.0,0.0,0.0,0.0,0.0,0.0,0.0,0.0,0.0,0.0,0.0,0.0,0.0,0.0,0.0,0.0,0.0,0.0,0.0,0.0,0.0,0.0,0.0,0.0,0.0,0.0,0.0,0.0,0.0,0.0,0.0,0.0,0.0,0.0,0.0,0.0,0.0,0.0,0.0,0.0,0.0,0.0,0.0,0.0,0.0,0.0,0.0,0.0,0.0,0.0,0.0,0.0,0.0,0.0,0.0,0.0,0.0,0.0,0.0,0.0,0.0,0.0,0.0,0.0,0.0,0.0,0.0,0.0,0.0,0.0,0.0,0.0,0.0,0.0,0.0,0.0,0.0,0.0,0.0,0.0,0.0,0.0,0.0,0.0,0.0,0.0,0.0,0.0,0.0,0.0,0.0,0.0,0.0,0.0,0.0,0.0,0.0,0.0,0.0,0.0,0.0,0.0,0.0,0.0,0.0,0.0,0.0,0.0,0.0,0.0,0.0,0.0,0.0,0.0,0.0,0.0,0.0,0.0,0.0,0.0,0.0,0.0,0.0,0.0,0.0,0.0,0.0,0.0,0.0,0.0,0.0,0.0,0.0,0.0,0.0,0.0,0.0,0.0,0.0,0.0,0.0,0.0,0.0,0.0,0.0,0.0,0.0,0.0,0.0,0.0,0.0,0.0,0.0,0.0,0.0,0.0,0.0,0.0,0.0,0.0,0.0,0.0,0.0,0.0,0.0,0.0,0.0,0.0,0.0,0.0,0.0,0.0,0.0,0.0,0.0,0.0,0.0,0.0,0.0,0.0,0.0,0.0,0.0,0.0,0.0,0.0,0.0,0.0,0.0,0.0,0.0,0.0,0.0,0.0,0.0,0.0,0.0,0.0,0.0,0.0,0.0,0.0,0.0,0.0,0.0,0.0,0.0,0.0,0.0,0.0,0.0,0.0,0.0,0.0,0.0,0.0,0.0,0.0,0.0,0.0,0.0,0.0,0.0,0.0,0.0,0.0,0.0,0.0,0.0,0.0,0.0,0.0,0.0,0.0,0.0,0.0,0.0,0.0,0.0,0.0,0.0,0.0,0.0,0.0,0.0,0.0,0.0,0.0,0.0,0.0,0.0,0.0,0.0,0.0,0.0,0.0,0.0,0.0,0.0,0.0,0.0,0.0,0.0,0.0,0.0,0.0,0.0,0.0,0.0,0.0,0.0,0.0,0.0,0.0,0.0,0.0,0.0,-3.2012,0.0,0.0,0.0,0.0,0.0,0.0,0.0,0.0,0.0,0.0,0.0,0.0,0.0,0.0,0.0,0.0,0.0,0.0,0.0,0.0,0.0,0.0,0.0,0.0,0.0,0.0,0.0,0.0,0.0,0.0,0.0,0.0,0.0,0.0,0.0,0.0,0.0,0.0,0.0,0.0,0.0,0.0,0.0,0.0,0.0,0.0,0.0,0.0,0.0,0.0,0.0,0.0,0.0,0.0,0.0,0.0,0.0,0.0,0.0,0.0,0.0,0.0,0.0,0.0,0.0,0.0,0.0,0.0,0.0,0.0,0.0,0.0,0.0,0.0,0.0,0.0,0.0,0.0,0.0,0.0,0.0,0.0,0.0,0.0,0.0,0.0,0.0,0.0,0.0,0.0,0.0,0.0,0.0,0.0,0.0,0.0,0.0,0.0,0.0,0.0,0.0,0.0,0.0,0.0,0.0,0.0,0.0,0.0,0.0,0.0,-3.5176,-3.4726,-3.3945,-3.334,-3.2871,0.0,0.0,0.0,0.0,0.0,0.0,0.0,0.0,0.0,0.0,0.0,0.0,0.0,0.0,0.0,0.0,0.0,0.0,0.0,0.0,0.0,0.0,0.0,0.0,0.0,0.0,0.0,0.0,0.0,0.0,0.0,0.0,0.0,0.0,0.0,0.0,0.0,0.0,0.0,0.0,0.0,0.0,0.0,0.0,0.0,0.0,0.0,0.0,0.0,0.0,0.0,0.0,0.0,0.0,0.0,0.0,0.0,0.0,0.0,0.0,0.0,0.0,0.0,0.0,0.0,0.0,0.0,0.0,0.0,0.0,0.0,0.0,0.0,0.0,0.0,0.0,0.0,0.0,0.0,0.0,0.0,0.0,0.0,0.0,0.0,0.0,0.0,0.0,0.0,0.0,0.0,0.0,0.0,0.0,0.0,0.0,0.0,0.0,0.0,0.0,0.0,0.0,0.0,0.0,0.0,0.0,0.0,0.0,0.0,0.0,0.0,0.0,-3.4805,-3.4297,-3.3437,0.0,0.0,0.0,0.0,0.0,0.0,0.0,0.0,0.0,0.0,0.0,0.0,0.0,0.0,0.0,0.0,0.0,0.0,0.0,0.0,0.0,0.0,0.0,0.0,0.0,0.0,0.0,0.0,0.0,0.0,0.0,0.0,0.0,0.0,0.0,0.0,0.0,0.0,0.0,0.0,0.0,0.0,0.0,0.0,0.0,0.0,0.0,0.0,0.0,0.0,0.0,0.0,0.0,0.0,0.0,0.0,0.0,0.0,0.0,0.0,0.0,0.0,0.0,0.0,0.0,0.0,0.0,0.0,0.0,0.0,0.0,0.0,0.0,0.0,0.0,0.0,0.0,0.0,0.0,0.0,0.0,0.0,0.0,0.0,0.0,0.0,0.0,0.0,0.0,0.0,0.0,0.0,0.0,0.0,0.0,0.0,0.0,0.0,0.0,0.0,0.0,0.0,0.0,0.0,0.0,0.0,0.0,0.0,0.0,0.0,-3.5957,-3.5879,-3.5117,0.0,-3.3457,0.0,0.0,0.0,0.0,0.0,0.0,0.0,0.0,0.0,0.0,0.0,0.0,0.0,0.0,0.0,0.0,0.0,0.0,0.0,0.0,0.0,0.0,0.0,0.0,0.0,0.0,0.0,0.0,0.0,0.0,0.0,0.0,0.0,0.0,0.0,0.0,0.0,0.0,0.0,0.0,0.0,0.0,0.0,0.0,0.0,0.0,0.0,0.0,0.0,0.0,0.0,0.0,0.0,0.0,0.0,0.0,0.0,0.0,0.0,0.0,0.0,0.0,0.0,0.0,0.0,0.0,0.0,0.0,0.0,0.0,0.0,0.0,0.0,0.0,0.0,0.0,0.0,0.0,0.0,0.0,0.0,0.0,0.0,0.0,0.0,0.0,0.0,0.0,0.0,0.0,0.0,0.0,0.0,0.0,0.0,0.0,0.0,0.0,0.0,0.0,0.0,0.0,0.0,0.0,0.0,0.0,0.0,0.0,0.0,0.0,-3.6016,-3.6016,-3.5644,-3.5059,0.0,0.0,0.0,0.0,0.0,0.0,0.0,0.0,0.0,0.0,0.0,0.0,0.0,0.0,0.0,0.0,0.0,0.0,0.0,0.0,0.0,0.0,0.0,0.0,0.0,0.0,0.0,0.0,0.0,0.0,0.0,0.0,0.0,0.0,0.0,0.0,0.0,0.0,0.0,0.0,0.0,0.0,0.0,0.0,0.0,0.0,0.0,0.0,0.0,0.0,0.0,0.0,0.0,0.0,0.0,0.0,0.0,0.0,0.0,0.0,0.0,0.0,0.0,0.0,0.0,0.0,0.0,0.0,0.0,0.0,0.0,0.0,0.0,0.0,0.0,0.0,0.0,0.0,0.0,0.0,0.0,0.0,0.0,0.0,0.0,0.0,0.0,0.0,0.0,0.0,0.0,0.0,0.0,0.0,0.0,0.0,0.0,0.0,0.0,0.0,0.0,0.0,0.0,0.0,0.0,0.0,0.0,0.0,0.0,0.0,-3.6016,-3.6016,-3.6016,-3.6016,-3.5703,-3.5078,0.0,0.0,0.0,0.0,0.0,0.0,0.0,0.0,0.0,0.0,0.0,0.0,0.0,0.0,0.0,0.0,0.0,0.0,0.0,0.0,0.0,0.0,0.0,0.0,0.0,0.0,0.0,0.0,0.0,0.0,0.0,0.0,0.0,0.0,0.0,0.0,0.0,0.0,0.0,0.0,0.0,0.0,0.0,0.0,0.0,0.0,0.0,0.0,0.0,0.0,0.0,0.0,0.0,0.0,0.0,0.0,0.0,0.0,0.0,0.0,0.0,0.0,0.0,0.0,0.0,0.0,0.0,0.0,0.0,0.0,0.0,0.0,0.0,0.0,0.0,0.0,0.0,0.0,0.0,0.0,0.0,0.0,0.0,0.0,0.0,0.0,0.0,0.0,0.0,0.0,0.0,0.0,0.0,0.0,0.0,0.0,0.0,0.0,0.0,0.0,0.0,0.0,0.0,0.0,0.0,0.0,0.0,0.0,-3.6016,-3.6016,-3.6016,-3.6016,-3.6016,-3.5976,0.0,0.0,0.0,0.0,0.0,0.0,0.0,0.0,0.0,0.0,0.0,0.0,0.0,0.0,0.0,0.0,0.0,0.0,0.0,0.0,0.0,0.0,0.0,0.0,0.0,0.0,0.0,0.0,0.0,0.0,0.0,0.0,0.0,0.0,0.0,0.0,0.0,0.0,0.0,0.0,0.0,0.0,0.0,0.0,0.0,0.0,0.0,0.0,0.0,0.0,0.0,0.0,0.0,0.0,0.0,0.0,0.0,0.0,0.0,0.0,0.0,0.0,0.0,0.0,0.0,0.0,0.0,0.0,0.0,0.0,0.0,0.0,0.0,0.0,0.0,0.0,0.0,0.0,0.0,0.0,0.0,0.0,0.0,0.0,0.0,0.0,0.0,0.0,0.0,0.0,0.0,0.0,0.0,0.0,0.0,0.0,0.0,0.0,0.0,0.0,0.0,0.0,0.0,0.0,0.0,0.0,0.0,0.0,0.0,-3.6016,-3.6016,-3.6016,-3.6016,-3.6016,-3.6016,0.0,0.0,0.0,0.0,0.0,0.0,0.0,0.0,0.0,0.0,0.0,0.0,0.0,0.0,0.0,0.0,0.0,0.0,0.0,0.0,0.0,0.0,0.0,0.0,0.0,0.0,0.0,0.0,0.0,0.0,0.0,0.0,0.0,0.0,0.0,0.0,0.0,0.0,0.0,0.0,0.0,0.0,0.0,0.0,0.0,0.0,0.0,0.0,0.0,0.0,0.0,0.0,0.0,0.0,0.0,0.0,0.0,0.0,0.0,0.0,0.0,0.0,0.0,0.0,0.0,0.0,0.0,0.0,0.0,0.0,0.0,0.0,0.0,0.0,0.0,0.0,0.0,0.0,0.0,0.0,0.0,0.0,0.0,0.0,0.0,0.0,0.0,0.0,0.0,0.0,0.0,0.0,0.0,0.0,0.0,0.0,0.0,0.0,0.0,0.0,0.0,0.0,0.0,0.0,0.0,0.0,0.0,0.0,0.0,-3.6016,0.0,-3.6016,-3.6016,-3.6016,-3.6016,0.0,0.0,0.0,0.0,0.0,0.0,0.0,0.0,0.0,0.0,0.0,0.0,0.0,0.0,0.0,0.0,0.0,0.0,0.0,0.0,0.0,0.0,0.0,0.0,0.0,0.0,0.0,0.0,0.0,0.0,0.0,0.0,0.0,0.0,0.0,0.0,0.0,0.0,0.0,0.0,0.0,0.0,0.0,0.0,0.0,0.0,0.0,0.0,0.0,0.0,0.0,0.0,0.0,0.0,0.0,0.0,0.0,0.0,0.0,0.0,0.0,0.0,0.0,0.0,0.0,0.0,0.0,0.0,0.0,0.0,0.0,0.0,0.0,0.0,0.0,0.0,0.0,0.0,0.0,0.0,0.0,0.0,0.0,0.0,0.0,0.0,0.0,0.0,0.0,0.0,0.0,0.0,0.0,0.0,0.0,0.0,0.0,0.0,0.0,0.0,0.0,0.0,0.0,0.0,0.0,0.0,0.0,0.0,-3.6016,-3.6016,-3.6016,-3.6016,-3.6016,-3.6016,-3.6016,0.0,0.0,0.0,0.0,0.0,0.0,0.0,0.0,0.0,0.0,0.0,0.0,0.0,0.0,0.0,0.0,0.0,0.0,0.0,0.0,0.0,0.0,0.0,0.0,0.0,0.0,0.0,0.0,0.0,0.0,0.0,0.0,0.0,0.0,0.0,0.0,0.0,0.0,0.0,0.0,0.0,0.0,0.0,0.0,0.0,0.0,0.0,0.0,0.0,0.0,0.0,0.0,0.0,0.0,0.0,0.0,0.0,0.0,0.0,0.0,0.0,0.0,0.0,0.0,0.0,0.0,0.0,0.0,0.0,0.0,0.0,0.0,0.0,0.0,0.0,0.0,0.0,0.0,0.0,0.0,0.0,0.0,0.0,0.0,0.0,0.0,0.0,0.0,0.0,0.0,0.0,0.0,0.0,0.0,0.0,0.0,0.0,0.0,0.0,0.0,0.0,0.0,0.0,0.0,0.0,0.0,0.0,0.0,0.0,-3.6016,-3.6016,-3.6016,-3.6016,-3.6016,-3.6016,0.0,0.0,0.0,0.0,0.0,0.0,0.0,0.0,0.0,0.0,0.0,0.0,0.0,0.0,0.0,0.0,0.0,0.0,0.0,0.0,0.0,0.0,0.0,0.0,0.0,0.0,0.0,0.0,0.0,0.0,0.0,0.0,0.0,0.0,0.0,0.0,0.0,0.0,0.0,0.0,0.0,0.0,0.0,0.0,0.0,0.0,0.0,0.0,0.0,0.0,0.0,0.0,0.0,0.0,0.0,0.0,0.0,0.0,0.0,0.0,0.0,0.0,0.0,0.0,0.0,0.0,0.0,0.0,0.0,0.0,0.0,0.0,0.0,0.0,0.0,0.0,0.0,0.0,0.0,0.0,0.0,0.0,0.0,0.0,0.0,0.0,0.0,0.0,0.0,0.0,0.0,0.0,0.0,0.0,0.0,0.0,0.0,0.0,0.0,0.0,0.0,0.0,0.0,0.0,0.0,0.0,0.0,0.0,0.0,-3.6016,-3.6016,-3.6016,-3.6016,-3.6016,-3.6016,-3.6016,0.0,0.0,0.0,0.0,0.0,0.0,0.0,0.0,0.0,0.0,0.0,0.0,0.0,0.0,0.0,0.0,0.0,0.0,0.0,0.0,0.0,0.0,0.0,0.0,0.0,0.0,0.0,0.0,0.0,0.0,0.0,0.0,0.0,0.0,0.0,0.0,0.0,0.0,0.0,0.0,0.0,0.0,0.0,0.0,0.0,0.0,0.0,0.0,0.0,0.0,0.0,0.0,0.0,0.0,0.0,0.0,0.0,0.0,0.0,0.0,0.0,0.0,0.0,0.0,0.0,0.0,0.0,0.0,0.0,0.0,0.0,0.0,0.0,0.0,0.0,0.0,0.0,0.0,0.0,0.0,0.0,0.0,0.0,0.0,0.0,0.0,0.0,0.0,0.0,0.0,0.0,0.0,0.0,0.0,0.0,0.0,0.0,0.0,0.0,0.0,0.0,0.0,0.0,0.0,0.0,0.0,0.0,0.0,-3.6016,-3.6016,-3.6016,-3.6016,-3.6016,-3.6016,0.0,0.0,0.0,0.0,0.0,0.0,0.0,0.0,0.0,0.0,0.0,0.0,0.0,0.0,0.0,0.0,0.0,0.0,0.0,0.0,0.0,0.0,0.0,0.0,0.0,0.0,0.0,0.0,0.0,0.0,0.0,0.0,0.0,0.0,0.0,0.0,0.0,0.0,0.0,0.0,0.0,0.0,0.0,0.0,0.0,0.0,0.0,0.0,0.0,0.0,0.0,0.0,0.0,0.0,0.0,0.0,0.0,0.0,0.0,0.0,0.0,0.0,0.0,0.0,0.0,0.0,0.0,0.0,0.0,0.0,0.0,0.0,0.0,0.0,0.0,0.0,0.0,0.0,0.0,0.0,0.0,0.0,0.0,0.0,0.0,0.0,0.0,0.0,0.0,0.0,0.0,0.0,0.0,0.0,0.0,0.0,0.0,0.0,0.0,0.0,0.0,0.0,0.0,0.0,0.0,0.0,0.0,0.0,0.0,-3.6016,-3.6016,-3.6016,-3.6016,-3.6016,-3.6016,0.0,0.0,0.0,0.0,0.0,0.0,0.0,0.0,0.0,0.0,0.0,0.0,0.0,0.0,0.0,0.0,0.0,0.0,0.0,0.0,0.0,0.0,0.0,0.0,0.0,0.0,0.0,0.0,0.0,0.0,0.0,0.0,0.0,0.0,0.0,0.0,0.0,0.0,0.0,0.0,0.0,0.0,0.0,0.0,0.0,0.0,0.0,0.0,0.0,0.0,0.0,0.0,0.0,0.0,0.0,0.0,0.0,0.0,0.0,0.0,0.0,0.0,0.0,0.0,0.0,0.0,0.0,0.0,0.0,0.0,0.0,0.0,0.0,0.0,0.0,0.0,0.0,0.0,0.0,0.0,0.0,0.0,0.0,0.0,0.0,0.0,0.0,0.0,0.0,0.0,0.0,0.0,0.0,0.0,0.0,0.0,0.0,0.0,0.0,0.0,0.0,0.0,0.0,0.0,0.0,0.0,0.0,0.0,-3.6016,-3.6016,-3.6016,-3.6016,-3.6016,-3.6016,-3.6016,0.0,0.0,0.0,0.0,0.0,0.0,0.0,0.0,0.0,0.0,0.0,0.0,0.0,0.0,0.0,0.0,0.0,0.0,0.0,0.0,0.0,0.0,0.0,0.0,0.0,0.0,0.0,0.0,0.0,0.0,0.0,0.0,0.0,0.0,0.0,0.0,0.0,0.0,0.0,0.0,0.0,0.0,0.0,0.0,0.0,0.0,0.0,0.0,0.0,0.0,0.0,0.0,0.0,0.0,0.0,0.0,0.0,0.0,0.0,0.0,0.0,0.0,0.0,0.0,0.0,0.0,0.0,0.0,0.0,0.0,0.0,0.0,0.0,0.0,0.0,0.0,0.0,0.0,0.0,0.0,0.0,0.0,0.0,0.0,0.0,0.0,0.0,0.0,0.0,0.0,0.0,0.0,0.0,0.0,0.0,0.0,0.0,0.0,0.0,0.0,0.0,0.0,0.0,0.0,0.0,0.0,0.0,0.0,-3.6016,-3.6016,-3.6016,-3.6016,-3.6016,-3.6016,-3.6016,0.0,0.0,0.0,0.0,0.0,0.0,0.0,0.0,0.0,0.0,0.0,0.0,0.0,0.0,0.0,0.0,0.0,0.0,0.0,0.0,0.0,0.0,0.0,0.0,0.0,0.0,0.0,0.0,0.0,0.0,0.0,0.0,0.0,0.0,0.0,0.0,0.0,0.0,0.0,0.0,0.0,0.0,0.0,0.0,0.0,0.0,0.0,0.0,0.0,0.0,0.0,0.0,0.0,0.0,0.0,0.0,0.0,0.0,0.0,0.0,0.0,0.0,0.0,0.0,0.0,0.0,0.0,0.0,0.0,0.0,0.0,0.0,0.0,0.0,0.0,0.0,0.0,0.0,0.0,0.0,0.0,0.0,0.0,0.0,0.0,0.0,0.0,0.0,0.0,0.0,0.0,0.0,0.0,0.0,0.0,0.0,0.0,0.0,0.0,0.0,0.0,0.0,0.0,0.0,0.0,0.0,0.0,0.0,-3.6016,-3.6016,-3.6016,-3.6016,-3.6016,-3.6016,-3.6016,0.0,0.0,0.0,0.0,0.0,0.0,0.0,0.0,0.0,0.0,0.0,0.0,0.0,0.0,0.0,0.0,0.0,0.0,0.0,0.0,0.0,0.0,0.0,0.0,0.0,0.0,0.0,0.0,0.0,0.0,0.0,0.0,0.0,0.0,0.0,0.0,0.0,0.0,0.0,0.0,0.0,0.0,0.0,0.0,0.0,0.0,0.0,0.0,-3.3379,0.0,0.0,0.0,0.0,0.0,0.0,0.0,0.0,0.0,0.0,0.0,0.0,0.0,0.0,0.0,0.0,0.0,0.0,0.0,0.0,0.0,0.0,0.0,0.0,0.0,0.0,0.0,0.0,0.0,0.0,0.0,0.0,0.0,0.0,0.0,0.0,0.0,0.0,0.0,0.0,0.0,0.0,0.0,0.0,0.0,0.0,0.0,0.0,0.0,0.0,0.0,0.0,0.0,0.0,0.0,0.0,0.0,0.0,0.0,-3.6016,-3.6016,-3.6016,-3.6016,-3.6016,-3.6016,-3.6016,0.0,0.0,0.0,0.0,0.0,0.0,0.0,0.0,0.0,0.0,0.0,0.0,0.0,0.0,0.0,0.0,0.0,0.0,0.0,0.0,0.0,0.0,0.0,0.0,0.0,0.0,0.0,0.0,0.0,0.0,0.0,0.0,0.0,0.0,0.0,0.0,0.0,0.0,0.0,0.0,0.0,0.0,0.0,0.0,0.0,0.0,0.0,0.0,0.0,0.0,0.0,0.0,0.0,0.0,0.0,0.0,0.0,0.0,0.0,0.0,0.0,0.0,0.0,0.0,0.0,0.0,0.0,0.0,0.0,0.0,0.0,0.0,0.0,0.0,0.0,0.0,0.0,0.0,0.0,0.0,0.0,0.0,0.0,0.0,0.0,0.0,0.0,0.0,0.0,0.0,0.0,0.0,0.0,0.0,0.0,0.0,0.0,0.0,0.0,0.0,0.0,0.0,0.0,0.0,0.0,0.0,0.0,-3.6016,-3.6016,-3.6016,-3.6016,-3.6016,-3.6016,-3.6016,-3.6016,-3.6016,0.0,0.0,0.0,0.0,0.0,0.0,0.0,0.0,0.0,0.0,0.0,0.0,0.0,0.0,0.0,0.0,0.0,0.0,0.0,0.0,0.0,0.0,0.0,0.0,0.0,0.0,0.0,0.0,0.0,0.0,0.0,0.0,0.0,0.0,0.0,0.0,0.0,0.0,-3.3789,-3.3789,0.0,0.0,0.0,0.0,0.0,0.0,0.0,0.0,-3.6016,0.0,0.0,0.0,0.0,0.0,0.0,0.0,0.0,0.0,0.0,0.0,0.0,0.0,0.0,0.0,0.0,0.0,0.0,0.0,0.0,0.0,0.0,0.0,0.0,0.0,0.0,0.0,0.0,0.0,0.0,0.0,0.0,0.0,0.0,0.0,0.0,0.0,0.0,0.0,0.0,0.0,0.0,0.0,0.0,0.0,0.0,0.0,0.0,0.0,0.0,0.0,0.0,0.0,0.0,0.0,0.0,-3.6016,-3.6016,-3.6016,-3.6016,-3.6016,-3.6016,-3.6016,-3.6016,-3.6016,-3.6016,0.0,0.0,0.0,0.0,0.0,0.0,0.0,0.0,0.0,0.0,0.0,0.0,0.0,0.0,0.0,0.0,0.0,0.0,0.0,0.0,0.0,0.0,0.0,0.0,0.0,0.0,0.0,0.0,0.0,0.0,0.0,0.0,0.0,0.0,0.0,0.0,0.0,0.0,0.0,-3.5566,-3.5625,0.0,0.0,0.0,0.0,0.0,0.0,0.0,0.0,-3.5898,0.0,0.0,0.0,0.0,0.0,0.0,0.0,0.0,0.0,0.0,0.0,0.0,0.0,0.0,0.0,0.0,0.0,0.0,0.0,0.0,0.0,0.0,0.0,0.0,0.0,0.0,0.0,0.0,0.0,0.0,0.0,0.0,0.0,0.0,0.0,0.0,0.0,0.0,0.0,0.0,0.0,0.0,0.0,0.0,0.0,0.0,0.0,0.0,0.0,0.0,0.0,0.0,0.0,0.0,0.0,-3.6016,-3.6016,-3.6016,-3.6016,-3.6016,-3.6016,-3.6016,-3.6016,-3.6016,0.0,0.0,0.0,0.0,0.0,0.0,0.0,0.0,0.0,0.0,0.0,0.0,0.0,0.0,0.0,0.0,0.0,0.0,0.0,0.0,0.0,0.0,0.0,0.0,0.0,0.0,0.0,0.0,0.0,0.0,0.0,0.0,0.0,0.0,0.0,0.0,0.0,0.0,0.0,0.0,-3.6016,-3.6016,-3.6016,0.0,0.0,0.0,0.0,0.0,0.0,-3.6016,-3.6016,0.0,0.0,0.0,0.0,0.0,0.0,0.0,0.0,0.0,0.0,0.0,0.0,0.0,0.0,0.0,0.0,0.0,0.0,0.0,0.0,0.0,0.0,0.0,0.0,0.0,0.0,0.0,0.0,0.0,0.0,0.0,0.0,0.0,0.0,0.0,0.0,0.0,0.0,0.0,0.0,0.0,0.0,0.0,0.0,0.0,0.0,0.0,0.0,0.0,0.0,0.0,0.0,0.0,0.0,0.0,-3.625,-3.6269,-3.6325,-3.6479,-3.6501,-3.6504,-3.6484,-3.6504,-3.6523,0.0,0.0,0.0,0.0,0.0,0.0,0.0,0.0,0.0,0.0,0.0,0.0,0.0,0.0,0.0,0.0,0.0,0.0,0.0,0.0,0.0,0.0,0.0,0.0,0.0,0.0,0.0,0.0,0.0,0.0,0.0,0.0,0.0,0.0,0.0,0.0,0.0,0.0,0.0,0.0,0.0,-3.6016,-3.6016,-3.6016,0.0,0.0,0.0,0.0,-3.6016,-3.6016,0.0,0.0,0.0,0.0,0.0,0.0,0.0,0.0,0.0,0.0,0.0,0.0,0.0,0.0,0.0,0.0,0.0,0.0,0.0,0.0,0.0,0.0,0.0,0.0,0.0,0.0,0.0,0.0,0.0,0.0,0.0,0.0,0.0,0.0,0.0,0.0,0.0,0.0,0.0,0.0,0.0,0.0,0.0,0.0,0.0,0.0,0.0,0.0,0.0,0.0,0.0,0.0,0.0,0.0,0.0,0.0,-3.7109,-3.7148,-3.7483,-3.8087,-3.8239,-3.8242,-3.8125,-3.8242,-3.8281,0.0,0.0,0.0,0.0,0.0,0.0,0.0,0.0,0.0,0.0,0.0,0.0,0.0,0.0,0.0,0.0,0.0,0.0,0.0,0.0,0.0,0.0,0.0,0.0,0.0,0.0,0.0,0.0,0.0,0.0,0.0,0.0,0.0,0.0,0.0,0.0,0.0,0.0,0.0,0.0,0.0,-3.6016,-3.6016,-3.6016,-3.6016,0.0,0.0,-3.6016,-3.6016,-3.6016,0.0,0.0,0.0,0.0,0.0,0.0,0.0,0.0,0.0,0.0,0.0,0.0,0.0,0.0,0.0,0.0,0.0,0.0,0.0,0.0,0.0,0.0,0.0,0.0,0.0,0.0,0.0,0.0,0.0,0.0,0.0,0.0,0.0,0.0,0.0,0.0,0.0,0.0,0.0,0.0,0.0,0.0,0.0,0.0,0.0,0.0,0.0,0.0,0.0,0.0,0.0,0.0,0.0,0.0,0.0,-3.7063,-3.7897,-3.789,-3.802,-3.8322,-3.8404,-3.8408,-3.8341,-3.8404,-3.845,0.0,0.0,0.0,0.0,0.0,0.0,0.0,0.0,0.0,0.0,0.0,0.0,0.0,0.0,0.0,0.0,0.0,0.0,0.0,0.0,0.0,0.0,0.0,0.0,0.0,0.0,0.0,0.0,0.0,0.0,0.0,0.0,0.0,0.0,0.0,0.0,0.0,0.0,0.0,0.0,0.0,0.0,-3.6016,-3.6016,0.0,0.0,0.0,-3.6016,-3.6016,0.0,0.0,0.0,0.0,0.0,0.0,0.0,0.0,0.0,0.0,0.0,0.0,0.0,0.0,0.0,0.0,0.0,0.0,0.0,0.0,0.0,0.0,0.0,0.0,0.0,0.0,0.0,0.0,0.0,0.0,0.0,0.0,0.0,0.0,0.0,0.0,0.0,0.0,0.0,0.0,0.0,0.0,0.0,0.0,0.0,0.0,0.0,0.0,0.0,0.0,0.0,0.0,0.0,0.0,0.0,0.0,0.0,-3.8693,-3.8655,-3.8705,-3.8899,-3.8929,-3.8915,-3.8899,-3.8908,0.0,0.0,0.0,0.0,0.0,0.0,0.0,0.0,0.0,0.0,0.0,0.0,0.0,0.0,0.0,0.0,0.0,0.0,0.0,0.0,0.0,0.0,0.0,0.0,0.0,0.0,0.0,-3.6016,0.0,0.0,0.0,0.0,0.0,0.0,0.0,0.0,0.0,0.0,0.0,0.0,0.0,0.0,-3.5976,-3.5937,-3.5957,-3.5976,0.0,0.0,-3.6016,-3.6016,-3.6016,-3.6016,0.0,0.0,0.0,0.0,0.0,0.0,0.0,0.0,0.0,0.0,0.0,0.0,0.0,0.0,0.0,0.0,0.0,0.0,0.0,0.0,0.0,0.0,0.0,0.0,0.0,0.0,0.0,0.0,0.0,0.0,0.0,0.0,0.0,0.0,0.0,0.0,0.0,0.0,0.0,0.0,0.0,0.0,0.0,0.0,0.0,0.0,0.0,0.0,0.0,0.0,0.0,0.0,0.0,0.0,0.0,-3.9569,-3.9546,-3.9846,-4.0496,-4.06,-4.06,-4.0554,-4.0592,-4.0607,0.0,0.0,0.0,0.0,0.0,0.0,0.0,0.0,0.0,0.0,0.0,0.0,0.0,0.0,0.0,0.0,0.0,0.0,0.0,0.0,0.0,0.0,0.0,0.0,0.0,0.0,0.0,0.0,0.0,0.0,0.0,0.0,0.0,0.0,0.0,0.0,0.0,0.0,0.0,0.0,0.0,-3.5937,-3.5762,-3.5879,-3.5976,0.0,0.0,-3.6016,-3.6016,-3.6016,-3.6016,-3.6016,0.0,0.0,0.0,0.0,0.0,0.0,0.0,0.0,0.0,0.0,0.0,0.0,0.0,0.0,0.0,0.0,0.0,0.0,0.0,0.0,0.0,0.0,0.0,0.0,0.0,0.0,0.0,0.0,0.0,0.0,0.0,0.0,0.0,0.0,0.0,0.0,0.0,0.0,0.0,0.0,0.0,0.0,0.0,0.0,0.0,0.0,0.0,0.0,0.0,0.0,0.0,0.0,0.0,-3.9521,-4.0296,-4.0219,-4.0296,-4.0566,-4.062,-4.062,-4.0566,-4.06,-4.0658,0.0,0.0,0.0,0.0,0.0,0.0,0.0,0.0,0.0,0.0,0.0,0.0,0.0,0.0,0.0,0.0,0.0,0.0,0.0,0.0,0.0,0.0,0.0,0.0,0.0,0.0,0.0,0.0,-3.6016,-3.6016,-3.6016,0.0,0.0,0.0,0.0,0.0,0.0,0.0,0.0,0.0,0.0,-3.5775,-3.5701,-3.5773,0.0,0.0,-3.5918,-3.5957,-3.5996,-3.6016,-3.6016,-3.6016,-3.6016,0.0,0.0,0.0,0.0,0.0,0.0,0.0,0.0,0.0,0.0,0.0,0.0,0.0,0.0,0.0,0.0,0.0,0.0,0.0,0.0,0.0,0.0,0.0,0.0,0.0,0.0,0.0,0.0,0.0,0.0,0.0,0.0,0.0,0.0,0.0,0.0,0.0,0.0,0.0,0.0,0.0,0.0,0.0,0.0,0.0,0.0,0.0,0.0,0.0,0.0,0.0,0.0,-4.0196,-4.0716,-4.0585,-4.0489,-4.0489,-4.0758,-4.0873,-4.0893,-4.1143,-4.12,0.0,0.0,0.0,0.0,0.0,0.0,0.0,0.0,0.0,0.0,0.0,0.0,0.0,0.0,0.0,0.0,0.0,0.0,0.0,0.0,0.0,0.0,0.0,0.0,0.0,0.0,0.0,0.0,-3.6016,-3.6016,-3.6016,0.0,0.0,0.0,0.0,0.0,0.0,0.0,0.0,0.0,0.0,-3.567,-3.5646,-3.5708,-3.5883,-3.6177,-3.628,-3.6426,-3.6738,-3.6758,-3.6718,-3.6713,0.0,0.0,0.0,0.0,0.0,0.0,0.0,0.0,0.0,0.0,0.0,0.0,0.0,0.0,0.0,0.0,0.0,0.0,0.0,0.0,0.0,0.0,0.0,0.0,0.0,0.0,0.0,0.0,0.0,0.0,-3.6055,0.0,0.0,0.0,0.0,0.0,0.0,0.0,0.0,0.0,0.0,0.0,0.0,0.0,0.0,0.0,0.0,0.0,0.0,0.0,0.0,0.0,0.0,-4.0731,-4.0812,-4.0677,-4.0546,-4.0566,-4.1335,-4.1777,-4.1797,-4.2585,-4.2643,-4.1797,0.0,0.0,0.0,0.0,0.0,0.0,0.0,0.0,0.0,0.0,0.0,0.0,0.0,0.0,0.0,0.0,0.0,0.0,0.0,0.0,0.0,0.0,0.0,0.0,0.0,0.0,-3.6074,-3.6035,-3.6055,0.0,0.0,0.0,0.0,0.0,0.0,0.0,0.0,0.0,0.0,-3.5694,-3.568,-3.5553,-3.5751,-3.6208,-3.6883,-3.715,-3.7539,-3.8359,-3.8408,-3.8343,0.0,0.0,0.0,0.0,0.0,0.0,0.0,0.0,0.0,0.0,0.0,0.0,0.0,0.0,0.0,0.0,0.0,0.0,0.0,0.0,0.0,0.0,0.0,0.0,0.0,0.0,0.0,-3.7598,-3.7598,0.0,0.0,0.0,0.0,0.0,0.0,0.0,0.0,0.0,0.0,0.0,-3.8304,-3.8202,0.0,0.0,0.0,0.0,0.0,0.0,0.0,0.0,0.0,0.0,0.0,0.0,-4.1816,-4.2297,-4.2258,-4.222,-4.2239,-4.2527,-4.2662,-4.2681,-4.2951,-4.2967,-4.2672,0.0,0.0,0.0,0.0,0.0,0.0,0.0,0.0,0.0,0.0,0.0,0.0,0.0,0.0,0.0,0.0,0.0,0.0,0.0,0.0,0.0,0.0,0.0,0.0,0.0,-3.7109,0.0,0.0,0.0,0.0,0.0,0.0,0.0,0.0,0.0,0.0,0.0,-3.7334,-3.7261,-3.7242,-3.7222,-3.7165,-3.7252,-3.7411,0.0,0.0,0.0,0.0,0.0,0.0,0.0,0.0,0.0,0.0,0.0,0.0,0.0,0.0,-3.7734,-3.7715,-3.7715,-3.7715,-3.7734,0.0,0.0,0.0,0.0,0.0,0.0,0.0,0.0,0.0,0.0,0.0,0.0,0.0,0.0,-3.8353,0.0,-3.8365,0.0,0.0,0.0,0.0,0.0,0.0,0.0,0.0,-3.8858,-3.8992,-3.9054,-3.8973,-3.9146,0.0,-4.0073,-4.0226,0.0,0.0,0.0,0.0,0.0,0.0,0.0,0.0,-4.2643,-4.3104,-4.3124,-4.3085,-4.3104,-4.3374,-4.3508,-4.3528,-4.3508,-4.3525,-4.3519,-4.325,-4.3096,0.0,0.0,0.0,0.0,0.0,0.0,0.0,0.0,0.0,0.0,0.0,0.0,0.0,0.0,0.0,0.0,0.0,0.0,0.0,0.0,0.0,0.0,0.0,-3.791,0.0,0.0,0.0,0.0,0.0,0.0,0.0,0.0,0.0,-3.7609,-3.7847,-3.8084,-3.807,-3.8031,-3.7993,-3.7998,0.0,0.0,0.0,0.0,0.0,0.0,0.0,-3.9198,-3.9148,-3.9189,-3.9208,-3.9227,-3.9306,-3.9369,-3.9374,0.0,0.0,-3.8711,-3.8613,-3.8613,-3.8613,-3.8613,-3.8613,-3.8613,-3.8535,-3.8476,0.0,0.0,0.0,0.0,0.0,0.0,0.0,0.0,-3.8395,-3.8424,0.0,-3.8433,0.0,0.0,0.0,0.0,0.0,-3.9169,0.0,0.0,-4.0277,-4.0566,-4.0585,-4.0566,-4.1008,-4.1816,-4.1835,-4.2239,-4.2986,-4.2374,0.0,0.0,0.0,0.0,0.0,0.0,-4.3181,-4.3299,-4.3278,-4.3181,-4.3239,-4.3951,-4.4335,-4.4335,-4.4335,-4.4355,-4.4301,-4.3626,-4.3203,-4.3171,-4.3171,0.0,0.0,0.0,0.0,0.0,0.0,0.0,0.0,0.0,0.0,0.0,0.0,0.0,0.0,0.0,0.0,0.0,0.0,0.0,0.0,-3.8462,0.0,0.0,0.0,0.0,0.0,0.0,0.0,0.0,0.0,0.0,-3.8485,-3.8304,-3.8146,-3.8123,0.0,0.0,0.0,0.0,-3.8485,-3.9304,-3.955,-3.9877,-4.0639,-4.0731,-4.0693,-4.0735,0.0,0.0,-4.0939,-4.1074,-4.1122,-4.1172,-4.1113,-4.0664,-3.9023,-3.8789,-3.8769,-3.875,-3.8809,-3.8711,-3.8711,-3.8867,-3.8789,-4.1316,0.0,0.0,0.0,0.0,-3.9973,-3.9952,-3.9882,-3.9976,-4.0011,-4.0008,-4.0014,0.0,0.0,0.0,0.0,0.0,0.0,-4.1434,-4.203,-4.2277,-4.2354,-4.2335,-4.2354,-4.2489,-4.272,-4.2739,-4.2874,-4.3124,-4.347,-4.3355,-4.2797,0.0,0.0,0.0,0.0,-4.4259,-4.4855,-4.4874,-4.4893,-4.4893,-4.5105,-4.522,-4.524,-4.522,-4.524,-4.524,-4.5009,-4.4893,-4.4876,-4.4282,0.0,0.0,0.0,0.0,0.0,0.0,0.0,0.0,0.0,0.0,0.0,0.0,0.0,0.0,0.0,0.0,0.0,0.0,0.0,-3.9323,-3.9805,-4.0163,0.0,0.0,0.0,0.0,0.0,0.0,0.0,0.0,0.0,-4.0031,-3.9912,-3.9854,0.0,0.0,-3.9835,-3.9931,-3.9858,-3.9896,-4.0142,-4.0219,0.0,-4.0527,-4.0658,-4.0677,-4.06,-4.0566,-4.0612,-4.074,-4.0859,-4.0937,-4.1055,-4.1133,-4.1016,-4.0605,-4.0469,-4.0449,-4.0469,-4.0449,-4.0469,-4.0449,-4.0449,-4.043,-4.4586,-4.3739,-4.2739,-4.2027,-4.1546,-4.1604,-4.1604,-4.1527,-4.162,-4.1659,-4.1643,-4.1643,-4.1697,-4.1751,-4.177,0.0,0.0,0.0,-4.2604,-4.3085,-4.3085,-4.3085,-4.3085,-4.3085,-4.3258,-4.3566,-4.3566,-4.3739,-4.4105,-4.4586,-4.4566,-4.4085,0.0,0.0,-4.4778,-4.4816,-4.5066,-4.5566,-4.5586,-4.5586,-4.5586,-4.5586,-4.5586,-4.5586,-4.5586,-4.5586,-4.5586,-4.5586,-4.5586,-4.5586,-4.5124,-4.4799,0.0,0.0,0.0,0.0,0.0,0.0,0.0,0.0,0.0,0.0,0.0,-4.0971,0.0,0.0,0.0,0.0,-4.0123,-4.0104,-4.0104,-4.0498,0.0,0.0,0.0,0.0,0.0,0.0,0.0,-4.105,-4.1412,-4.1643,-4.1643,-4.1585,-4.1296,-4.0716,-4.0544,-4.0526,-4.0616,0.0,-4.1024,-4.1011,-4.1316,-4.1527,-4.1527,-4.1585,-4.1639,-4.1582,-4.1639,-4.1677,-4.1753,-4.1801,-4.1878,-4.1992,-4.209,-4.2168,-4.2187,-4.2187,-4.1933,-4.1348,-4.1191,-4.1191,-4.1191,-4.1191,-4.1269,-4.7663,-4.6797,-4.447,-4.3431,-4.3297,-4.3239,-4.3201,-4.3181,-4.3124,-4.3085,-4.3085,-4.3085,-4.314,-4.3176,-4.3181,0.0,-4.3181,-4.3201,-4.3239,-4.3297,-4.3278,-4.3297,-4.3297,-4.3316,-4.3682,-4.4393,-4.4412,-4.4816,-4.5547,-4.5586,-4.5586,-4.5605,-4.5682,-4.5663,-4.5586,-4.5586,-4.5586,-4.5586,-4.5586,-4.5586,-4.5586,-4.5586,-4.5586,-4.5586,-4.5586,-4.5586,-4.5586,-4.5586,-4.5586,-4.5586,-4.5586,-4.5586,-4.5566,0.0,0.0,0.0,0.0,0.0,0.0,0.0,0.0,0.0,0.0,0.0,0.0,0.0,0.0,0.0,-4.0935,0.0,-4.0889,-4.0915,0.0,0.0,0.0,-4.13,-4.2098,-4.2151,-4.2379,-4.3126,0.0,0.0,-4.3085,-4.3085,-4.2527,-4.0912,-4.0696,-4.0713,-4.0723,-4.1424,-4.1905,-4.1899,-4.2569,-4.3066,-4.2912,-4.2951,-4.2951,-4.2986,-4.3294,-4.3253,-4.3254,-4.3283,-4.3388,-4.3466,-4.3594,-4.3574,-4.3672,-4.3594,-4.3223,-4.1738,-4.1465,-4.1445,-4.1523,-4.1543,-4.1758,-4.799,-4.7759,-4.7163,-4.6182,-4.4951,-4.4297,-4.4008,-4.397,-4.3355,-4.3085,-4.3085,-4.3085,-4.3104,-4.3124,-4.3124,-4.3451,-4.4008,-4.4008,-4.4374,-4.497,-4.5009,-4.5009,-4.5009,-4.4989,-4.5105,-4.5259,-4.5278,-4.5393,-4.5586,-4.5586,-4.5586,-4.5624,-4.6259,-4.6259,-4.5605,-4.5586,-4.5586,-4.5586,-4.5586,-4.5586,-4.5586,-4.5586,-4.5586,-4.5586,-4.5586,-4.5586,-4.5586,-4.5586,-4.5586,-4.5586,-4.5586,-4.5586,-4.5586,-4.5393,0.0,0.0,0.0,0.0,0.0,0.0,0.0,0.0,0.0,-4.2683,-4.2834,0.0,-4.2666,0.0,-4.2568,-4.2563,-4.2583,-4.2615,0.0,0.0,-4.2714,-4.2787,-4.2857,-4.2881,-4.2958,-4.3104,-4.3124,-4.3085,-4.3085,-4.3085,-4.297,-4.2527,-4.2498,-4.2502,-4.2568,-4.2668,-4.2787,-4.2821,-4.2996,-4.3109,-4.3162,-4.3085,-4.3143,-4.314,-4.3162,-4.3181,-4.3236,-4.3241,-4.3312,-4.355,-4.361,-4.3633,-4.373,-4.3711,-4.3613,-4.3183,-4.3105,-4.3105,-4.3105,-4.3086,-4.3144,-4.926,-4.926,-4.926,-4.8721,-4.7778,-4.6528,-4.599,-4.5951,-4.5509,-4.5336,-4.5336,-4.5316,-4.5336,-4.5316,-4.5336,-4.5566,-4.597,-4.6009,-4.6259,-4.6701,-4.6721,-4.6721,-4.6721,-4.6701,-4.6721,-4.6721,-4.6701,-4.6721,-4.6721,-4.6721,-4.6721,-4.6721,-4.7201,-4.7201,-4.6721,-4.6721,-4.6701,-4.6721,-4.6721,-4.6721,-4.6721,-4.6721,-4.6701,-4.6721,-4.6701,-4.6721,-4.6721,-4.67,-4.6718,-4.6698,-4.6371,-4.6161,-4.6142,-4.5815,-4.5586,0.0,0.0,0.0,0.0,0.0,0.0,0.0,0.0,0.0,0.0,0.0,-4.322,-4.3292,-4.3156,-4.3124,-4.3192,-4.3179,-4.3159,-4.3159,-4.3236,-4.3371,-4.3607,-4.3667,-4.382,-4.4162,-4.422,-4.422,-4.4201,-4.422,-4.422,-4.422,-4.4234,-4.3946,-4.3313,-4.3407,-4.364,-4.3647,-4.3974,-4.4205,-4.422,-4.4201,-4.422,-4.4201,-4.422,-4.422,-4.4259,-4.4278,-4.4335,-4.4523,-4.4581,-4.4629,-4.4746,-4.4766,-4.4785,-4.4844,-4.4844,-4.457,-4.3867,-4.3711,-4.3769,-5.0779,-5.0683,-5.0683,-5.0683,-5.0567,-4.9067,-4.8375,-4.8259,-4.8144,-4.8105,-4.8105,-4.8105,-4.8105,-4.8105,-4.8105,-4.8105,-4.8105,-4.8105,-4.8105,-4.8105,-4.8105,-4.8105,-4.8105,-4.8105,-4.8105,-4.8105,-4.8105,-4.8105,-4.8105,-4.8105,-4.8105,-4.8105,-4.8202,-4.8279,-4.8279,-4.8394,-4.8336,-4.8105,-4.8105,-4.8105,-4.8105,-4.8105,-4.8105,-4.8105,-4.8105,-4.8105,-4.8105,-4.8084,-4.8101,-4.8081,-4.743,-4.7064,-4.7045,-4.6315,-4.5873,0.0,-4.5776,0.0,0.0,0.0,0.0,0.0,0.0,0.0,0.0,-4.3494,-4.3549,-4.3669,-4.353,-4.3453,-4.3515,-4.3476,-4.3438,-4.3438,-4.3438,-4.3745,-4.4532,-4.4628,-4.4972,-4.5836,-4.5913,-4.5913,-4.5913,-4.5913,-4.5913,-4.5911,-4.5911,-4.5468,-4.4186,-4.4243,-4.4472,-4.4455,-4.5105,-4.5393,-4.5432,-4.549,-4.5509,-4.5528,-4.547,-4.5586,-4.549,-4.5509,-4.5586,-4.5712,-4.5706,-4.5781,-4.6035,-4.6035,-4.6094,-4.6113,-4.6133,-4.5723,-4.4551,-4.418,-4.4277,-5.1298,-5.0702,-5.0683,-5.0683,-5.0664,-5.0337,-4.9798,-4.9106,-4.8413,-4.8105,-4.8105,-4.8105,-4.8105,-4.8105,-4.8105,-4.8105,-4.8105,-4.8105,-4.8105,-4.8105,-4.8105,-4.8105,-4.8105,-4.8105,-4.8105,-4.8105,-4.8105,-4.8105,-4.8105,-4.8105,-4.8105,-4.8125,-4.8798,-4.9163,-4.9183,0.0,0.0,0.0,-4.8105,-4.8105,-4.8105,-4.8105,-4.8105,-4.8105,-4.8105,0.0,-4.8105,-4.8086,-4.8105,-4.8105,-4.7933,0.0,0.0,0.0,0.0,0.0,0.0,0.0,0.0,0.0,0.0,0.0,-4.5201,-4.5143,-4.5143,-4.5143,-4.5163,-4.5182,-4.5143,-4.5124,-4.5163,-4.5143,-4.5143,-4.5124,-4.5124,-4.5472,-4.63,-4.6396,-4.6703,-4.7509,-4.7605,-4.7625,-4.7567,-4.7625,-4.7604,-4.7524,-4.7638,-4.7523,-4.7139,-4.6046,-4.5393,-4.5374,-4.5605,-4.5624,-4.5586,-4.5663,-4.5759,-4.5586,-4.5586,-4.5643,-4.5699,-4.568,-4.568,-4.5853,-4.5812,-4.5872,-4.5982,-4.6014,-4.623,-4.6152,-4.6269,-4.6191,-4.5879,-4.5801,-4.5859,-5.2318,0.0,-5.1933,-5.1933,0.0,-5.1471,-5.1048,-5.0567,-4.974,-4.9375,-4.9375,-4.9394,-4.9375,-4.9375,-4.9375,-4.9375,-4.9375,-4.9394,-4.9375,-4.9375,-4.9375,-4.9394,-4.9394,-4.9394,-4.9394,-4.9394,-4.9375,-4.9375,-4.9375,-4.9394,-4.9375,-4.9375,-4.9817,-5.0048,-5.0048,-5.0452,-5.026,-4.9375,-4.9375,-4.9298,-4.9077,-4.9097,-4.9013,-4.8796,-4.8772,0.0,0.0,0.0,0.0,0.0,0.0,0.0,0.0,-4.8335,0.0,-4.7527,-4.7505,-4.7293,-4.6889,-4.6851,-4.6851,-4.6833,-4.6851,-4.6487,-4.568,-4.5586,-4.5586,-4.5586,-4.5586,-4.5776,-4.618,-4.6256,-4.641,-4.6756,-4.6814,-4.7027,-4.7395,-4.7491,-4.7664,-4.7991,-4.8105,-4.8105,-4.8105,-4.8105,-4.8086,-4.8103,-4.8103,-4.8123,-4.8047,-4.7411,-4.6852,-4.6817,-4.6817,-4.6836,-4.6836,-4.6836,-4.6817,-4.6836,-4.6817,-4.6835,-4.6833,-4.6833,-4.6851,-4.6928,-4.6985,-4.7062,-4.7174,-4.7294,-4.7418,-4.748,-4.7539,-4.7578,-4.7558,-4.7246,-4.709,-5.3337,-5.3203,-5.3203,-5.3203,-5.3145,-5.2433,-5.2145,-5.2068,0.0,0.0,0.0,-5.0683,-5.0683,-5.0683,-5.0683,-5.0683,-5.0683,-5.0683,-5.0683,-5.0683,-5.0683,-5.0683,-5.0683,-5.0683,-5.0683,-5.0683,-5.0683,-5.0683,-5.0683,-5.0683,-5.0683,-5.0683,-5.0683,-5.0663,-5.0604,-5.0504,-5.0483,-5.0483,-5.0643,-5.0504,-5.0135,-5.0111,-4.9924,-4.9504,-4.9504,-4.9504,-4.9504,-4.9558,-4.9733,-4.9944,-4.9367,-4.9156,-4.9388,-4.8721,-4.826,-4.8125,-4.82,-4.816,-4.8025,-4.8064,-4.8102,-4.8102,-4.8101,-4.7524,-4.6124,-4.6028,-4.6047,-4.6047,-4.6046,-4.6352,-4.7043,-4.7122,-4.7372,-4.8044,-4.8102,-4.8123,-4.8298,-4.8318,-4.8395,-4.851,-4.8644,-4.8586,-4.8644,-4.8644,-4.8567,-4.8586,-4.8702,-4.8548,-4.851,-4.8259,-4.7931,-4.7933,-4.7856,-4.8009,-4.8067,-4.8009,-4.8105,-4.7971,-4.8009,-4.8105,-4.8102,-4.8101,-4.8101,-4.795,-4.8198,-4.8214,-4.8376,-4.841,-4.8693,-4.8805,-4.8887,-4.8965,-4.9043,-4.8574,-4.8262,-5.3895,-5.3203,-5.3203,-5.3203,-5.3203,-5.3068,-5.3029,-5.2895,-5.1375,-5.0683,-5.0683,-5.0683,-5.0683,-5.0683,-5.0683,-5.0683,-5.0683,-5.0683,-5.0683,-5.0683,-5.0683,-5.0683,-5.0683,-5.0683,-5.0683,-5.0683,-5.0683,-5.0683,-5.0683,-5.0683,-5.0683,-5.0683,-5.0683,-5.0504,-5.0183,-4.9827,-4.9664,-4.9673,-5.0377,-5.0504,-5.0111,-5.0111,-4.9924,-4.9532,-4.9475,-4.9504,-4.9504,-4.9825,-4.9881,-4.9589,-4.9805,-4.9805,-4.9503,-4.9373,-4.8971,-4.8299,-4.8529,-4.8375,-4.7684,-4.7895,-4.8087,-4.8106,-4.8103,-4.7987,-4.7778,-4.7759,-4.774,-4.774,-4.7661,-4.7792,-4.7927,-4.7952,-4.7991,-4.8126,-4.8126,-4.8395,-4.9106,-4.9202,-4.9471,-5.0125,-5.0317,-5.026,-5.0164,-5.0202,-5.0164,-5.026,-5.0048,-5.024,-4.9971,-4.9029,-4.8203,-4.8087,-4.8106,-4.8105,-4.8298,-4.8125,-4.8259,-4.8105,-4.8221,-4.8317,-4.8335,-4.8316,-4.8298,-4.8164,-4.8318,-4.8309,-4.8322,-4.8379,-4.8683,-4.8814,-4.8958,-4.9238,-4.9844,-4.9824,-4.9609,-5.4914,-5.4568,-5.4549,-5.4549,-5.453,-5.4087,-5.3626,-5.3164,-5.2395,-5.1798,-5.1375,-5.1337,-5.1106,-5.0702,-5.0683,-5.0683,-5.0683,-5.0683,-5.0683,-5.0683,-5.0683,-5.0683,-5.0683,-5.0683,-5.0683,-5.0702,-5.0483,-5.0358,-5.0339,-5.014,-5.0043,-5.0024,-5.0043,-4.9949,-4.9773,-4.9608,-4.9504,-4.9504,-4.9872,-4.9853,-4.9475,-4.9426,-4.9265,-4.8881,-4.8847,-4.8847,-4.8847,-4.9015,-4.9137,-4.9163,-4.9337,-4.9474,-4.9493,-4.9495,-4.9314,-4.8947,-4.906,-4.9102,-4.8913,-4.9279,-4.9413,-4.9221,-4.9394,-4.9509,-4.951,-4.8644,-4.8087,-4.8105,-4.8085,-4.8296,-4.8757,-4.8817,-4.901,-4.9471,-4.9509,-4.9683,-4.999,-5.0086,-5.0279,-5.0606,-5.0683,-5.0683,-5.0683,-5.0683,-5.0683,-5.0683,-5.0683,-5.0683,-5.0683,-5.0048,-4.949,-4.949,-4.951,-4.9529,-4.949,-4.951,-4.951,-4.951,-4.951,-4.951,-4.951,-4.949,-4.949,-4.9529,-4.9548,-4.9623,-4.9591,-4.977,-4.9904,-4.9929,-5.002,-5.0351,-5.0664,-5.0801,-5.0683,-5.5684,-5.5684,-5.5684,-5.5684,-5.5645,-5.503,-5.4376,-5.3799,-5.378,-5.328,-5.2529,-5.2299,-5.1856,-5.1298,-5.126,-5.1164,-5.0971,-5.0971,-5.0875,-5.0702,-5.0604,-5.0584,-5.0544,-5.0464,-5.0421,-5.0399,-5.0111,-4.9949,-4.9924,-4.9645,-4.9504,-4.9475,-4.9416,-4.9356,-4.9356,-4.9265,-4.9252,-4.9234,-4.9234,-4.9108,-4.8878,-4.8897,-4.8709,-4.8344,-4.8324,-4.8324,-4.8324,-4.8379,-4.8531,-4.8752,-4.8879,-4.9007,-4.9211,-4.9232,-4.9234,-4.9246,-4.9323,-4.9585,-5.008,-5.0473,-5.0566,-5.0259,-5.051,-5.0683,-5.0587,-4.9471,-4.8683,-4.8682,-4.8759,-4.9028,-4.9567,-4.9702,-4.9971,-5.0606,-5.0683,-5.0606,-5.0683,-5.0683,-5.0683,-5.0683,-5.0683,-5.0683,-5.0683,-5.0683,-5.0683,-5.0683,-5.0683,-5.0683,-5.0683,-5.0683,-5.0683,-5.0683,-5.0683,-5.0606,-5.0683,-5.0625,-5.0606,-5.0683,-5.0625,-5.0529,-5.0548,-5.0625,-5.0664,-5.0567,-5.0683,-5.0664,-5.0798,-5.0875,-5.0921,-5.0856,-5.0908,-5.1094,-5.1074,-5.1172,-5.1308,-5.5684,-5.5684,-5.5684,-5.5684,-5.5684,-5.5588,-5.5491,-5.5415,-5.5453,-5.5011,-5.4143,-5.3433,-5.3049,-5.2991,-5.2933,-5.2491,-5.1798,-5.1798,-5.1413,-5.0739,-5.0313,-5.0159,-5.0212,-4.9838,-4.9589,-4.9674,-4.9618,-4.9655,-4.9683,-4.9588,-4.9512,-4.9445,-4.9139,-4.9019,-4.8967,-4.8641,-4.8458,-4.8439,-4.8383,-4.8586,-4.8863,-4.8897,-4.8728,-4.8306,-4.8324,-4.8324,-4.8324,-4.8675,-4.8676,-4.842,-4.8714,-4.8748,-4.8491,-4.8438,-4.8439,-4.8439,-4.877,-4.9272,-5.0016,-5.0451,-5.0654,-5.0638,-5.0625,-5.0683,-5.0683,-5.0529,-5.0452,-5.0375,-5.0394,-5.0394,-5.0587,-5.0529,-5.0529,-5.0625,-5.0683,-5.0683,-5.0683,-5.0683,-5.0683,-5.0683,-5.0683,-5.0683,-5.0683,-5.0683,-5.0683,-5.0683,-5.0683,-5.0683,-5.0683,-5.0683,-5.0683,-5.0683,-5.0683,-5.0683,-5.0683,-5.0683,-5.0683,-5.0683,-5.0683,-5.0683,-5.0683,-5.0683,-5.0683,-5.0702,-5.0702,-5.0721,-5.0741,-5.0818,-5.0895,-5.0929,-5.1009,-5.1111,-5.1123,-5.1138,-5.1211,-5.5684,-5.5684,-5.5684,-5.5684,-5.5684,-5.5684,-5.5684,-5.5684,-5.5684,-5.5385,-5.4877,-5.447,-5.3894,-5.3222,-5.3203,-5.2867,-5.2322,-5.2322,-5.1997,-5.1414,-5.1214,-5.1159,-5.1093,-5.0505,-5.0436,-5.0802,-5.0191,-5.0099,-5.0459,-5.0368,-5.0265,-5.0248,-5.0084,-5.0027,-4.999,-4.9873,-4.9774,-4.9793,-4.9774,-4.9892,-4.9861,-4.9049,-4.844,-4.8344,-4.8324,-4.8324,-4.8324,-4.8453,-4.8471,-4.8324,-4.8453,-4.8453,-4.8324,-4.8324,-4.8324,-4.8343,-4.8675,-4.8943,-4.9036,-4.9629,-4.998,-4.9971,-5.0202,-5.0433,-5.0664,-5.0683,-5.0683,-5.0683,-5.0683,-5.0683,-5.0683,-5.0683,-5.0683,-5.0683,-5.0683,-5.0683,-5.0683,-5.0683,-5.0683,-5.0683,-5.0683,-5.0683,-5.0683,-5.0683,-5.0683,-5.0683,-5.0683,-5.0683,-5.0683,-5.0683,-5.0683,-5.0683,-5.0683,-5.0683,-5.0683,-5.0683,-5.0683,-5.0683,-5.0683,-5.0683,-5.0683,-5.0683,-5.0683,-5.0683,-5.0683,-5.0683,-5.0702,-5.0721,-5.0779,-5.0798,-5.0895,-5.1009,-5.1064,-5.1095,-5.1144,-5.5684,-5.5684,-5.5684,-5.5621,-5.5554,-5.5535,-5.5489,-5.5375,-5.5375,-5.5212,-5.4952,-5.4952,-5.4459,-5.3647,-5.3556,-5.3276,-5.2813,-5.2767,-5.2456,-5.1963,-5.1782,-5.1737,-5.1662,-5.1045,-5.1031,-5.1376,-5.0708,-5.0601,-5.1102,-5.0927,-5.082,-5.082,-5.082,-5.082,-5.082,-5.082,-5.082,-5.0802,-5.082,-5.082,-5.0618,-4.9609,-4.8985,-4.8985,-4.8985,-4.8985,-4.8985,-4.8987,-4.884,-4.8675,-4.8656,-4.8526,-4.8324,-4.8324,-4.8324,-4.8343,-4.8675,-4.879,-4.8477,-4.9105,-4.9504,-4.9529,-4.986,-5.0221,-5.0488,-5.0643,-5.0683,-5.0683,-5.0683,-5.0683,-5.0683,-5.0683,-5.0683,-5.0683,-5.0683,-5.0683,-5.0683,-5.0683,-5.0683,-5.0683,-5.0683,-5.0683,-5.0683,-5.0683,-5.0683,-5.0683,-5.0683,-5.0683,-5.0683,-5.0683,-5.0683,-5.0683,-5.0683,-5.0683,-5.0683,-5.0683,-5.0683,-5.0683,-5.0683,-5.0683,-5.0683,-5.0683,-5.0683,-5.0683,-5.0683,-5.0683,-5.0683,-5.0702,-5.0702,-5.0721,-5.0779,-5.0895,-5.0952,-5.0972,-5.0972,-5.5684,-5.5684,-5.5703,-5.5466,-5.5134,-5.5134,-5.4924,-5.4659,-5.4579,-5.4566,-5.4516,-5.4535,-5.4478,-5.4358,-5.4252,-5.395,-5.3258,-5.3182,-5.2743,-5.1989,-5.1604,-5.1355,-5.1301,-5.0949,-5.0864,-5.113,-5.0961,-5.0882,-5.0956,-5.0857,-5.082,-5.0857,-5.0949,-5.0875,-5.093,-5.0986,-5.0857,-5.0986,-5.0986,-5.0894,-5.0875,-5.0765,-5.0692,-5.0692,-5.0655,-5.0563,-5.06,-5.0648,-5.0339,-4.9561,-4.9524,-4.9173,-4.8453,-4.8361,-4.8379,-4.8379,-4.8675,-4.8879,-4.8881,-4.9215,-4.9436,-4.9525,-4.9773,-5.008,-5.0145,-5.0476,-5.0699,-5.0721,-5.0818,-5.0818,-5.0875,-5.0779,-5.0702,-5.0683,-5.0683,-5.0683,-5.0683,-5.0683,-5.0683,-5.0683,-5.0683,-5.0683,-5.0683,-5.0683,-5.0683,-5.0683,-5.0683,-5.0683,-5.0683,-5.0683,-5.0683,-5.0683,-5.0683,-5.0683,-5.0683,-5.0683,-5.0683,-5.0683,-5.0683,-5.0683,-5.0683,-5.0683,-5.0683,-5.0683,-5.0683,-5.0683,-5.0683,-5.0683,-5.0683,-5.0702,-5.0702,-5.076,-5.0818,-5.0741,-5.076,-5.516,-5.4933,-5.4933,-5.4848,-5.4731,-5.4701,-5.4609,-5.4503,-5.4503,-5.4322,-5.4083,-5.4048,-5.3906,-5.3662,-5.3662,-5.3647,-5.3601,-5.3599,-5.3272,-5.2753,-5.2557,-5.2496,-5.2441,-5.1893,-5.1867,-5.2215,-5.1811,-5.183,-5.2307,-5.2362,-5.2344,-5.2344,-5.2344,-5.2344,-5.2344,-5.2344,-5.2344,-5.2344,-5.2344,-5.2344,-5.2289,-5.2344,-5.2362,-5.227,-5.1334,-5.082,-5.082,-5.0827,-5.0643,-5.0365,-5.0372,-5.0225,-4.9905,-4.9391,-4.9154,-4.9077,-4.8728,-4.8508,-4.8526,-4.8656,-4.8822,-4.9082,-4.9238,-4.9529,-4.9778,-5.0293,-5.0793,-5.1094,-5.1662,-5.1973,-5.2011,-5.1376,-5.0702,-5.0683,-5.0702,-5.076,-5.0683,-5.0683,-5.0683,-5.0683,-5.0683,-5.0683,-5.0798,-5.0702,-5.0683,-5.0683,-5.0702,-5.0741,-5.0702,-5.0702,-5.0779,-5.0702,-5.0683,-5.0683,-5.0683,-5.0683,-5.0683,-5.0683,-5.0683,-5.0683,-5.0683,-5.0683,-5.0683,-5.0683,-5.0683,-5.0683,-5.0683,-5.0683,-5.0683,-5.0683,-5.0683,-5.0683,-5.0683,-5.0683,-5.0683,-5.4731,-5.4535,-5.4503,-5.4387,-5.4288,-5.4255,-5.4187,-5.4086,-5.4067,-5.3906,-5.3624,-5.3604,-5.3444,-5.3248,-5.3206,-5.3318,-5.3604,-5.3586,-5.3444,-5.3206,-5.3206,-5.3206,-5.3133,-5.2637,-5.2674,-5.3059,-5.2674,-5.2692,-5.3133,-5.3206,-5.3206,-5.3188,-5.3206,-5.3206,-5.3206,-5.3206,-5.3206,-5.3206,-5.3206,-5.3188,-5.3206,-5.3206,-5.3206,-5.3059,-5.2142,-5.1591,-5.1591,-5.1591,-5.1444,-5.122,-5.1195,-5.1084,-5.0758,-5.031,-5.0,-4.9884,-4.9467,-4.9099,-4.9099,-4.9099,-4.9246,-4.9483,-4.9654,-4.9859,-5.0271,-5.0945,-5.1471,-5.1945,-5.2368,-5.2916,-5.2916,-5.2184,-5.1529,-5.151,-5.1491,-5.151,-5.1491,-5.1549,-5.1548,-5.1587,-5.1625,-5.1568,-5.151,-5.1529,-5.1568,-5.151,-5.1491,-5.151,-5.1491,-5.151,-5.1491,-5.151,-5.1606,-5.1664,-5.1722,-5.1818,-5.1144,-5.0991,-5.0933,-5.0856,-5.0895,-5.0837,-5.0818,-5.076,-5.0721,-5.0702,-5.0702,-5.0721,-5.0721,-5.076,-5.0683,-5.0683,-5.0683,-5.0683,-5.0818,-5.4452,-5.4439,-5.4471,-5.4153,-5.3833,-5.3833,-5.3584,-5.3336,-5.3272,-5.3295,-5.3272,-5.323,-5.323,-5.3206,-5.3206,-5.3206,-5.323,-5.3272,-5.323,-5.3206,-5.3206,-5.3206,-5.3206,-5.3133,-5.3096,-5.3206,-5.3188,-5.317,-5.3206,-5.3206,-5.3206,-5.3206,-5.3206,-5.3206,-5.3206,-5.3206,-5.3206,-5.3206,-5.3206,-5.3206,-5.3206,-5.3206,-5.3206,-5.3206,-5.3078,-5.3004,-5.3078,-5.3078,-5.2687,-5.209,-5.1998,-5.1621,-5.1127,-5.0886,-5.082,-5.0805,-5.0741,-5.0708,-5.0671,-5.0616,-5.0554,-5.064,-5.0961,-5.1158,-5.1453,-5.2092,-5.2585,-5.29,-5.3193,-5.3334,-5.3393,-5.3297,-5.3124,-5.3147,-5.2916,-5.2897,-5.3013,-5.3107,-5.3145,-5.301,-5.2933,-5.3126,-5.3145,-5.2914,-5.2838,-5.2858,-5.2877,-5.2857,-5.28,-5.2761,-5.305,-5.3029,-5.2779,-5.2568,-5.2876,-5.3068,-5.2106,-5.1337,-5.126,-5.1202,-5.1356,-5.1395,-5.1472,-5.1453,-5.1491,-5.1471,-5.1491,-5.1491,-5.1356,-5.1318,-5.1068,-5.1087,-5.1279,-5.1433,-5.1222,-5.3602,-5.3602,-5.3584,-5.3524,-5.34,-5.34,-5.3295,-5.3206,-5.3206,-5.3206,-5.3206,-5.3206,-5.3206,-5.3206,-5.3206,-5.3206,-5.3206,-5.3206,-5.3206,-5.3206,-5.3206,-5.3206,-5.3206,-5.3206,-5.3206,-5.3206,-5.3206,-5.3206,-5.3206,-5.3206,-5.3206,-5.3206,-5.3206,-5.3206,-5.3206,-5.3206,-5.3206,-5.3206,-5.3206,-5.3206,-5.3206,-5.3206,-5.3206,-5.3206,-5.3206,-5.3206,-5.3206,-5.3206,-5.3072,-5.2834,-5.2834,-5.27,-5.2425,-5.1949,-5.1637,-5.1591,-5.1087,-5.0817,-5.0805,-5.0835,-5.0863,-5.0858,-5.0936,-5.1029,-5.125,-5.2095,-5.2786,-5.3248,-5.3968,-5.4587,-5.485,-5.4934,-5.4413,-5.3317,-5.3201,-5.3278,-5.3336,-5.3276,-5.318,-5.3203,-5.3203,-5.3203,-5.3222,-5.326,-5.3337,-5.3338,-5.3319,-5.3299,-5.3259,-5.3374,-5.318,-5.32,-5.318,-5.3433,-5.3587,-5.3703,-5.3222,-5.2529,-5.226,-5.1914,-5.1991,-5.205,-5.2127,-5.2145,-5.2183,-5.2222,-5.2241,-5.2222,-5.2087,-5.2222,-5.2318,-5.2356,-5.2414,-5.226,-5.2011,-5.3206,-5.3206,-5.3206,-5.3206,-5.3206,-5.3206,-5.3206,-5.3206,-5.3206,-5.3206,-5.3206,-5.3206,-5.3206,-5.3206,-5.3206,-5.3206,-5.3206,-5.3206,-5.3206,-5.3206,-5.3206,-5.3206,-5.3206,-5.3206,-5.3206,-5.3206,-5.3206,-5.3206,-5.3206,-5.3206,-5.3206,-5.3206,-5.3206,-5.3206,-5.3206,-5.3206,-5.3206,-5.3206,-5.3206,-5.3206,-5.3206,-5.3206,-5.3206,-5.3206,-5.3206,-5.3206,-5.3206,-5.3206,-5.3206,-5.3206,-5.3206,-5.3206,-5.317,-5.2682,-5.2425,-5.2357,-5.204,-5.1724,-5.1678,-5.1802,-5.1676,-5.1676,-5.1676,-5.1811,-5.2026,-5.2743,-5.3201,-5.3766,-5.4368,-5.5026,-5.5362,-5.5472,-5.5009,-5.4276,-5.418,-5.4141,-5.4122,-5.4122,-5.4141,-5.4241,-5.4203,-5.4145,-5.4145,-5.4126,-5.4126,-5.4126,-5.4126,-5.4126,-5.4122,-5.418,-5.4103,-5.4084,-5.4316,-5.4395,-5.4241,-5.4241,-5.4222,-5.3837,-5.3472,-5.3029,-5.28,-5.278,-5.2819,-5.2799,-5.2817,-5.2738,-5.2758,-5.2855,-5.2856,-5.3164,-5.3356,-5.3049,-5.2856,-5.2933,-5.278,-5.3206,-5.3206,-5.3206,-5.3206,-5.3206,-5.3206,-5.3206,-5.3206,-5.3206,-5.3206,-5.3206,-5.3206,-5.3206,-5.3206,-5.3206,-5.3206,-5.3206,-5.3206,-5.3206,-5.3206,-5.3206,-5.3206,-5.3206,-5.3206,-5.3206,-5.3206,-5.3206,-5.3206,-5.3206,-5.3206,-5.3206,-5.3206,-5.3206,-5.3206,-5.3206,-5.3206,-5.3206,-5.3206,-5.3206,-5.3206,-5.3206,-5.3206,-5.3206,-5.3206,-5.3206,-5.3206,-5.3206,-5.3206,-5.3206,-5.3206,-5.3206,-5.3206,-5.3206,-5.3206,-5.3133,-5.3096,-5.317,-5.3036,-5.3133,-5.2926,-5.2962,-5.2944,-5.2926,-5.3359,-5.342,-5.3491,-5.3795,-5.4183,-5.442,-5.4676,-5.4992,-5.5122,-5.522,-5.5588,-5.5395,-5.5434,-5.5626,-5.5568,-5.5395,-5.5472,-5.5645,-5.5645,-5.5453,-5.5453,-5.5491,-5.5491,-5.5434,-5.5357,-5.5357,-5.528,-5.5549,-5.5472,-5.5203,-5.5145,-5.4914,-5.4914,-5.4895,-5.4741,-5.4453,-5.4145,-5.3799,-5.3781,-5.38,-5.372,-5.3546,-5.3428,-5.3526,-5.3759,-5.3818,-5.3933,-5.3818,-5.3433,-5.3491,-5.3741,-5.3799,-5.3206,-5.3206,-5.3206,-5.3206,-5.3206,-5.3206,-5.3206,-5.3206,-5.3206,-5.3206,-5.3206,-5.3206,-5.3206,-5.3206,-5.3206,-5.3206,-5.3206,-5.3206,-5.3206,-5.3206,-5.3206,-5.3206,-5.3206,-5.3206,-5.3206,-5.3206,-5.3206,-5.3206,-5.3206,-5.3206,-5.3206,-5.3206,-5.3206,-5.3206,-5.3206,-5.3206,-5.3206,-5.3206,-5.3206,-5.3206,-5.3206,-5.3206,-5.3206,-5.3206,-5.3206,-5.3206,-5.3206,-5.3206,-5.3206,-5.3206,-5.3206,-5.3206,-5.3206,-5.3206,-5.3206,-5.3206,-5.3206,-5.3206,-5.3206,-5.3206,-5.3206,-5.3206,-5.3206,-5.3248,-5.3336,-5.3645,-5.3838,-5.4053,-5.4273,-5.4528,-5.4677,-5.491,-5.5234,-5.5607,-5.5626,-5.5645,-5.5684,-5.5684,-5.5684,-5.5684,-5.5684,-5.5684,-5.5684,-5.5684,-5.5684,-5.5684,-5.5684,-5.5684,-5.5684,-5.5684,-5.5684,-5.5684,-5.5549,-5.5607,-5.5607,-5.5607,-5.5588,-5.5511,-5.5357,-5.5241,-5.503,-5.5011,-5.5068,-5.5126,-5.4759,-5.4586,-5.4855,-5.5145,-5.503,-5.4684,-5.4761,-5.4645,-5.4876,-5.5126,-5.503,-5.3206,-5.3206,-5.3206,-5.3206,-5.3206,-5.3206,-5.3206,-5.3206,-5.3206,-5.3206,-5.3206,-5.3206,-5.3206,-5.3206,-5.3206,-5.3206,-5.3206,-5.3206,-5.3206,-5.3206,-5.3206,-5.3206,-5.3206,-5.3206,-5.3206,-5.3206,-5.3206,-5.3206,-5.3206,-5.3206,-5.3206,-5.3206,-5.3206,-5.3206,-5.3206,-5.3206,-5.3206,-5.3206,-5.3206,-5.3206,-5.3206,-5.3206,-5.3206,-5.3206,-5.3206,-5.3206,-5.3206,-5.3206,-5.3206,-5.3206,-5.3206,-5.3206,-5.3206,-5.3206,-5.3206,-5.3206,-5.3206,-5.3206,-5.3206,-5.3206,-5.3206,-5.3206,-5.3206,-5.3206,-5.3225,-5.3427,-5.3579,-5.3613,-5.3831,-5.4018,-5.4246,-5.4599,-5.502,-5.5338,-5.5299,-5.5357,-5.5626,-5.5684,-5.5684,-5.5684,-5.5684,-5.5684,-5.5684,-5.5684,-5.5684,-5.5684,-5.5684,-5.5684,-5.5684,-5.5684,-5.5684,-5.5684,-5.5684,-5.5684,-5.5684,-5.5684,-5.5684,-5.5684,-5.5684,-5.5684,-5.5684,-5.5684,-5.5645,-5.5607,-5.5665,-5.5684,-5.5684,-5.5684,-5.553,-5.5395,-5.5665,-5.5684,-5.5684,-5.5684,-5.5684,-5.3206,-5.3206,-5.3206,-5.3206,-5.3206,-5.3206,-5.3206,-5.3206,-5.3206,-5.3206,-5.3206,-5.3206,-5.3206,-5.3206,-5.3206,-5.3206,-5.3206,-5.3206,-5.3206,-5.3206,-5.3206,-5.3206,-5.3206,-5.3206,-5.3206,-5.3206,-5.3206,-5.3206,-5.3206,-5.3206,-5.3206,-5.3206,-5.3206,-5.3206,-5.3206,-5.3206,-5.3206,-5.3206,-5.3206,-5.3206,-5.3206,-5.3206,-5.3206,-5.3206,-5.3206,-5.3206,-5.3206,-5.3206,-5.3206,-5.3206,-5.3206,-5.3206,-5.3206,-5.3206,-5.3206,-5.3206,-5.3206,-5.3206,-5.3206,-5.3206,-5.3206,-5.3206,-5.3206,-5.3206,-5.3225,-5.3261,-5.328,-5.328,-5.3225,-5.3502,-5.3857,-5.4231,-5.4592,-5.4887,-5.4724,-5.491,-5.5378,-5.5596,-5.5645,-5.5662,-5.564,-5.5684,-5.5684,-5.5684,-5.5684,-5.5491,-5.5511,-5.5491,-5.5491,-5.5472,-5.5568,-5.5684,-5.5684,-5.5684,-5.5684,-5.5684,-5.5684,-5.5684,-5.5684,-5.5684,-5.5684,-5.5684,-5.5684,-5.5684,-5.5684,-5.5684,-5.5684,-5.5684,-5.5684,-5.5684,-5.5684,-5.5684,-5.5684,-5.5684,-5.5684,-5.3206,-5.3206,-5.3206,-5.3206,-5.3206,-5.3206,-5.3206,-5.3206,-5.3206,-5.3206,-5.3206,-5.3206,-5.3206,-5.3206,-5.3206,-5.3206,-5.3206,-5.3206,-5.3206,-5.3206,-5.3206,-5.3206,-5.3206,-5.3206,-5.3206,-5.3206,-5.3206,-5.3206,-5.3206,-5.3206,-5.3206,-5.3206,-5.3206,-5.3206,-5.3206,-5.3206,-5.3206,-5.3206,-5.3206,-5.3206,-5.3206,-5.3206,-5.3206,-5.3206,-5.3206,-5.3206,-5.3206,-5.3206,-5.3206,-5.3206,-5.3206,-5.3206,-5.3206,-5.3206,-5.3206,-5.3206,-5.3206,-5.3206,-5.3206,-5.3206,-5.3206,-5.3206,-5.3206,-5.3206,-5.3206,-5.3206,-5.3206,-5.3206,-5.3225,-5.3371,-5.3681,-5.3857,-5.4167,-5.4468,-5.4506,-5.4509,-5.475,-5.5019,-5.5216,-5.5298,-5.5489,-5.5684,-5.5662,-5.5599,-5.5503,-5.5316,-5.5218,-5.5239,-5.5231,-5.5216,-5.5312,-5.5408,-5.5432,-5.5408,-5.5423,-5.5446,-5.547,-5.5535,-5.5599,-5.5491,-5.5491,-5.5684,-5.5684,-5.5684,-5.5684,-5.5684,-5.5684,-5.5684,-5.5684,-5.5684,-5.5684,-5.5684,-5.5684,-5.5684,-5.5684,-5.3206,-5.3206,-5.3206,-5.3206,-5.3206,-5.3206,-5.3206,-5.3206,-5.3206,-5.3206,-5.3206,-5.3206,-5.3206,-5.3206,-5.3206,-5.3206,-5.3206,-5.3206,-5.3206,-5.3206,-5.3206,-5.3206,-5.3206,-5.3206,-5.3206,-5.3206,-5.3206,-5.3206,-5.3206,-5.3206,-5.3206,-5.3206,-5.3206,-5.3206,-5.3206,-5.3206,-5.3206,-5.3206,-5.3206,-5.3206,-5.3206,-5.3206,-5.3206,-5.3206,-5.3206,-5.3206,-5.3206,-5.3206,-5.3206,-5.3206,-5.3206,-5.3206,-5.3206,-5.3206,-5.3206,-5.3206,-5.3206,-5.3206,-5.3206,-5.3206,-5.3206,-5.3206,-5.3206,-5.3206,-5.3206,-5.3206,-5.3206,-5.3206,-5.3225,-5.3316,-5.3463,-5.3524,-5.3744,-5.3986,-5.3979,-5.3971,-5.4218,-5.4554,-5.4814,-5.4855,-5.496,-5.5061,-5.5115,-5.5237,-5.5121,-5.4814,-5.4825,-5.4808,-5.4825,-5.4829,-5.4871,-5.4939,-5.5028,-5.5076,-5.5099,-5.5115,-5.5186,-5.5306,-5.5423,-5.5231,-5.5047,-5.5376,-5.5684,-5.5665,-5.5645,-5.5684,-5.5684,-5.5684,-5.5684,-5.5684,-5.5684,-5.5684,-5.5684,-5.5684,-5.5684,-5.3206,-5.3206,-5.3206,-5.3206,-5.3206,-5.3206,-5.3206,-5.3206,-5.3206,-5.3206,-5.3206,-5.3206,-5.3206,-5.3206,-5.3206,-5.3206,-5.3206,-5.3206,-5.3206,-5.3206,-5.3206,-5.3206,-5.3206,-5.3206,-5.3206,-5.3206,-5.3206,-5.3206,-5.3206,-5.3206,-5.3206,-5.3206,-5.3206,-5.3206,-5.3206,-5.3206,-5.3206,-5.3206,-5.3206,-5.3206,-5.3206,-5.3206,-5.3206,-5.3206,-5.3206,-5.3206,-5.3206,-5.3206,-5.3206,-5.3206,-5.3206,-5.3206,-5.3206,-5.3206,-5.3206,-5.3206,-5.3206,-5.3206,-5.3206,-5.3206,-5.3206,-5.3206,-5.3206,-5.3206,-5.3206,-5.3206,-5.3206,-5.3206,-5.3225,-5.3225,-5.3206,-5.3261,-5.339,-5.3561,-5.3414,-5.339,-5.3671,-5.4081,-5.426,-5.4424,-5.4579,-5.4731,-5.4671,-5.4712,-5.4531,-5.4403,-5.4408,-5.439,-5.4383,-5.4451,-5.4466,-5.4634,-5.4769,-5.4817,-5.4817,-5.4819,-5.4876,-5.4905,-5.5107,-5.4943,-5.468,-5.4929,-5.5255,-5.5525,-5.5588,-5.5626,-5.5665,-5.5684,-5.5684,-5.5684,-5.5684,-5.5684,-5.5684,-5.5684,-5.5684,-5.3206,-5.3206,-5.3206,-5.3206,-5.3206,-5.3206,-5.3206,-5.3206,-5.3206,-5.3206,-5.3206,-5.3206,-5.3206,-5.3206,-5.3206,-5.3206,-5.3206,-5.3206,-5.3206,-5.3206,-5.3206,-5.3206,-5.3206,-5.3206,-5.3206,-5.3206,-5.3206,-5.3206,-5.3206,-5.3206,-5.3206,-5.3206,-5.3206,-5.3206,-5.3206,-5.3206,-5.3206,-5.3206,-5.3206,-5.3206,-5.3206,-5.3206,-5.3206,-5.3206,-5.3206,-5.3206,-5.3206,-5.3206,-5.3206,-5.3206,-5.3206,-5.3206,-5.3206,-5.3206,-5.3206,-5.3206,-5.3206,-5.3206,-5.3206,-5.3206,-5.3206,-5.3206,-5.3206,-5.3206,-5.3206,-5.3206,-5.3206,-5.3206,-5.3206,-5.3206,-5.3206,-5.3206,-5.3225,-5.3298,-5.3298,-5.3261,-5.3335,-5.3474,-5.3658,-5.3907,-5.4206,-5.4406,-5.4274,-5.4187,-5.4105,-5.4,-5.3945,-5.3925,-5.3942,-5.4007,-5.4086,-5.4294,-5.4541,-5.4562,-5.4572,-5.4535,-5.4547,-5.4484,-5.4583,-5.4619,-5.4466,-5.4534,-5.4771,-5.4977,-5.5308,-5.5511,-5.5568,-5.5626,-5.5665,-5.5665,-5.5665,-5.5684,-5.5684,-5.5684,-5.5684,-5.3206,-5.3206,-5.3206,-5.3206,-5.3206,-5.3206,-5.3206,-5.3206,-5.3206,-5.3206,-5.3206,-5.3206,-5.3206,-5.3206,-5.3206,-5.3206,-5.3206,-5.3206,-5.3206,-5.3206,-5.3206,-5.3206,-5.3206,-5.3206,-5.3206,-5.3206,-5.3206,-5.3206,-5.3206,-5.3206,-5.3206,-5.3206,-5.3206,-5.3206,-5.3206,-5.3206,-5.3206,-5.3206,-5.3206,-5.3206,-5.3206,-5.3206,-5.3206,-5.3206,-5.3206,-5.3206,-5.3206,-5.3206,-5.3206,-5.3206,-5.3206,-5.3206,-5.3206,-5.3206,-5.3206,-5.3206,-5.3206,-5.3206,-5.3206,-5.3206,-5.3206,-5.3206,-5.3206,-5.3206,-5.3206,-5.3206,-5.3206,-5.3206,-5.3206,-5.3206,-5.3206,-5.3206,-5.3206,-5.3206,-5.3206,-5.3206,-5.3206,-5.3206,-5.3318,-5.3465,-5.3623,-5.3758,-5.3776,-5.3683,-5.3684,-5.3628,-5.3516,-5.3528,-5.3548,-5.3597,-5.3708,-5.3778,-5.3989,-5.3997,-5.4052,-5.4121,-5.4102,-5.4067,-5.4134,-5.4169,-5.4163,-5.419,-5.4228,-5.4359,-5.4739,-5.5082,-5.5314,-5.5314,-5.547,-5.5605,-5.5602,-5.5599,-5.5662,-5.5684,-5.5643,-5.3206,-5.3206,-5.3206,-5.3206,-5.3206,-5.3206,-5.3206,-5.3206,-5.3206,-5.3206,-5.3206,-5.3206,-5.3206,-5.3206,-5.3206,-5.3206,-5.3206,-5.3206,-5.3206,-5.3206,-5.3206,-5.3206,-5.3206,-5.3206,-5.3206,-5.3206,-5.3206,-5.3206,-5.3206,-5.3206,-5.3206,-5.3206,-5.3206,-5.3206,-5.3206,-5.3206,-5.3206,-5.3206,-5.3206,-5.3206,-5.3206,-5.3206,-5.3206,-5.3206,-5.3206,-5.3206,-5.3206,-5.3206,-5.3206,-5.3206,-5.3206,-5.3206,-5.3206,-5.3206,-5.3206,-5.3206,-5.3206,-5.3206,-5.3206,-5.3206,-5.3206,-5.3206,-5.3206,-5.3206,-5.3206,-5.3206,-5.3206,-5.3206,-5.3206,-5.3206,-5.3206,-5.3206,-5.3206,-5.3206,-5.3206,-5.3206,-5.3206,-5.3206,-5.3206,-5.3272,-5.3206,-5.3272,-5.3418,-5.34,-5.3428,-5.3428,-5.3336,-5.3354,-5.3335,-5.3316,-5.3353,-5.3316,-5.3364,-5.3364,-5.344,-5.3641,-5.3623,-5.3563,-5.3682,-5.3794,-5.3776,-5.3758,-5.3773,-5.3866,-5.3938,-5.4273,-5.4611,-5.4977,-5.5046,-5.5174,-5.538,-5.5399,-5.5237,-5.5361,-5.5455,-5.3206,-5.3206,-5.3206,-5.3206,-5.3206,-5.3206,-5.3206,-5.3206,-5.3206,-5.3206,-5.3206,-5.3206,-5.3206,-5.3206,-5.3206,-5.3206,-5.3206,-5.3206,-5.3206,-5.3206,-5.3206,-5.3206,-5.3206,-5.3206,-5.3206,-5.3206,-5.3206,-5.3206,-5.3206,-5.3206,-5.3206,-5.3206,-5.3206,-5.3206,-5.3206,-5.3206,-5.3206,-5.3206,-5.3206,-5.3206,-5.3206,-5.3206,-5.3206,-5.3206,-5.3206,-5.3206,-5.3206,-5.3206,-5.3206,-5.3206,-5.3206,-5.3206,-5.3206,-5.3206,-5.3206,-5.3206,-5.3206,-5.3206,-5.3206,-5.3206,-5.3206,-5.3206,-5.3206,-5.3206,-5.3206,-5.3206,-5.3206,-5.3206,-5.3206,-5.3206,-5.3206,-5.3206,-5.3206,-5.3206,-5.3206,-5.3206,-5.3206,-5.3206,-5.3206,-5.3206,-5.3206,-5.3206,-5.3272,-5.3248,-5.3206,-5.3206,-5.3206,-5.3206,-5.3206,-5.3206,-5.3206,-5.3206,-5.3206,-5.3206,-5.3206,-5.3336,-5.3336,-5.3206,-5.3336,-5.3462,-5.3462,-5.3462,-5.3378,-5.3422,-5.3479,-5.3702,-5.4158,-5.4468,-5.4585,-5.4741,-5.4933,-5.4819,-5.4628,-5.4857,-5.518,-5.3206,-5.3206,-5.3206,-5.3206,-5.3206,-5.3206,-5.3206,-5.3206,-5.3206,-5.3206,-5.3206,-5.3206,-5.3206,-5.3206,-5.3206,-5.3206,-5.3206,-5.3206,-5.3206,-5.3206,-5.3206,-5.3206,-5.3206,-5.3206,-5.3206,-5.3206,-5.3206,-5.3206,-5.3206,-5.3206,-5.3206,-5.3206,-5.3206,-5.3206,-5.3206,-5.3206,-5.3206,-5.3206,-5.3206,-5.3206,-5.3206,-5.3206,-5.3206,-5.3206,-5.3206,-5.3206,-5.3206,-5.3206,-5.3206,-5.3206,-5.3206,-5.3206,-5.3206,-5.3206,-5.3206,-5.3206,-5.3206,-5.3206,-5.3206,-5.3206,-5.3206,-5.3206,-5.3206,-5.3206,-5.3206,-5.3206,-5.3206,-5.3206,-5.3206,-5.3206,-5.3206,-5.3206,-5.3206,-5.3206,-5.3206,-5.3206,-5.3206,-5.3206,-5.3206,-5.3206,-5.3206,-5.3206,-5.3206,-5.3206,-5.3206,-5.3206,-5.3206,-5.3206,-5.3206,-5.3206,-5.3206,-5.3206,-5.3206,-5.3206,-5.3206,-5.323,-5.3272,-5.3206,-5.3206,-5.3295,-5.3272,-5.3206,-5.3206,-5.3206,-5.3308,-5.3529,-5.3829,-5.3986,-5.4148,-5.4334,-5.4503,-5.4406,-5.4307,-5.4522,-5.4781,-5.3206,-5.3206,-5.3206,-5.3206,-5.3206,-5.3206,-5.3206,-5.3206,-5.3206,-5.3206,-5.3206,-5.3206,-5.3206,-5.3206,-5.3206,-5.3206,-5.3206,-5.3206,-5.3206,-5.3206,-5.3206,-5.3206,-5.3206,-5.3206,-5.3206,-5.3206,-5.3206,-5.3206,-5.3206,-5.3206,-5.3206,-5.3206,-5.3206,-5.3206,-5.3206,-5.3206,-5.3206,-5.3206,-5.3206,-5.3206,-5.3206,-5.3206,-5.3206,-5.3206,-5.3206,-5.3206,-5.3206,-5.3206,-5.3206,-5.3206,-5.3206,-5.3206,-5.3206,-5.3206,-5.3206,-5.3206,-5.3206,-5.3206,-5.3206,-5.3206,-5.3206,-5.3206,-5.3206,-5.3206,-5.3206,-5.3206,-5.3206,-5.3206,-5.3206,-5.3206,-5.3206,-5.3206,-5.3206,-5.3206,-5.3206,-5.3206,-5.3206,-5.3206,-5.3206,-5.3206,-5.3206,-5.3206,-5.3206,-5.3206,-5.3206,-5.3206,-5.3206,-5.3225,-5.328,-5.3335,-5.3316,-5.3353,-5.3298,-5.3298,-5.3243,-5.3243,-5.3225,-5.3206,-5.3206,-5.3206,-5.3206,-5.3206,-5.3206,-5.3206,-5.3206,-5.328,-5.3506,-5.3626,-5.375,-5.381,-5.3925,-5.405,-5.4086,-5.4262,-5.442,-5.3206,-5.3206,-5.3206,-5.3206,-5.3206,-5.3206,-5.3206,-5.3206,-5.3206,-5.3206,-5.3206,-5.3206,-5.3206,-5.3206,-5.3206,-5.3206,-5.3206,-5.3206,-5.3206,-5.3206,-5.3206,-5.3206,-5.3206,-5.3206,-5.3206,-5.3206,-5.3206,-5.3206,-5.3206,-5.3206,-5.3206,-5.3206,-5.3206,-5.3206,-5.3206,-5.3206,-5.3206,-5.3206,-5.3206,-5.3206,-5.3206,-5.3206,-5.3206,-5.3206,-5.3206,-5.3206,-5.3206,-5.3206,-5.3206,-5.3206,-5.3206,-5.3206,-5.3206,-5.3206,-5.3225,-5.339,-5.3378,-5.3476,-5.3555,-5.3335,-5.3206,-5.3206,-5.3206,-5.3206,-5.3206,-5.3206,-5.3206,-5.3206,-5.3206,-5.3206,-5.3206,-5.3206,-5.3206,-5.3206,-5.3206,-5.3206,-5.3206,-5.3206,-5.3206,-5.3206,-5.3206,-5.3206,-5.3206,-5.3206,-5.3206,-5.3206,-5.3561,-5.3597,-5.3592,-5.361,-5.3555,-5.3537,-5.3463,-5.3408,-5.3298,-5.3335,-5.3463,-5.3316,-5.3206,-5.3206,-5.3206,-5.3206,-5.3206,-5.3206,-5.3206,-5.3206,-5.3206,-5.334,-5.3419,-5.3304,-5.3336,-5.3563,-5.3678,-5.3773,-5.4036,-5.3206,-5.3206,-5.3206,-5.3206,-5.3206,-5.3206,-5.3206,-5.3206,-5.3206,-5.3206,-5.3206,-5.3206,-5.3206,-5.3206,-5.3206,-5.3206,-5.3206,-5.3206,-5.3206,-5.3206,-5.3206,-5.3206,-5.3206,-5.3206,-5.3206,-5.3206,-5.3206,-5.3206,-5.3206,-5.3206,-5.3206,-5.3206,-5.3206,-5.3206,-5.3206,-5.3206,-5.3206,-5.3206,-5.3206,-5.3206,-5.3206,-5.3206,-5.3206,-5.3206,-5.3206,-5.3206,-5.3206,-5.3206,-5.3206,-5.3206,-5.3206,-5.3243,-5.3298,-5.328,-5.3542,-5.3891,-5.3946,-5.4166,-5.4283,-5.3818,-5.3225,-5.3206,-5.3206,-5.328,-5.339,-5.3243,-5.3225,-5.3206,-5.3225,-5.3206,-5.3206,-5.3206,-5.3206,-5.3206,-5.3206,-5.3206,-5.3206,-5.3206,-5.3206,-5.3206,-5.3206,-5.3206,-5.3206,-5.3206,-5.3206,-5.3243,-5.3634,-5.3928,-5.394,-5.4179,-5.4209,-5.4228,-5.4209,-5.4087,-5.3995,-5.3885,-5.3757,-5.3518,-5.328,-5.3206,-5.3206,-5.3206,-5.3206,-5.3206,-5.3206,-5.3206,-5.3206,-5.3206,-5.3206,-5.3206,-5.3206,-5.3272,-5.3304,-5.3353,-5.3595,-5.3206,-5.3206,-5.3206,-5.3206,-5.3206,-5.3206,-5.3206,-5.3206,-5.3206,-5.3206,-5.3206,-5.3206,-5.3206,-5.3206,-5.3206,-5.3206,-5.3206,-5.3206,-5.3206,-5.3206,-5.3206,-5.3206,-5.3206,-5.3206,-5.3206,-5.3206,-5.3206,-5.3206,-5.3206,-5.3206,-5.3206,-5.3206,-5.3206,-5.3206,-5.3206,-5.3206,-5.3206,-5.3206,-5.3206,-5.3206,-5.3206,-5.3206,-5.3206,-5.3206,-5.3206,-5.3206,-5.3206,-5.3206,-5.3206,-5.3206,-5.3243,-5.3347,-5.3439,-5.3665,-5.4026,-5.4436,-5.4825,-5.5084,-5.5115,-5.4748,-5.3928,-5.4124,-5.4081,-5.402,-5.3867,-5.3702,-5.3689,-5.3628,-5.3445,-5.3225,-5.3243,-5.3206,-5.3206,-5.3206,-5.3206,-5.3206,-5.3206,-5.3206,-5.3206,-5.3206,-5.3206,-5.3206,-5.3206,-5.3206,-5.3206,-5.3335,-5.3818,-5.4142,-5.4279,-5.4609,-5.5166,-5.521,-5.5236,-5.5078,-5.4858,-5.4473,-5.4087,-5.3849,-5.3592,-5.3261,-5.3206,-5.3206,-5.3206,-5.3206,-5.3206,-5.3206,-5.3206,-5.3206,-5.3206,-5.3206,-5.3206,-5.3206,-5.3225,-5.328,-5.3261,-5.3206,-5.3206,-5.3206,-5.3206,-5.3206,-5.3206,-5.3206,-5.3206,-5.3206,-5.3206,-5.3206,-5.3206,-5.3206,-5.3206,-5.3206,-5.3206,-5.3206,-5.3206,-5.3206,-5.3206,-5.3206,-5.3206,-5.3206,-5.3206,-5.3206,-5.3206,-5.3206,-5.3206,-5.3206,-5.3206,-5.3206,-5.3206,-5.3206,-5.3206,-5.3206,-5.3206,-5.3206,-5.3206,-5.3206,-5.3206,-5.3206,-5.3206,-5.3206,-5.3206,-5.3206,-5.3206,-5.3206,-5.3206,-5.3206,-5.3206,-5.3347,-5.3659,-5.4092,-5.4289,-5.4785,-5.5472,-5.5577,-5.5642,-5.5642,-5.557,-5.5459,-5.5251,-5.5,-5.508,-5.5177,-5.4883,-5.4369,-5.4363,-5.3965,-5.3463,-5.3316,-5.328,-5.3335,-5.3206,-5.3206,-5.3206,-5.3206,-5.3206,-5.3206,-5.3206,-5.3206,-5.3206,-5.3206,-5.3206,-5.3206,-5.3427,-5.3989,-5.4319,-5.46,-5.5386,-5.6136,-5.6273,-5.6282,-5.5978,-5.5629,-5.4876,-5.4436,-5.4179,-5.383,-5.3408,-5.3206,-5.3206,-5.3206,-5.3206,-5.3206,-5.3206,-5.3206,-5.3206,-5.3206,-5.3206,-5.3206,-5.3206,-5.3206,-5.3206,-5.3206,-5.3206,-5.3206,-5.3206,-5.3206,-5.3206,-5.3206,-5.3206,-5.3206,-5.3206,-5.3206,-5.3206,-5.3206,-5.3206,-5.3206,-5.3206,-5.3206,-5.3206,-5.3206,-5.3206,-5.3206,-5.3206,-5.3206,-5.3206,-5.3206,-5.3206,-5.3206,-5.3206,-5.3206,-5.3206,-5.3206,-5.3206,-5.3206,-5.3206,-5.3206,-5.3206,-5.3206,-5.3206,-5.3206,-5.3206,-5.3206,-5.3206,-5.3206,-5.3206,-5.3206,-5.3206,-5.3206,-5.3206,-5.3206,-5.3206,-5.3316,-5.3494,-5.4092,-5.4543,-5.4821,-5.5563,-5.6202,-5.6383,-5.6685,-5.7006,-5.7106,-5.6602,-5.6124,-5.5772,-5.5785,-5.5526,-5.5412,-5.5229,-5.5152,-5.4834,-5.443,-5.4154,-5.4044,-5.3934,-5.3316,-5.3206,-5.3206,-5.3206,-5.3206,-5.3206,-5.3206,-5.3206,-5.3206,-5.3206,-5.3206,-5.3206,-5.3597,-5.4117,-5.4704,-5.5057,-5.6374,-5.7363,-5.7382,-5.7336,-5.6932,-5.64,-5.5317,-5.4601,-5.4308,-5.3849,-5.3316,-5.3206,-5.3206,-5.3206,-5.3206,-5.3206,-5.3206,-5.3206,-5.3206,-5.3206,-5.3206,-5.3206,-5.3206,-5.3206,-5.3206,-5.3206,-5.3206,-5.3206,-5.3206,-5.3206,-5.3206,-5.3206,-5.3206,-5.3206,-5.3206,-5.3206,-5.3206,-5.3206,-5.3206,-5.3206,-5.3206,-5.3206,-5.3206,-5.3206,-5.3206,-5.3206,-5.3206,-5.3206,-5.3206,-5.3206,-5.3206,-5.3206,-5.3206,-5.3206,-5.3206,-5.3206,-5.3206,-5.3206,-5.3206,-5.3206,-5.3206,-5.3206,-5.3206,-5.3206,-5.3206,-5.3206,-5.3206,-5.3206,-5.3206,-5.3206,-5.3206,-5.3206,-5.3206,-5.3206,-5.3225,-5.3445,-5.3879,-5.4551,-5.4909,-5.5585,-5.6363,-5.6959,-5.7244,-5.7492,-5.7776,-5.7868,-5.729,-5.6749,-5.647,-5.6415,-5.6308,-5.6236,-5.609,-5.5978,-5.5834,-5.5411,-5.4945,-5.4816,-5.4564,-5.3965,-5.3702,-5.372,-5.3616,-5.3634,-5.328,-5.328,-5.3225,-5.3206,-5.3206,-5.3206,-5.3206,-5.3726,-5.4246,-5.4752,-5.524,-5.642,-5.74,-5.7344,-5.7189,-5.662,-5.6033,-5.5372,-5.4785,-5.4436,-5.3867,-5.3243,-5.3206,-5.3206,-5.3206,-5.3206,-5.3206,-5.3206,-5.3206,-5.3206,-5.3206,-5.3206,-5.3206,-5.3206,-5.3206,-5.3206,-5.3206,-5.3206,-5.3206,-5.3206,-5.3206,-5.3206,-5.3206,-5.3206,-5.3206,-5.3206,-5.3206,-5.3206,-5.3206,-5.3206,-5.3206,-5.3206,-5.3206,-5.3206,-5.3206,-5.3206,-5.3206,-5.3206,-5.3206,-5.3206,-5.3206,-5.3206,-5.3206,-5.3206,-5.3206,-5.3206,-5.3206,-5.3206,-5.3206,-5.3206,-5.3206,-5.3206,-5.3206,-5.3206,-5.3206,-5.3206,-5.3206,-5.3206,-5.3206,-5.3206,-5.3206,-5.3206,-5.3206,-5.3206,-5.3206,-5.328,-5.3597,-5.4099,-5.4869,-5.5595,-5.64,-5.7198,-5.7712,-5.7886,-5.7941,-5.796,-5.7978,-5.796,-5.7547,-5.7703,-5.7886,-5.7685,-5.7098,-5.6923,-5.6685,-5.6481,-5.6077,-5.5647,-5.5606,-5.5546,-5.5098,-5.4706,-5.454,-5.4301,-5.4044,-5.3579,-5.3353,-5.3261,-5.3225,-5.3206,-5.3206,-5.3225,-5.3427,-5.3836,-5.4044,-5.4598,-5.5445,-5.6195,-5.6231,-5.6059,-5.5849,-5.5409,-5.5097,-5.4803,-5.4399,-5.3757,-5.3206,-5.3206,-5.3206,-5.3206,-5.3206,-5.3206,-5.3206,-5.3206,-5.3206,-5.3206,-5.3206,-5.3206,-5.3206,-5.3206,-5.3206,-5.3206,-5.3206,-5.3206,-5.3206,-5.3206,-5.3206,-5.3206,-5.3206,-5.3206,-5.3206,-5.3206,-5.3206,-5.3206,-5.3206,-5.3206,-5.3206,-5.3206,-5.3206,-5.3206,-5.3206,-5.3206,-5.3206,-5.3206,-5.3206,-5.3206,-5.3206,-5.3206,-5.3206,-5.3206,-5.3206,-5.3206,-5.3206,-5.3206,-5.3206,-5.3206,-5.3206,-5.3206,-5.3206,-5.3206,-5.3206,-5.3206,-5.3206,-5.3206,-5.3206,-5.3206,-5.3206,-5.3206,-5.3206,-5.3206,-5.3371,-5.4044,-5.4791,-5.5606,-5.6392,-5.7162,-5.785,-5.7886,-5.796,-5.7978,-5.7978,-5.7978,-5.7978,-5.7978,-5.7978,-5.7978,-5.7905,-5.7795,-5.7547,-5.7336,-5.7189,-5.6877,-5.6538,-5.6444,-5.6261,-5.5904,-5.5574,-5.5299,-5.503,-5.4467,-5.3959,-5.3561,-5.3427,-5.3225,-5.3206,-5.3206,-5.3225,-5.328,-5.3408,-5.3561,-5.3916,-5.4718,-5.5092,-5.5147,-5.5177,-5.506,-5.5115,-5.4895,-5.4638,-5.4308,-5.3665,-5.3206,-5.3206,-5.3206,-5.3206,-5.3206,-5.3206,-5.3206,-5.3206,-5.3206,-5.3206,-5.3206,-5.3206,-5.3206,-5.3206,-5.3206,-5.3206,-5.3206,-5.3206,-5.3206,-5.3206,-5.3206,-5.3206,-5.3206,-5.3206,-5.3206,-5.3206,-5.3206,-5.3206,-5.3206,-5.3206,-5.3206,-5.3206,-5.3206,-5.3206,-5.3206,-5.3206,-5.3206,-5.3206,-5.3206,-5.3206,-5.3206,-5.3206,-5.3206,-5.3206,-5.3206,-5.3206,-5.3206,-5.3206,-5.3206,-5.3206,-5.3206,-5.3206,-5.3206,-5.3206,-5.3206,-5.3206,-5.3206,-5.3206,-5.3206,-5.3206,-5.3206,-5.3206,-5.3206,-5.3225,-5.3653,-5.4393,-5.5153,-5.5959,-5.674,-5.751,-5.7941,-5.7978,-5.7978,-5.7978,-5.7978,-5.7978,-5.7978,-5.7978,-5.7978,-5.7978,-5.7978,-5.7905,-5.7886,-5.7813,-5.785,-5.7795,-5.751,-5.7208,-5.6951,-5.6649,-5.6374,-5.6126,-5.5548,-5.4913,-5.4424,-5.3891,-5.3579,-5.3298,-5.3206,-5.3206,-5.3206,-5.3243,-5.3243,-5.3292,-5.3476,-5.3849,-5.4148,-5.4204,-5.4332,-5.4363,-5.4454,-5.4454,-5.4161,-5.3867,-5.3573,-5.3225,-5.3206,-5.3206,-5.3206,-5.3206,-5.3206,-5.3206,-5.3206,-5.3206,-5.3206,-5.3206,-5.3206,-5.3206,-5.3206,-5.3206,-5.3206,-5.3206,-5.3206,-5.3206,-5.3206,-5.3206,-5.3206,-5.3206,-5.3206,-5.3206,-5.3206,-5.3206,-5.3206,-5.3206,-5.3206,-5.3206,-5.3206,-5.3206,-5.3206,-5.3206,-5.3206,-5.3206,-5.3206,-5.3206,-5.3206,-5.3206,-5.3206,-5.3206,-5.3206,-5.3206,-5.3206,-5.3206,-5.3206,-5.3206,-5.3206,-5.3206,-5.3206,-5.3206,-5.3206,-5.3206,-5.3206,-5.3206,-5.3206,-5.3206,-5.3206,-5.3206,-5.3206,-5.3225,-5.3371,-5.3689,-5.4473,-5.5328,-5.6145,-5.6988,-5.7565,-5.7905,-5.7978,-5.7978,-5.7978,-5.7978,-5.7978,-5.7978,-5.7978,-5.7978,-5.7978,-5.7978,-5.7978,-5.7978,-5.7978,-5.796,-5.796,-5.7694,-5.7639,-5.7474,-5.7299,-5.7098,-5.6749,-5.6236,-5.531,-5.424,-5.3781,-5.3408,-5.3206,-5.3206,-5.3206,-5.3206,-5.3206,-5.3206,-5.3206,-5.3261,-5.3408,-5.3463,-5.3561,-5.3665,-5.3812,-5.3702,-5.3665,-5.35,-5.328,-5.3225,-5.3225,-5.3206,-5.3206,-5.3206,-5.3206,-5.3206,-5.3206,-5.3206,-5.3206,-5.3206,-5.3206,-5.3206,-5.3206,-5.3206,-5.3206,-5.3206,-5.3206,-5.3206,-5.3206,-5.3206,-5.3206,-5.3206,-5.3206,-5.3206,-5.3206,-5.3206,-5.3206,-5.3206,-5.3206,-5.3206,-5.3206,-5.3206,-5.3206,-5.3206,-5.3206,-5.3206,-5.3206,-5.3206,-5.3206,-5.3206,-5.3206,-5.3206,-5.3206,-5.3206,-5.3206,-5.3206,-5.3206,-5.3206,-5.3206,-5.3206,-5.3206,-5.3206,-5.3206,-5.3206,-5.3206,-5.3206,-5.3206,-5.3206,-5.3206,-5.3206,-5.3206,-5.3206,-5.3353,-5.3799,-5.4454,-5.5306,-5.608,-5.6896,-5.7675,-5.7886,-5.796,-5.7978,-5.7978,-5.7978,-5.7978,-5.7978,-5.7978,-5.7978,-5.7978,-5.7978,-5.7978,-5.7978,-5.7978,-5.7978,-5.7978,-5.7978,-5.7978,-5.7978,-5.796,-5.7886,-5.7721,-5.7226,-5.6759,-5.5456,-5.413,-5.3628,-5.328,-5.3206,-5.3206,-5.3206,-5.3206,-5.3206,-5.3206,-5.3206,-5.3206,-5.3298,-5.3298,-5.3335,-5.3316,-5.3335,-5.3206,-5.3206,-5.3206,-5.3206,-5.3225,-5.3206,-5.3206,-5.3206,-5.3206,-5.3206,-5.3206,-5.3206,-5.3206,-5.3206,-5.3206,-5.3206,-5.3206,-5.3206,-5.3206,-5.3206,-5.3206,-5.3206,-5.3206,-5.3206,-5.3206,-5.3206,-5.3206,-5.3206,-5.3206,-5.3206,-5.3206,-5.3206,-5.3206,-5.3206,-5.3206,-5.3206,-5.3206,-5.3206,-5.3206,-5.3206,-5.3206,-5.3206,-5.3206,-5.3206,-5.3206,-5.3206,-5.3206,-5.3206,-5.3206,-5.3206,-5.3206,-5.3206,-5.3206,-5.3206,-5.3206,-5.3206,-5.3206,-5.3206,-5.3206,-5.3206,-5.3206,-5.3206,-5.3206,-5.3206,-5.3206,-5.3206,-5.3206,-5.3445,-5.3989,-5.4785,-5.5742,-5.6675,-5.7327,-5.7868,-5.796,-5.7978,-5.7978,-5.7978,-5.7978,-5.7978,-5.7978,-5.7978,-5.7978,-5.7978,-5.7978,-5.7978,-5.7978,-5.7978,-5.7978,-5.7978,-5.7978,-5.7978,-5.7978,-5.7978,-5.7941,-5.7345,-5.6749,-5.597,-5.4883,-5.3946,-5.3408,-5.3206,-5.3206,-5.3206,-5.3206,-5.3206,-5.3206,-5.3206,-5.3206,-5.3206,-5.3206,-5.3206,-5.3206,-5.3206,-5.3206,-5.3206,-5.3206,-5.3206,-5.3206,-5.3206,-5.3206,-5.3206,-5.3206,-5.3206,-5.3206,-5.3206,-5.3206,-5.3206,-5.3206,-5.3206,-5.3206,-5.3206,-5.3206,-5.3225,-5.3243,-5.3316,-5.2858,-5.2913,-5.2986,-5.3041,-5.3096,-5.3188,-5.3206,-5.3206,-5.3206,-5.3206,-5.3206,-5.3206,-5.3206,-5.3206,-5.3206,-5.3206,-5.3206,-5.3206,-5.3206,-5.3206,-5.3206,-5.3206,-5.3206,-5.3206,-5.3206,-5.3206,-5.3206,-5.3206,-5.3206,-5.3206,-5.3206,-5.3206,-5.3206,-5.3206,-5.3206,-5.3206,-5.3206,-5.3206,-5.3206,-5.3206,-5.3206,-5.3206,-5.3206,-5.3206,-5.3206,-5.3206,-5.3427,-5.4117,-5.4908,-5.5857,-5.6969,-5.7648,-5.7941,-5.7978,-5.7978,-5.7978,-5.7978,-5.7978,-5.7978,-5.7978,-5.7978,-5.7978,-5.7978,-5.7978,-5.7978,-5.7978,-5.7978,-5.7978,-5.7978,-5.7978,-5.7978,-5.7978,-5.7978,-5.7703,-5.6978,-5.619,-5.5232,-5.4381,-5.3763,-5.3206,-5.3206,-5.3206,-5.3206,-5.3206,-5.3206,-5.3206,-5.3206,-5.3206,-5.3206,-5.3206,-5.3206,-5.3206,-5.3206,-5.3206,-5.3206,-5.3206,-5.3206,-5.3206,-5.3206,-5.3206,-5.3206,-5.3206,-5.3206,-5.3206,-5.3206,-5.3206,-5.3206,-5.3206,-5.3206,-5.3206,-5.3206,-5.3225,-5.3316,-5.3371,-5.3463,-5.1261,-5.1316,-5.1958,-5.2215,-5.2325,-5.2894,-5.3206,-5.3206,-5.3188,-5.3206,-5.3206,-5.3206,-5.3206,-5.3206,-5.3206,-5.3206,-5.3206,-5.3206,-5.3206,-5.3206,-5.3206,-5.3206,-5.3206,-5.3206,-5.3206,-5.3206,-5.3206,-5.3206,-5.3206,-5.3206,-5.3206,-5.3206,-5.3206,-5.3206,-5.3206,-5.3206,-5.3206,-5.3206,-5.3206,-5.3206,-5.3206,-5.3206,-5.3206,-5.3206,-5.3206,-5.3206,-5.3561,-5.468,-5.5264,-5.6004,-5.7005,-5.7758,-5.7978,-5.7978,-5.7978,-5.7978,-5.7978,-5.7978,-5.7978,-5.7978,-5.7978,-5.7978,-5.7978,-5.7978,-5.7978,-5.7978,-5.7978,-5.7978,-5.7978,-5.7978,-5.7978,-5.7978,-5.7941,-5.7344,-5.6683,-5.56,-5.462,-5.397,-5.3371,-5.3206,-5.3206,-5.3206,-5.3206,-5.3206,-5.3206,-5.3206,-5.3206,-5.3206,-5.3206,-5.3206,-5.3206,-5.3206,-5.3206,-5.3206,-5.3206,-5.3206,-5.3206,-5.3206,-5.3206,-5.3206,-5.3206,-5.3206,-5.3206,-5.3206,-5.3206,-5.3206,-5.3206,-5.3206,-5.3206,-5.3206,-5.3206,-5.3243,-5.3353,-5.3463,-5.3537]}]]